[[{"header":{"parameterUnit":"m.s-1","parameterCategory":1,"la1":30.6,"la2":28.766,"lo1":-90.7593,"lo2":-88.6598,"dy":0.0162,"dx":0.0183,"nx":116,"ny":114,"refTime":"2024-04-03T18:00:00:Z","depth":0,"parameterNumber":2,"parameterNumberName":"U-component_of_WINDS"},"data":[0.0,0.0,0.0,0.0,0.0,0.0,0.0,0.0,0.0,0.0,0.0,0.0,0.0,0.0,0.0,0.0,0.0,0.0,0.0,0.0,0.0,0.0,0.0,0.0,0.0,0.0,0.0,0.0,0.0,0.0,0.0,0.0,0.0,0.0,0.0,0.0,0.0,0.0,0.0,0.0,0.0,0.0,0.0,0.0,0.0,0.0,0.0,0.0,0.0,0.0,0.0,0.0,0.0,0.0,0.0,0.0,0.0,0.0,0.0,0.0,0.0,0.0,0.0,0.0,0.0,0.0,0.0,0.0,0.0,0.0,0.0,0.0,0.0,0.0,0.0,0.0,0.0,0.0,0.0,0.0,0.0,0.0,0.0,0.0,0.0,0.0,0.0,0.0,0.0,0.0,0.0,0.0,0.0,0.0,0.0,0.0,0.0,0.0,0.0,0.0,0.0,0.0,0.0,0.0,0.0,0.0,0.0,0.0,0.0,0.0,0.0,0.0,0.0,0.0,0.0,0.0,0.0,0.0,0.0,0.0,0.0,0.0,0.0,0.0,0.0,0.0,0.0,0.0,0.0,0.0,0.0,0.0,0.0,0.0,0.0,0.0,0.0,0.0,0.0,0.0,0.0,0.0,0.0,0.0,0.0,0.0,0.0,0.0,0.0,0.0,0.0,0.0,0.0,0.0,0.0,0.0,0.0,0.0,0.0,0.0,0.0,0.0,0.0,0.0,0.0,0.0,0.0,0.0,0.0,0.0,0.0,0.0,0.0,0.0,0.0,0.0,0.0,0.0,0.0,0.0,0.0,0.0,0.0,0.0,0.0,0.0,0.0,0.0,0.0,0.0,0.0,0.0,0.0,0.0,0.0,0.0,0.0,0.0,0.0,0.0,0.0,0.0,0.0,0.0,0.0,0.0,0.0,0.0,0.0,0.0,0.0,0.0,0.0,0.0,0.0,0.0,0.0,0.0,0.0,0.0,0.0,0.0,0.0,0.0,0.0,0.0,0.0,0.0,0.0,0.0,0.0,0.0,0.0,0.0,0.0,0.0,0.0,0.0,0.0,0.0,0.0,0.0,0.0,0.0,0.0,0.0,0.0,0.0,0.0,0.0,0.0,0.0,0.0,0.0,0.0,0.0,0.0,0.0,0.0,0.0,0.0,0.0,0.0,0.0,0.0,0.0,0.0,0.0,0.0,0.0,0.0,0.0,0.0,0.0,0.0,0.0,0.0,0.0,0.0,0.0,0.0,0.0,0.0,0.0,0.0,0.0,0.0,0.0,0.0,0.0,0.0,0.0,0.0,0.0,0.0,0.0,0.0,0.0,0.0,0.0,0.0,0.0,0.0,0.0,0.0,0.0,0.0,0.0,0.0,0.0,0.0,0.0,0.0,0.0,0.0,0.0,0.0,0.0,0.0,0.0,0.0,0.0,0.0,0.0,0.0,0.0,0.0,0.0,0.0,0.0,0.0,0.0,0.0,0.0,0.0,0.0,0.0,0.0,0.0,0.0,0.0,0.0,0.0,0.0,0.0,0.0,0.0,0.0,0.0,0.0,0.0,0.0,0.0,0.0,0.0,0.0,0.0,0.0,0.0,0.0,0.0,0.0,0.0,0.0,0.0,0.0,0.0,0.0,0.0,0.0,0.0,0.0,0.0,0.0,0.0,0.0,0.0,0.0,0.0,0.0,0.0,0.0,0.0,0.0,0.0,0.0,0.0,0.0,0.0,0.0,0.0,0.0,0.0,0.0,0.0,0.0,0.0,0.0,0.0,0.0,0.0,0.0,0.0,0.0,0.0,0.0,0.0,0.0,0.0,0.0,0.0,0.0,0.0,0.0,0.0,0.0,0.0,0.0,0.0,0.0,0.0,0.0,0.0,0.0,0.0,0.0,0.0,0.0,0.0,0.0,0.0,0.0,0.0,0.0,0.0,0.0,0.0,0.0,0.0,0.0,0.0,0.0,0.0,0.0,0.0,0.0,0.0,0.0,0.0,0.0,0.0,0.0,0.0,0.0,0.0,0.0,0.0,0.0,0.0,0.0,0.0,0.0,0.0,0.0,0.0,0.0,0.0,0.0,0.0,0.0,0.0,0.0,0.0,0.0,0.0,0.0,0.0,0.0,0.0,0.0,0.0,0.0,0.0,0.0,0.0,0.0,0.0,0.0,0.0,0.0,0.0,0.0,0.0,0.0,0.0,0.0,0.0,0.0,0.0,0.0,0.0,0.0,0.0,0.0,0.0,0.0,0.0,0.0,0.0,0.0,0.0,0.0,0.0,0.0,0.0,0.0,0.0,0.0,0.0,0.0,0.0,0.0,0.0,0.0,0.0,0.0,0.0,0.0,0.0,0.0,0.0,0.0,0.0,0.0,0.0,0.0,0.0,0.0,0.0,0.0,0.0,0.0,0.0,0.0,0.0,0.0,0.0,0.0,0.0,0.0,0.0,0.0,0.0,0.0,0.0,0.0,0.0,0.0,0.0,0.0,0.0,0.0,0.0,0.0,0.0,0.0,0.0,0.0,0.0,0.0,0.0,0.0,0.0,0.0,0.0,0.0,0.0,0.0,0.0,0.0,0.0,0.0,0.0,0.0,0.0,0.0,0.0,0.0,0.0,0.0,0.0,0.0,0.0,0.0,0.0,0.0,0.0,0.0,0.0,0.0,0.0,0.0,0.0,0.0,0.0,0.0,0.0,0.0,0.0,0.0,0.0,0.0,0.0,0.0,0.0,0.0,0.0,0.0,0.0,0.0,0.0,0.0,0.0,0.0,0.0,0.0,0.0,0.0,0.0,0.0,0.0,0.0,0.0,0.0,0.0,0.0,0.0,0.0,0.0,0.0,0.0,0.0,0.0,0.0,0.0,0.0,0.0,0.0,0.0,0.0,0.0,0.0,0.0,0.0,0.0,0.0,0.0,0.0,0.0,0.0,0.0,0.0,0.0,0.0,0.0,0.0,0.0,0.0,0.0,0.0,0.0,0.0,0.0,0.0,0.0,0.0,0.0,0.0,0.0,0.0,0.0,0.0,0.0,0.0,0.0,0.0,0.0,0.0,0.0,0.0,0.0,0.0,0.0,0.0,0.0,0.0,0.0,0.0,0.0,0.0,0.0,0.0,0.0,0.0,0.0,0.0,0.0,0.0,0.0,0.0,0.0,0.0,0.0,0.0,0.0,0.0,0.0,0.0,0.0,0.0,0.0,0.0,0.0,0.0,0.0,0.0,0.0,0.0,0.0,0.0,0.0,0.0,0.0,0.0,0.0,0.0,0.0,0.0,0.0,0.0,0.0,0.0,0.0,0.0,0.0,0.0,0.0,0.0,0.0,0.0,0.0,0.0,0.0,0.0,0.0,0.0,0.0,0.0,0.0,0.0,0.0,0.0,0.0,0.0,0.0,0.0,0.0,0.0,0.0,0.0,0.0,0.0,0.0,0.0,0.0,0.0,0.0,0.0,0.0,0.0,0.0,0.0,0.0,0.0,0.0,0.0,0.0,0.0,0.0,0.0,0.0,0.0,0.0,0.0,0.0,0.0,0.0,0.0,0.0,0.0,0.0,0.0,0.0,0.0,0.0,0.0,0.0,0.0,0.0,0.0,0.0,0.0,0.0,0.0,0.0,0.0,0.0,0.0,0.0,0.0,0.0,0.0,0.0,0.0,0.0,0.0,0.0,0.0,0.0,0.0,0.0,0.0,0.0,0.0,0.0,0.0,0.0,0.0,0.0,0.0,0.0,0.0,0.0,0.0,0.0,0.0,0.0,0.0,0.0,0.0,0.0,0.0,0.0,0.0,0.0,0.0,0.0,0.0,0.0,0.0,0.0,0.0,0.0,0.0,0.0,0.0,0.0,0.0,0.0,0.0,0.0,0.0,0.0,0.0,0.0,0.0,0.0,0.0,0.0,0.0,0.0,0.0,0.0,0.0,0.0,0.0,0.0,0.0,0.0,0.0,0.0,0.0,0.0,0.0,0.0,0.0,0.0,0.0,0.0,0.0,0.0,0.0,0.0,0.0,0.0,0.0,0.0,0.0,0.0,0.0,0.0,0.0,0.0,0.0,0.0,0.0,0.0,0.0,0.0,0.0,0.0,0.0,0.0,0.0,0.0,0.0,0.0,0.0,0.0,0.0,0.0,0.0,0.0,0.0,0.0,0.0,0.0,0.0,0.0,0.0,0.0,0.0,0.0,0.0,0.0,0.0,0.0,0.0,0.0,0.0,0.0,0.0,0.0,0.0,0.0,0.0,0.0,0.0,0.0,0.0,0.0,0.0,0.0,0.0,0.0,0.0,0.0,0.0,0.0,0.0,0.0,0.0,0.0,0.0,0.0,0.0,0.0,0.0,0.0,0.0,0.0,0.0,0.0,0.0,0.0,0.0,0.0,0.0,0.0,0.0,0.0,0.0,0.0,0.0,0.0,0.0,0.0,0.0,0.0,0.0,0.0,0.0,0.0,0.0,0.0,0.0,0.0,0.0,0.0,0.0,0.0,0.0,0.0,0.0,0.0,0.0,0.0,0.0,0.0,0.0,0.0,0.0,0.0,0.0,0.0,0.0,0.0,0.0,0.0,0.0,0.0,0.0,0.0,0.0,0.0,0.0,0.0,0.0,0.0,0.0,0.0,0.0,0.0,0.0,0.0,0.0,0.0,0.0,0.0,0.0,0.0,0.0,0.0,0.0,0.0,0.0,0.0,0.0,0.0,0.0,0.0,0.0,0.0,0.0,0.0,0.0,0.0,0.0,0.0,0.0,0.0,0.0,0.0,0.0,0.0,0.0,0.0,0.0,0.0,0.0,0.0,0.0,0.0,0.0,0.0,0.0,0.0,0.0,0.0,0.0,0.0,0.0,0.0,0.0,0.0,0.0,0.0,0.0,0.0,0.0,0.0,0.0,0.0,0.0,0.0,0.0,0.0,0.0,0.0,0.0,0.0,0.0,0.0,0.0,0.0,0.0,0.0,0.0,0.0,0.0,0.0,0.0,0.0,0.0,0.0,0.0,0.0,0.0,0.0,0.0,0.0,0.0,0.0,0.0,0.0,0.0,0.0,0.0,0.0,0.0,0.0,0.0,0.0,0.0,0.0,0.0,0.0,0.0,0.0,0.0,0.0,0.0,0.0,0.0,0.0,0.0,0.0,0.0,0.0,0.0,0.0,0.0,0.0,0.0,0.0,0.0,0.0,0.0,0.0,0.0,0.0,0.0,0.0,0.0,0.0,0.0,0.0,0.0,0.0,0.0,0.0,0.0,0.0,0.0,0.0,0.0,0.0,0.0,0.0,0.0,0.0,0.0,0.0,0.0,0.0,0.0,0.0,0.0,0.0,0.0,0.0,0.0,0.0,0.0,0.0,0.0,0.0,0.0,0.0,0.0,0.0,0.0,0.0,0.0,0.0,0.0,0.0,0.0,0.0,0.0,0.0,0.0,0.0,0.0,0.0,0.0,0.0,0.0,0.0,0.0,0.0,0.0,0.0,0.0,0.0,0.0,0.0,0.0,0.0,0.0,0.0,0.0,0.0,0.0,0.0,0.0,0.0,0.0,0.0,0.0,0.0,0.0,0.0,0.0,0.0,0.0,0.0,0.0,0.0,0.0,0.0,0.0,0.0,0.0,0.0,0.0,0.0,0.0,0.0,0.0,0.0,0.0,0.0,0.0,0.0,0.0,0.0,0.0,0.0,0.0,0.0,0.0,0.0,0.0,0.0,0.0,0.0,0.0,0.0,0.0,0.0,0.0,0.0,0.0,0.0,0.0,0.0,0.0,0.0,0.0,0.0,0.0,0.0,0.0,0.0,0.0,0.0,0.0,0.0,0.0,0.0,0.0,0.0,0.0,0.0,0.0,0.0,0.0,0.0,0.0,0.0,0.0,0.0,0.0,0.0,0.0,0.0,0.0,0.0,0.0,0.0,0.0,0.0,0.0,0.0,0.0,0.0,0.0,0.0,0.0,0.0,0.0,0.0,0.0,0.0,0.0,0.0,0.0,0.0,0.0,0.0,0.0,0.0,0.0,0.0,0.0,0.0,0.0,0.0,0.0,0.0,0.0,0.0,0.0,0.0,0.0,0.0,0.0,0.0,0.0,0.0,0.0,0.0,0.0,0.0,0.0,0.0,0.0,0.0,0.0,-2.9621,0.0,0.0,0.0,0.0,0.0,0.0,0.0,0.0,0.0,0.0,0.0,0.0,0.0,0.0,0.0,0.0,0.0,0.0,0.0,0.0,0.0,0.0,0.0,0.0,-3.3463,-3.3806,-3.4718,-3.4771,-3.4771,-3.4771,0.0,0.0,0.0,0.0,0.0,-3.5142,-3.4227,-3.399,-3.4519,-3.4152,-3.3646,-3.3018,-3.3467,-3.5273,-3.8047,0.0,0.0,0.0,0.0,0.0,0.0,0.0,0.0,0.0,0.0,0.0,0.0,0.0,0.0,0.0,0.0,0.0,0.0,0.0,0.0,0.0,0.0,0.0,0.0,0.0,0.0,0.0,0.0,0.0,0.0,0.0,0.0,0.0,0.0,0.0,0.0,0.0,0.0,0.0,0.0,0.0,0.0,0.0,0.0,0.0,0.0,0.0,0.0,0.0,0.0,0.0,0.0,0.0,0.0,0.0,0.0,0.0,0.0,0.0,0.0,0.0,0.0,0.0,0.0,0.0,0.0,0.0,0.0,0.0,0.0,0.0,-2.9863,0.0,0.0,0.0,0.0,0.0,0.0,0.0,0.0,0.0,0.0,0.0,0.0,0.0,0.0,0.0,0.0,0.0,0.0,0.0,0.0,0.0,-3.0868,-3.208,-3.2209,-3.2673,-3.3808,-3.3885,-3.3911,-3.3953,-3.3869,-3.3759,-3.3827,-3.3181,-3.3088,-3.3759,-3.2634,-3.2096,-3.2323,-3.1025,-3.0149,-2.9766,-2.9766,-3.1703,0.0,0.0,0.0,0.0,0.0,0.0,0.0,0.0,0.0,0.0,0.0,0.0,0.0,0.0,0.0,0.0,0.0,0.0,0.0,0.0,0.0,0.0,0.0,0.0,0.0,0.0,0.0,0.0,0.0,0.0,0.0,0.0,0.0,0.0,0.0,0.0,0.0,0.0,0.0,0.0,0.0,0.0,0.0,0.0,0.0,0.0,0.0,0.0,0.0,0.0,0.0,0.0,0.0,0.0,0.0,0.0,0.0,0.0,0.0,0.0,0.0,0.0,0.0,0.0,0.0,-3.2836,-3.2866,-3.2779,-3.2463,-3.2011,-3.1459,-3.0966,-3.0478,-3.0046,-3.0305,0.0,0.0,0.0,0.0,0.0,0.0,0.0,0.0,0.0,0.0,0.0,0.0,0.0,0.0,0.0,0.0,0.0,0.0,0.0,-2.8682,-3.0112,-3.0275,-3.0688,-3.1801,-3.1899,-3.1986,-3.2209,-3.1616,-3.1352,-3.1621,-3.1304,-3.1148,-3.1264,-3.097,-3.0828,-3.087,-3.0267,-2.9981,-2.9953,-2.991,-2.9934,-3.0202,0.0,0.0,0.0,0.0,0.0,0.0,0.0,0.0,0.0,0.0,0.0,0.0,0.0,0.0,0.0,0.0,0.0,0.0,0.0,0.0,0.0,0.0,0.0,0.0,0.0,0.0,0.0,0.0,0.0,0.0,0.0,0.0,0.0,0.0,0.0,0.0,0.0,0.0,0.0,0.0,0.0,0.0,0.0,0.0,-3.317,-3.3635,0.0,0.0,0.0,0.0,0.0,0.0,0.0,0.0,0.0,0.0,0.0,0.0,0.0,-3.3848,-3.3576,-3.3221,-3.2893,-3.2526,-3.2122,-3.1848,-3.1613,-3.158,-3.1519,-3.1401,-3.1317,0.0,-3.0836,-2.9453,0.0,0.0,0.0,0.0,0.0,0.0,0.0,0.0,0.0,0.0,0.0,0.0,0.0,0.0,0.0,0.0,0.0,0.0,0.0,0.0,0.0,-2.9011,-2.9385,-2.9851,-2.9874,-3.0055,-3.0461,-3.0214,-3.0214,-3.0598,-3.0553,-3.044,-3.044,-2.9885,-2.9206,-2.8406,-2.8385,-2.8385,-2.8429,-2.8385,-2.8693,-2.9306,-3.0772,-3.1696,-3.2176,-3.284,0.0,0.0,0.0,0.0,0.0,0.0,0.0,0.0,0.0,0.0,0.0,0.0,0.0,0.0,0.0,0.0,0.0,0.0,0.0,0.0,0.0,0.0,0.0,0.0,0.0,0.0,0.0,0.0,0.0,0.0,0.0,0.0,0.0,0.0,0.0,0.0,0.0,0.0,0.0,-3.1823,-3.2708,-3.2082,-3.3655,-3.4628,0.0,0.0,0.0,0.0,0.0,0.0,0.0,0.0,0.0,-3.289,-3.3339,-3.3271,-3.2503,-3.2625,-3.2582,-3.2324,-3.2179,-3.2066,-3.1826,-3.1826,-3.1826,-3.1826,-3.1447,-3.1319,-3.1268,-3.0571,-3.0518,-3.0839,0.0,0.0,0.0,0.0,-2.6848,-2.5768,0.0,0.0,0.0,0.0,0.0,0.0,0.0,0.0,0.0,0.0,0.0,0.0,-2.6556,-2.6735,-2.6857,-2.7013,-2.7008,-2.7317,-2.7932,-2.8014,-2.8315,-2.8965,-2.903,-2.8984,-2.8919,-2.8225,-2.7377,-2.6459,-2.6686,-2.6889,-2.7024,-2.707,-2.7673,-2.8679,-2.8903,-2.9024,-2.9124,-2.9714,-3.057,0.0,0.0,0.0,0.0,0.0,0.0,0.0,0.0,0.0,0.0,0.0,0.0,0.0,0.0,0.0,0.0,0.0,0.0,0.0,0.0,0.0,0.0,0.0,0.0,0.0,0.0,0.0,0.0,0.0,0.0,0.0,0.0,0.0,0.0,0.0,0.0,0.0,0.0,-3.0712,-3.2046,-3.095,-3.3128,-3.4463,0.0,0.0,0.0,0.0,0.0,0.0,-3.3064,-3.348,-3.3403,-3.2659,-3.3218,-3.3104,-3.219,-3.2544,-3.2597,-3.2289,-3.2287,-3.2095,-3.1716,-3.1716,-3.1716,-3.168,-3.1209,-3.1033,-3.1077,-3.0821,-3.05,-3.0265,-2.9877,-2.881,-2.749,-2.7481,-2.646,-2.5087,0.0,0.0,0.0,0.0,0.0,0.0,0.0,0.0,0.0,0.0,0.0,-2.2575,-2.3028,-2.2464,-2.225,-2.2681,-2.2715,-2.3121,-2.402,-2.4249,-2.4792,-2.5691,-2.5853,-2.5748,-2.5382,-2.5315,-2.5425,-2.577,-2.577,-2.6031,-2.6512,-2.6798,-2.6951,-2.7041,-2.7764,-2.8512,-2.9297,-2.9933,-3.015,-3.0257,0.0,0.0,0.0,0.0,0.0,0.0,0.0,0.0,0.0,0.0,0.0,0.0,0.0,0.0,0.0,0.0,0.0,0.0,0.0,0.0,0.0,0.0,0.0,0.0,0.0,0.0,0.0,0.0,0.0,0.0,0.0,0.0,0.0,0.0,0.0,0.0,0.0,0.0,0.0,-3.1382,-3.3346,0.0,0.0,0.0,0.0,-3.2823,-3.166,-3.1296,-3.2114,-3.2178,-3.2635,-3.3503,-3.3569,-3.3761,-3.4077,-3.3832,-3.333,-3.2471,-3.2163,-3.146,-3.0393,-3.0393,-3.0393,-3.0393,-3.0355,-3.0241,-2.9974,-2.871,-2.8875,-2.9757,-2.8099,-2.7691,-2.803,-2.7946,-2.7173,-2.6153,0.0,0.0,0.0,0.0,0.0,-2.2252,-2.1551,-2.1346,-2.1257,-2.1257,-2.143,-2.1543,-2.135,-2.1524,-2.1611,-2.1456,-2.1422,-2.1711,-2.241,-2.2698,-2.2959,-2.3214,-2.3438,-2.3154,-2.2231,-2.2799,-2.2947,-2.2681,-2.3273,-2.406,-2.4933,-2.5031,-2.5489,-2.6139,-2.6921,-2.7374,-2.7514,-2.7952,-2.8634,-2.9475,-3.0,-3.0831,0.0,0.0,0.0,0.0,0.0,0.0,0.0,0.0,0.0,0.0,0.0,0.0,0.0,0.0,0.0,0.0,0.0,0.0,0.0,0.0,0.0,0.0,0.0,0.0,0.0,0.0,0.0,0.0,0.0,0.0,0.0,0.0,0.0,0.0,0.0,0.0,0.0,-3.2516,-3.3809,0.0,-3.3545,-3.3193,-3.2793,-3.2371,-3.1955,-3.1538,-3.1162,-3.1477,-3.1822,-3.2044,-3.2076,-3.2143,-3.2145,-3.1909,-3.1726,-3.161,-3.1113,-3.0878,-3.0878,-3.0683,-3.0609,-3.0609,-3.0217,-2.9899,-2.9549,-2.8533,-2.8553,-2.9148,-2.8488,-2.7964,-2.7559,-2.7392,-2.6726,-2.5947,0.0,0.0,0.0,0.0,-2.1595,-2.0747,-2.007,-1.9844,-1.9708,-1.9708,-2.0013,-2.0136,-1.9894,-2.0116,-2.0195,-1.9968,-1.9916,-2.0118,-2.0461,-2.0925,-2.1179,-2.1226,-2.1523,-2.1342,-2.0573,-2.1129,-2.1263,-2.0947,-2.1577,-2.2366,-2.3267,-2.3367,-2.379,-2.456,-2.5682,-2.6164,-2.6139,-2.6987,-2.775,-2.8518,-2.8925,-2.9596,-3.041,0.0,0.0,0.0,0.0,0.0,0.0,0.0,0.0,0.0,0.0,0.0,0.0,0.0,0.0,0.0,0.0,0.0,0.0,0.0,0.0,0.0,0.0,0.0,0.0,0.0,0.0,0.0,0.0,0.0,0.0,0.0,0.0,0.0,0.0,0.0,-3.2869,-3.2206,-3.3277,-3.371,-3.2783,-3.2592,-3.2378,-3.1926,-3.195,-3.1679,-3.1088,-3.152,-3.1735,-3.1685,-3.1724,-3.1747,-3.1748,-3.1107,-3.0882,-3.1205,-3.0398,-3.017,-3.0447,-3.025,-3.013,-3.0041,-2.9463,-2.9051,-2.8755,-2.829,-2.8219,-2.8355,-2.8459,-2.8021,-2.7356,-2.7221,-2.6605,-2.584,0.0,0.0,0.0,-2.2347,-2.0702,-1.9405,-1.9405,-1.901,-1.8703,-1.8703,-1.8363,-1.8242,-1.8523,-1.7993,-1.7687,-1.7964,-1.7964,-1.8015,-1.8151,-1.8784,-1.9284,-1.9715,-1.9982,-2.0237,-2.0287,-2.0237,-2.0411,-2.0775,-2.0775,-2.1065,-2.1643,-2.1828,-2.1995,-2.2146,-2.3908,-2.489,-2.5303,-2.7125,-2.7676,-2.7404,-2.9073,-2.9601,-2.9487,0.0,0.0,0.0,0.0,0.0,0.0,0.0,0.0,0.0,0.0,0.0,0.0,0.0,0.0,0.0,0.0,0.0,0.0,0.0,0.0,0.0,0.0,0.0,0.0,0.0,0.0,0.0,0.0,0.0,0.0,0.0,0.0,0.0,-2.9169,-3.0559,-3.1199,-3.0468,-3.183,-3.2268,-3.0924,-3.1266,-3.1588,-3.154,-3.154,-3.1636,-3.1874,-3.2088,-3.2348,-3.2512,-3.2535,-3.2722,-3.3184,-3.1577,-3.0951,-3.1343,-3.0055,-2.9216,-2.897,-2.8903,-2.8832,-2.8594,-2.8156,-2.782,-2.7625,-2.783,-2.7719,-2.7534,-2.78,-2.7736,-2.751,-2.747,-2.6843,-2.5884,0.0,0.0,-2.164,-2.0908,-1.9222,-1.7684,-1.6936,-1.6702,-1.6622,-1.6622,-1.6926,-1.72,-1.7463,-1.717,-1.716,-1.7687,-1.6948,-1.6636,-1.7099,-1.7292,-1.7457,-1.7532,-1.7655,0.0,-1.771,-1.7936,-1.8203,-1.8513,-1.8513,-1.8968,-1.9886,-1.9922,-2.044,-2.1275,-2.2298,-2.283,-2.3107,-2.4707,-2.5888,-2.6772,-2.8226,-2.8417,-2.793,0.0,0.0,0.0,0.0,0.0,0.0,0.0,0.0,0.0,0.0,0.0,0.0,0.0,0.0,0.0,0.0,0.0,0.0,0.0,0.0,0.0,0.0,0.0,0.0,0.0,0.0,0.0,0.0,0.0,0.0,0.0,-2.7866,-2.8924,-2.9684,-3.0791,-3.1667,-3.2189,-3.275,-3.2967,-3.2664,-3.3174,-3.3115,-3.2155,-3.2279,-3.2075,-3.1378,-3.1084,-3.0889,-3.0789,-3.0789,-3.0712,-3.0484,-3.0207,-3.0211,-3.05,-2.9727,-2.9569,-3.003,-2.9628,-2.9368,-2.9173,-2.9038,-2.8743,-2.83,-2.8008,-2.7884,-2.7796,-2.7859,-2.7841,-2.776,-2.7435,-2.6365,-2.5076,0.0,-2.2629,-2.0881,-2.0279,-1.8257,-1.648,-1.5879,-1.5784,-1.5832,-1.5927,-1.6388,-1.685,-1.7213,-1.6652,-1.6558,-1.7343,-1.5909,-1.5323,-1.6151,-1.5754,-1.5206,-1.4536,-1.4809,-1.5025,-1.508,-1.602,-1.669,-1.7049,-1.7675,-1.8279,-1.8907,-1.8907,-1.928,-1.9917,-2.082,-2.1414,-2.1846,-2.3426,-2.4769,-2.6053,-2.6918,-2.7699,-2.8229,-2.847,-2.8019,-2.7256,-2.7299,-2.6941,-2.6453,-2.6448,0.0,0.0,0.0,0.0,0.0,0.0,0.0,0.0,0.0,0.0,0.0,0.0,0.0,0.0,0.0,0.0,0.0,0.0,0.0,0.0,0.0,0.0,0.0,0.0,-2.7769,-2.8594,-2.9434,-3.0444,-3.1313,-3.1997,-3.2141,-3.2219,-3.2211,-3.2441,-3.2359,-3.1856,-3.1684,-3.1348,-3.0977,-3.0716,-3.0493,-3.0372,-3.0525,-3.0427,-3.0149,-3.0006,-3.0106,-3.045,-2.9925,-2.9867,-3.0324,-2.9942,-2.962,0.0,-2.9002,-2.8699,-2.85,-2.7959,-2.7489,0.0,0.0,0.0,0.0,0.0,-2.5423,-2.4508,0.0,-2.2101,-2.0144,-2.0053,-1.7701,-1.5784,-1.5784,-1.5784,-1.5879,-1.6177,-1.6459,-1.681,-1.7258,-1.6139,-1.5737,-1.6677,-1.4572,-1.3724,-1.485,-1.414,-1.3028,-1.1559,-1.2256,-1.272,-1.2786,-1.4393,-1.5535,-1.6105,-1.7363,-1.8102,-1.8364,-1.8337,-1.838,-1.8546,-1.9497,-2.0328,-2.1125,-2.256,-2.386,-2.4987,-2.5361,-2.6923,-2.9076,-2.9139,-2.8621,-2.771,-2.681,-2.6192,-2.5757,-2.5505,0.0,0.0,0.0,0.0,0.0,0.0,0.0,0.0,0.0,0.0,0.0,0.0,0.0,0.0,0.0,0.0,0.0,0.0,0.0,0.0,0.0,0.0,0.0,0.0,-2.7954,-2.8164,-2.8945,-2.9838,-3.0444,-3.0625,-3.0695,-3.0642,-3.0545,-3.0363,-3.0512,-3.1091,-3.045,-3.0281,-3.0739,0.0,0.0,0.0,0.0,-3.1253,-3.1253,-3.0576,-3.0453,-3.0827,-3.0402,-3.021,-3.0189,-2.9771,-2.9466,-2.9141,-2.816,-2.7843,-2.8028,-2.7493,-2.6603,-2.5676,-2.6518,-2.6734,-2.6397,-2.488,-2.4252,-2.392,0.0,-2.164,-1.9963,-1.9206,-1.725,-1.5784,-1.5784,-1.5784,-1.5879,-1.6177,-1.6284,-1.6353,-1.6192,-1.4829,-1.3901,-1.3992,-1.2113,-1.1135,-1.1582,0.0,-1.2078,-1.1508,-1.2226,-1.2609,-1.2552,-1.2994,-1.3834,-1.504,-1.476,-1.5671,-1.761,-1.716,-1.752,-1.849,-1.8698,-1.9016,-1.9387,-2.0143,-2.1425,-2.301,-2.3515,-2.481,-2.6481,-2.7033,-2.6749,-2.604,-2.6468,-2.6249,-2.5683,-2.5509,-2.5464,-2.5404,-2.5357,0.0,0.0,0.0,0.0,0.0,0.0,0.0,0.0,0.0,0.0,0.0,0.0,0.0,0.0,0.0,0.0,0.0,0.0,0.0,0.0,-2.7746,-2.8691,-2.9375,-2.9883,-3.0133,-3.0111,-2.9833,-2.9919,-3.0037,-3.0098,-3.0504,-3.0866,-3.1066,-3.0726,-3.0676,-3.1182,-3.0751,-3.0743,-3.1328,-3.1412,-3.1412,-3.1412,-3.1357,-3.1235,-3.1137,0.0,0.0,-3.0627,-2.9096,-2.8208,-2.7723,-2.6576,-2.5996,-2.5895,-2.557,-2.4782,-2.385,-2.444,-2.4575,-2.4341,-2.4028,-2.3235,-2.2262,0.0,-2.1391,-2.0206,-1.8977,-1.7343,-1.6116,-1.5832,-1.5784,-1.5927,-1.6353,-1.6484,-1.637,-1.5918,-1.4588,-1.3506,-1.3042,-1.1582,-1.016,-0.9021,-0.9951,-1.0185,-0.9435,-0.9878,-1.0213,-1.0444,-1.1296,-1.2183,-1.3159,-1.3947,-1.4952,-1.6198,-1.6324,-1.6691,-1.7349,-1.8064,-1.8326,-1.8372,-1.9347,-2.0458,-2.1612,-2.2004,-2.2867,-2.4029,-2.5837,-2.6262,-2.5956,-2.6022,-2.5699,-2.5157,-2.4753,-2.4886,-2.5239,-2.4735,-2.5289,-2.5859,0.0,0.0,0.0,0.0,0.0,0.0,0.0,0.0,0.0,0.0,0.0,0.0,0.0,0.0,-2.6289,-2.6705,0.0,-2.769,-2.8843,-2.9553,-3.0039,-3.0488,-3.0547,-3.0371,-2.9941,-2.9967,-3.0072,-3.0183,-3.0549,-3.0918,-3.1252,-3.079,-3.0726,-3.1172,-3.0802,-3.0799,-3.1171,-3.115,-3.1133,-3.103,-3.1222,-3.1175,-3.1013,-3.0397,-2.9962,-2.9653,-2.7708,-2.6679,-2.6404,-2.5772,-2.5435,-2.5377,-2.4231,-2.3364,-2.2686,-2.221,-2.2497,-2.3221,-2.2808,-2.2208,-2.1545,0.0,-2.1543,-2.0539,-1.8948,-1.7544,-1.6447,-1.6021,-1.5879,-1.5974,-1.6447,-1.6525,-1.6338,-1.5791,-1.4447,-1.3155,-1.2114,-1.1112,-0.9662,0.0,-0.8366,-0.8429,-0.7539,-0.7758,-0.8112,-0.8466,-0.9972,-1.1035,-1.1712,-1.3405,-1.4492,-1.508,-1.5525,-1.5835,-1.6145,-1.7268,-1.7643,-1.7504,-1.8847,-1.9738,-2.0366,-2.0773,0.0,-2.2174,-2.4345,-2.5433,-2.5743,-2.5326,-2.4923,-2.4515,-2.3809,-2.428,-2.4969,-2.4056,-2.4898,-2.5877,-2.4302,-2.459,0.0,0.0,0.0,0.0,0.0,0.0,0.0,0.0,0.0,-2.5218,-2.606,-2.6481,-2.7085,-2.8349,-2.8435,-2.8804,-3.0099,-3.0332,-3.0469,-3.084,-3.082,-3.0528,-2.9832,-3.0023,-3.0229,-3.0322,-3.0452,-3.0747,-3.1337,-3.0485,-3.0274,-3.1047,-3.0534,-3.0274,-3.0439,-3.0394,-3.0172,-2.9863,-3.0031,-3.0072,-2.9911,-2.8899,-2.8284,-2.7902,-2.6022,-2.5066,-2.493,-2.4678,-2.4752,-2.487,-2.3257,-2.2322,-2.1795,-2.0598,-2.094,-2.2038,-2.1477,-2.128,-2.1138,0.0,-2.2517,-2.0872,-1.8581,-1.7279,-1.6588,-1.6541,-1.6116,-1.5927,-1.6224,-1.6048,-1.5729,-1.5239,-1.3582,-1.1629,-0.9442,-0.9039,0.0,-0.8635,-0.8223,-0.7973,-0.8094,-0.8597,-0.8809,-0.8739,-1.0105,-1.1233,-1.216,-1.1961,-1.304,-1.5162,-1.4663,-1.5027,-1.6083,-1.6269,-1.632,-1.6339,-1.7467,-1.8335,-1.8968,0.0,0.0,-2.1583,-2.1353,-2.2241,-2.3715,-2.4145,-2.4306,-2.4115,-2.3443,-2.3478,-2.3893,-2.3734,-2.4082,-2.4293,-2.3462,0.0,-2.2941,-2.1684,-2.1746,-2.2452,-2.3578,-2.3919,-2.4382,0.0,0.0,-2.7072,-2.753,-2.8423,-2.9264,-2.9582,-2.983,-3.0156,-3.0723,-3.082,-3.084,-3.0879,-3.0527,-2.9699,-2.8237,-2.9317,-3.0233,-3.025,-3.0233,-3.0428,-3.0955,-2.9274,-2.9106,-3.101,-2.9201,-2.8502,-2.9286,-2.8956,-2.8229,-2.7161,-2.6992,-2.6896,-2.6913,-2.643,-2.6104,-2.5768,-2.4207,-2.3252,-2.2906,-2.2259,-2.2361,-2.2889,-2.2667,-2.1923,-2.0893,-2.0954,-2.0563,-1.9973,-2.0286,-2.0449,-2.0404,0.0,0.0,-2.2164,-1.9803,-1.8303,-1.7293,-1.6683,-1.64,-1.6258,-1.6224,-1.613,-1.5832,-1.5343,-1.392,-1.227,-1.0534,-0.9962,0.0,-0.8974,-0.8418,-0.8327,-0.877,-0.9008,-0.9178,-0.926,-0.9986,-1.0618,-1.1198,-1.1379,-1.2104,-1.3335,-1.3462,-1.3771,-1.4351,-1.5037,-1.5385,-1.5463,-1.6658,-1.7358,-1.7828,0.0,0.0,-2.0329,-2.0955,-2.164,-2.2347,-2.2491,-2.2785,0.0,0.0,-2.2825,-2.3182,-2.3561,-2.3679,-2.3569,-2.3106,-2.2874,0.0,-2.2395,-2.2472,0.0,0.0,-2.4366,-2.5023,-2.5677,-2.6336,-2.6994,-2.7721,-2.8401,-2.8934,-2.9289,-2.9715,-3.0064,0.0,-3.0645,-3.0587,-2.9589,-2.9291,-2.8549,-2.6918,-2.7369,-2.7646,-2.7428,-2.7609,-2.7809,-2.8049,-2.7325,-2.7218,-2.8081,-2.7097,-2.6703,-2.7086,-2.6715,-2.6236,-2.5635,-2.5712,-2.5791,-2.5937,-2.4881,-2.4227,-2.3891,-2.2189,-2.133,-2.1132,-2.102,-2.1188,-2.1591,-2.118,-2.072,-2.0216,-2.0048,-1.9734,-1.9425,-1.9882,-2.0155,-2.0292,0.0,0.0,0.0,-2.1454,-1.9786,-1.8303,-1.72,-1.6918,-1.6683,-1.6353,-1.6305,-1.6069,-1.5391,-1.4316,-1.3102,-1.195,-1.1055,0.0,0.0,-0.9057,-0.8934,-0.9331,-0.957,-0.9693,-0.975,-1.0355,-1.0778,-1.0904,-1.161,-1.1971,-1.2163,-1.2778,-1.3003,-1.3012,-1.4033,-1.4487,-1.4563,-1.5638,-1.6315,-1.678,0.0,0.0,-1.8918,-1.9921,-2.0498,-2.097,-2.135,-2.1691,0.0,0.0,-2.208,-2.2399,-2.2927,-2.308,-2.2921,-2.2611,-2.2313,-2.2165,-2.2519,0.0,0.0,-2.3699,-2.4706,-2.5587,-2.5561,-2.6229,-2.7076,-2.7768,-2.8242,-2.8568,-2.892,-2.9076,-2.9116,-2.9116,-2.9176,-2.8842,-2.7614,-2.7445,-2.6939,-2.5489,-2.5159,-2.4903,-2.454,-2.5432,-2.599,-2.599,-2.5541,-2.5425,-2.5857,-2.5076,-2.4664,-2.463,-2.4391,-2.3991,-2.3505,-2.3766,-2.4022,-2.4226,-2.2947,-2.229,-2.2183,-2.088,-2.031,-2.0327,-2.0457,-2.0554,-2.0734,-2.016,-1.9858,-1.9764,-1.9399,-1.919,-1.9186,-1.9665,-1.9966,-2.0201,0.0,0.0,0.0,0.0,-2.1614,-1.9758,-1.8272,-1.7606,-1.7091,-1.6636,-1.6588,-1.6197,-1.5201,-1.4388,-1.3559,-1.2727,-1.1531,-1.0766,-1.0766,-1.0146,-0.974,-0.9799,-1.0358,-1.0531,-1.0162,-1.1635,-1.2275,-1.193,-1.2656,-1.2776,-1.2485,-1.3037,-1.3124,-1.2817,-1.3195,-1.3367,-1.3403,-1.4142,-1.5023,-1.5907,0.0,0.0,-1.7615,-1.7077,-1.7805,-1.9413,-2.1113,0.0,0.0,0.0,-2.1226,-2.1379,-2.1594,-2.1946,0.0,-2.1761,-2.1139,0.0,0.0,0.0,-2.2877,-2.3939,-2.5069,-2.5994,-2.6354,-2.725,-2.7966,-2.7984,-2.854,-2.8975,-2.8975,-2.7984,-2.7091,-2.7091,-2.6029,-2.516,-2.5098,-2.5098,-2.4743,-2.3778,-2.3081,-2.2602,0.0,-2.4551,-2.599,-2.599,-2.4326,-2.3989,-2.5534,-2.347,-2.2238,-2.2296,-2.2253,-2.1496,-1.9949,-2.0301,-2.0567,-2.0832,-2.0185,-2.0214,-2.0732,-2.0587,-2.0658,-2.0944,-2.055,-2.0413,-2.04,-2.0119,-1.9816,-1.9535,-1.9503,-1.9236,-1.8988,-1.9525,-1.9767,-1.9928,0.0,0.0,0.0,0.0,0.0,-2.1943,-2.0692,-1.898,-1.7652,-1.7138,-1.6965,0.0,0.0,0.0,0.0,0.0,-1.2689,-1.1814,-1.0609,-0.9979,-0.982,-1.0146,-1.0437,-1.0613,-1.0523,-1.1501,-1.1962,-1.1972,-1.2337,-1.2464,-1.2521,-1.2899,-1.3057,-1.2942,-1.318,-1.3403,-1.3597,-1.3723,-1.3897,-1.4166,-1.5237,0.0,-1.5779,-1.6337,-1.6863,-1.7357,0.0,0.0,0.0,0.0,-2.0371,-2.0551,-2.0913,-2.1177,0.0,-2.0987,-2.0442,-2.0148,-2.0748,0.0,-2.1907,-2.3344,-2.4529,-2.5551,-2.633,-2.6285,-2.6045,-2.5874,-2.4995,-2.4285,-2.4285,-2.4269,-2.4274,-2.4439,-2.4751,-2.4608,-2.3514,-2.3381,-2.2865,-2.1457,-2.1058,0.0,0.0,0.0,0.0,-2.2785,-2.1859,-2.1494,-2.2045,-2.1119,-2.0586,-2.0628,-2.06,-2.023,-1.954,-1.9668,-1.9847,-2.0108,-1.969,-1.9549,-1.9751,-1.9696,-1.952,-1.928,-1.9539,-1.9442,-1.9078,-1.894,-1.891,-1.895,-1.8939,-1.8984,-1.9072,-1.9217,-1.9272,-1.9317,0.0,0.0,0.0,0.0,0.0,0.0,0.0,0.0,0.0,0.0,0.0,0.0,0.0,0.0,0.0,0.0,0.0,-1.2165,0.0,0.0,-0.9979,-1.0196,-1.0382,-1.0489,-1.0564,-1.0982,-1.1287,-1.1404,-1.181,-1.1997,-1.1953,-1.261,-1.2824,-1.2715,-1.303,-1.322,-1.3411,-1.3181,-1.3162,-1.3314,-1.4195,-1.4479,-1.4502,-1.5141,-1.5648,0.0,0.0,0.0,0.0,0.0,-1.8675,-1.88,-1.9225,-1.9479,-1.967,-1.967,-1.9455,-1.9386,-2.0223,-2.0724,-2.1275,-2.254,-2.3621,-2.4547,-2.5048,-2.4661,-2.4239,-2.4146,-2.293,-2.1949,-2.2024,-2.1862,-2.1788,-2.1891,-2.2109,-2.2,-2.1156,-2.0849,-2.0611,-2.0151,-1.9791,-1.9681,0.0,0.0,0.0,-2.0492,-2.0382,-2.027,-2.0155,-1.9822,-1.9649,-1.9649,-1.9649,-1.9503,-1.9207,-1.9237,-1.9303,-1.9456,-1.9593,-1.9549,-1.9502,-1.9564,-1.9314,-1.8723,-1.9028,-1.8811,-1.8188,-1.8151,-1.8323,-1.8548,-1.8661,-1.8781,-1.9029,-1.9178,-1.8777,-1.8228,0.0,0.0,0.0,0.0,0.0,0.0,0.0,0.0,0.0,0.0,0.0,0.0,0.0,0.0,0.0,0.0,0.0,0.0,0.0,0.0,0.0,-1.0167,-1.0305,-1.0357,-1.0357,-1.046,-1.049,-1.049,-1.1259,-1.1449,-1.1125,-1.2246,-1.2571,-1.2175,-1.2718,-1.2984,-1.2925,-1.2633,-1.2808,-1.3296,-1.3172,-1.3322,-1.3652,-1.3667,0.0,0.0,0.0,0.0,0.0,0.0,0.0,-1.6353,-1.6791,-1.7167,-1.7472,-1.7969,-1.8108,-1.8333,-1.9531,-2.0354,-2.096,-2.1467,-2.2284,-2.2926,-2.2713,-2.2654,-2.2667,-2.2868,-2.2228,-2.173,0.0,0.0,-1.9698,-1.9444,-1.8398,-1.7743,-1.83,-1.7875,-1.8227,0.0,0.0,0.0,0.0,0.0,0.0,-1.9198,0.0,-2.0111,-1.9751,-1.9533,-1.9372,-1.9372,-1.9372,-1.925,-1.8864,-1.8878,-1.8862,-1.8883,-1.974,-2.0033,-1.9793,-2.0047,-1.9842,-1.9228,-1.8968,-1.8448,-1.779,-1.7865,-1.8044,-1.8335,-1.8657,-1.8789,-1.884,-1.9244,-1.8201,-1.6801,0.0,0.0,0.0,0.0,0.0,0.0,0.0,0.0,0.0,0.0,0.0,0.0,0.0,0.0,0.0,0.0,0.0,0.0,0.0,0.0,0.0,0.0,0.0,0.0,0.0,0.0,0.0,0.0,0.0,-1.2192,-1.2302,-1.2795,-1.3088,-1.3147,-1.3537,-1.3733,-1.3733,-1.3623,-1.3568,-1.3427,0.0,-1.3476,-1.3329,0.0,0.0,0.0,0.0,0.0,0.0,0.0,0.0,0.0,0.0,-1.8028,-1.8296,-1.8361,-1.8142,-1.7877,-1.802,-1.8354,-1.8906,-1.9699,-2.0739,-2.1749,-2.2178,-2.169,-2.108,-2.0534,-1.9296,-1.8276,0.0,0.0,0.0,-1.828,-1.852,0.0,-1.8867,-1.8755,0.0,-1.9304,0.0,-1.8896,-1.8691,-1.8963,0.0,0.0,-1.8972,-1.9292,-1.8777,-1.9185,-1.9301,-1.9055,-1.9243,-1.9135,-1.8601,-1.8374,-1.8326,-1.8541,-1.9027,-1.9281,-1.9456,-1.9491,-1.9169,-1.8555,-1.8505,-1.8079,-1.75,-1.7538,-1.7709,-1.8052,-1.8369,-1.8637,-1.8738,-1.8113,-1.7305,-1.6441,0.0,0.0,0.0,0.0,0.0,0.0,0.0,0.0,0.0,0.0,0.0,0.0,0.0,0.0,0.0,0.0,0.0,0.0,0.0,0.0,0.0,0.0,0.0,0.0,0.0,0.0,0.0,0.0,0.0,0.0,0.0,-1.2556,-1.2815,-1.2969,-1.3336,-1.3485,-1.3485,0.0,0.0,0.0,0.0,0.0,0.0,0.0,0.0,0.0,0.0,0.0,0.0,0.0,0.0,-1.681,-1.6935,-1.7272,-1.7603,-1.7578,0.0,-1.7154,-1.7121,-1.7315,-1.7691,-1.8357,-1.9082,-1.9801,-2.0187,-1.9726,-1.9155,-1.8725,-1.7753,0.0,-1.673,0.0,0.0,0.0,0.0,0.0,-1.8698,-1.8467,-1.8392,0.0,-1.8698,0.0,-1.8054,-1.8521,-1.8471,0.0,-1.8572,-1.8887,-1.8428,-1.859,-1.8648,-1.846,-1.8532,-1.8276,-1.77,-1.75,-1.7477,-1.7687,-1.8003,-1.8265,-1.8541,-1.8803,-1.8548,-1.7959,0.0,-1.7945,-1.738,-1.7524,-1.7683,-1.7836,-1.7739,-1.7815,-1.7801,-1.6775,-1.5707,-1.4668,0.0,0.0,0.0,0.0,0.0,0.0,0.0,0.0,0.0,0.0,-2.1096,0.0,0.0,0.0,0.0,0.0,0.0,0.0,0.0,0.0,0.0,0.0,0.0,0.0,0.0,0.0,0.0,0.0,0.0,0.0,0.0,0.0,0.0,0.0,0.0,0.0,0.0,0.0,0.0,0.0,0.0,0.0,0.0,0.0,0.0,0.0,0.0,0.0,0.0,0.0,-1.5587,-1.6081,-1.5789,-1.6119,-1.6542,-1.6423,-1.6338,-1.6338,-1.6525,-1.6815,-1.7105,-1.737,-1.766,-1.7865,-1.7829,-1.7648,-1.7455,-1.7346,0.0,-1.6682,-1.6658,-1.6887,-1.6975,-1.6839,0.0,-1.7446,-1.8275,-1.7745,-1.7637,-1.8601,-1.8239,-1.801,-1.8215,-1.8239,-1.8118,-1.7841,-1.8366,-1.859,-1.824,-1.7994,-1.7877,-1.7877,-1.7523,-1.7153,-1.667,-1.6638,-1.663,-1.667,-1.6988,-1.7252,-1.7582,-1.8014,-1.7918,-1.7455,-1.7875,0.0,-1.7236,-1.7524,-1.7563,-1.7403,-1.6815,-1.651,-1.6271,-1.5155,-1.3701,-1.2322,0.0,0.0,0.0,0.0,0.0,0.0,0.0,0.0,0.0,0.0,-2.2689,-2.1708,0.0,0.0,0.0,0.0,0.0,0.0,0.0,0.0,0.0,0.0,0.0,0.0,0.0,0.0,0.0,0.0,0.0,0.0,0.0,0.0,0.0,0.0,0.0,0.0,0.0,0.0,0.0,0.0,0.0,0.0,0.0,0.0,0.0,0.0,0.0,0.0,0.0,0.0,-1.5974,-1.6696,-1.6837,-1.7136,-1.7373,-1.7091,-1.6691,-1.6238,-1.6072,-1.6392,-1.6827,-1.7092,-1.7515,-1.7817,-1.7599,-1.7515,0.0,0.0,-1.6598,-1.6634,-1.6392,-1.6586,-1.691,-1.7322,0.0,0.0,0.0,0.0,-1.8226,0.0,0.0,0.0,0.0,0.0,0.0,0.0,0.0,-1.7596,-1.7256,-1.7642,-1.7818,-1.7596,-1.7101,-1.6767,-1.6726,-1.6259,-1.6152,-1.6352,-1.667,-1.6935,-1.7252,-1.7328,-1.7257,-1.715,-1.6958,0.0,-1.6738,-1.6792,-1.6424,-1.5771,-1.5507,-1.502,-1.433,-1.2775,-1.1915,-1.1414,0.0,0.0,0.0,0.0,0.0,0.0,0.0,-2.5877,-2.5571,-2.5899,-2.4669,-2.3656,-2.3331,-2.2133,-2.1464,0.0,0.0,0.0,0.0,0.0,0.0,0.0,0.0,0.0,0.0,0.0,0.0,0.0,0.0,0.0,0.0,0.0,0.0,0.0,0.0,0.0,0.0,0.0,0.0,0.0,0.0,0.0,0.0,0.0,0.0,0.0,0.0,0.0,0.0,0.0,-1.5768,-1.6662,-1.703,-1.7478,-1.7679,-1.7135,-1.6735,-1.6448,-1.6193,-1.6284,-1.661,-1.7165,-1.7382,-1.743,-1.731,0.0,0.0,0.0,-1.6296,-1.6404,-1.6127,-1.6414,0.0,-1.7056,0.0,0.0,0.0,0.0,0.0,0.0,0.0,0.0,0.0,0.0,0.0,0.0,0.0,-1.7373,-1.702,-1.6961,-1.6891,-1.6762,-1.6262,-1.5951,-1.5823,-1.5441,-1.5298,-1.5393,-1.5672,-1.5992,-1.6311,-1.6701,-1.6821,-1.6665,-1.679,0.0,-1.6537,-1.5868,-1.5369,-1.49,-1.3606,-1.2837,-1.2397,-1.1024,-1.0413,-1.0206,0.0,0.0,0.0,0.0,0.0,0.0,0.0,-2.6932,-2.6667,-2.7073,-2.6365,-2.5395,-2.4323,-2.3318,-2.2776,0.0,0.0,0.0,0.0,0.0,0.0,0.0,0.0,0.0,0.0,0.0,0.0,0.0,0.0,0.0,0.0,0.0,0.0,0.0,0.0,0.0,0.0,0.0,0.0,0.0,0.0,0.0,0.0,0.0,0.0,0.0,0.0,0.0,0.0,0.0,-1.5223,-1.6127,-1.6542,-1.7183,-1.77,-1.6923,-1.6714,-1.6658,-1.6429,-1.6368,-1.6537,-1.7225,-1.7201,-1.7008,-1.7008,-1.6803,0.0,0.0,-1.6054,-1.6139,-1.5934,0.0,-1.6494,0.0,-1.6903,0.0,0.0,0.0,0.0,0.0,0.0,0.0,0.0,0.0,0.0,0.0,0.0,0.0,-1.6903,-1.6385,-1.6085,-1.5999,-1.5535,-1.5177,-1.4988,-1.4679,-1.4504,-1.4504,-1.4826,-1.5148,-1.5428,-1.6152,-1.6398,-1.6197,-1.6406,0.0,0.0,-1.4669,-1.4056,-1.3644,-1.1688,-1.0815,-1.0583,-0.9616,-0.9143,-0.9042,0.0,0.0,0.0,0.0,0.0,0.0,0.0,-2.8038,-2.7767,-2.7652,-2.7183,-2.654,-2.5712,-2.4385,-2.3781,0.0,0.0,0.0,0.0,0.0,0.0,0.0,0.0,0.0,0.0,0.0,0.0,0.0,0.0,0.0,0.0,0.0,0.0,0.0,0.0,0.0,0.0,0.0,0.0,0.0,0.0,0.0,0.0,0.0,0.0,0.0,0.0,0.0,0.0,0.0,0.0,-1.491,-1.5198,-1.6191,-1.721,-1.6912,0.0,0.0,-1.667,-1.6658,-1.6742,-1.7044,-1.6936,-1.6742,-1.6742,0.0,0.0,-1.5946,-1.591,-1.5922,-1.5897,-1.5731,0.0,0.0,0.0,-1.639,0.0,0.0,0.0,0.0,0.0,0.0,0.0,0.0,0.0,0.0,0.0,0.0,-1.6537,-1.6262,-1.6021,-1.5756,-1.5255,-1.5011,-1.4988,-1.4473,-1.4245,-1.4245,-1.4773,-1.5041,-1.5095,-1.5672,-1.598,-1.5902,-1.4888,0.0,0.0,-1.289,-1.1925,-1.1089,-1.0356,-0.9646,-0.8973,-0.8386,-0.8131,-0.8166,0.0,0.0,0.0,0.0,0.0,0.0,-3.0199,-2.9829,-2.9606,-2.9942,-2.885,-2.7892,-2.7584,-2.6333,-2.5261,-2.4703,0.0,0.0,0.0,0.0,0.0,0.0,0.0,0.0,0.0,0.0,0.0,0.0,0.0,0.0,0.0,0.0,0.0,0.0,0.0,0.0,0.0,0.0,0.0,0.0,0.0,0.0,0.0,0.0,0.0,0.0,0.0,0.0,0.0,0.0,0.0,0.0,-1.4015,-1.4844,0.0,0.0,-1.6235,-1.6489,-1.6658,-1.6815,-1.6996,-1.7261,-1.7008,-1.6706,-1.6706,0.0,-1.6018,-1.591,-1.5885,-1.5885,-1.5885,-1.5791,-1.5827,0.0,0.0,0.0,-1.6972,0.0,0.0,0.0,0.0,0.0,0.0,0.0,0.0,0.0,0.0,0.0,-1.6611,-1.6275,-1.6092,-1.6063,-1.5521,-1.5185,-1.4973,-1.4613,-1.4342,-1.4191,-1.4557,-1.4826,-1.4987,-1.547,-1.5323,-1.4684,-1.4208,0.0,0.0,-1.1423,-1.0664,-1.0222,-0.921,-0.8585,-0.8287,-0.8088,-0.7988,-0.8038,0.0,0.0,0.0,0.0,0.0,-3.1246,-3.1696,-3.1351,-3.119,-3.1602,-3.0116,-2.8918,-2.8697,-2.757,-2.6476,-2.5584,-2.4547,0.0,0.0,0.0,0.0,0.0,0.0,0.0,0.0,0.0,0.0,-2.2511,-2.2246,0.0,0.0,0.0,0.0,0.0,0.0,0.0,0.0,0.0,0.0,0.0,0.0,0.0,0.0,0.0,0.0,0.0,0.0,0.0,0.0,0.0,0.0,0.0,0.0,0.0,0.0,0.0,-1.5791,-1.6453,-1.6646,-1.6948,-1.7249,-1.7443,-1.7032,-1.6598,0.0,0.0,-1.5801,-1.5873,-1.5885,-1.5885,-1.5885,-1.5885,-1.5885,0.0,0.0,-1.6573,-1.6585,0.0,0.0,0.0,0.0,0.0,0.0,0.0,0.0,0.0,0.0,0.0,-1.6748,-1.6506,-1.6341,-1.6155,-1.5678,-1.5332,-1.5148,-1.4773,-1.4557,-1.4461,-1.4611,-1.488,-1.5148,-1.547,-1.5045,-1.3953,-1.3562,0.0,0.0,-1.0051,-0.9439,-0.9334,-0.8378,-0.7988,-0.7988,-0.7988,-0.7988,-0.7988,0.0,0.0,0.0,0.0,0.0,0.0,-3.2398,-3.2398,-3.2319,-3.2128,-3.0761,-2.9486,-2.8692,-2.7764,-2.7163,-2.7188,-2.6378,0.0,0.0,0.0,0.0,0.0,0.0,0.0,0.0,0.0,-2.4488,-2.4445,-2.3541,-2.3584,-2.4402,0.0,0.0,0.0,0.0,0.0,0.0,0.0,0.0,0.0,0.0,0.0,0.0,0.0,0.0,0.0,0.0,0.0,0.0,0.0,0.0,0.0,0.0,0.0,0.0,0.0,-1.5648,-1.6694,-1.6706,-1.708,-1.7479,-1.7479,-1.6875,-1.6356,0.0,0.0,-1.5572,-1.5837,-1.5885,-1.5885,-1.5885,-1.5885,-1.5885,-1.5885,0.0,0.0,-1.6308,-1.6537,0.0,0.0,0.0,-1.6803,0.0,0.0,0.0,0.0,0.0,0.0,-1.7105,-1.7092,-1.6681,-1.5814,-1.5611,-1.5482,-1.5482,-1.488,-1.4708,-1.4987,-1.4987,-1.5148,-1.5482,-1.5791,-1.5298,0.0,0.0,0.0,0.0,-0.8837,-0.818,-0.8045,-0.7988,-0.7988,-0.7988,-0.7988,-0.7988,-0.7988,0.0,0.0,0.0,0.0,0.0,0.0,0.0,-3.2398,-3.2386,-3.2312,-3.112,-3.0345,-3.0555,-2.9504,-2.9111,-2.9944,-2.846,0.0,0.0,0.0,0.0,0.0,0.0,0.0,0.0,0.0,-2.5253,-2.4488,-2.4188,-2.4188,-2.4488,-2.3887,-2.341,0.0,0.0,0.0,0.0,0.0,0.0,0.0,0.0,0.0,0.0,0.0,0.0,0.0,0.0,0.0,0.0,0.0,0.0,0.0,0.0,0.0,0.0,-1.4156,-1.4698,-1.5656,-1.5825,-1.626,-1.6658,-1.6658,-1.6199,-1.5861,-1.6308,0.0,-1.5354,-1.5801,-1.5885,-1.5946,-1.6139,-1.6012,-1.5891,-1.6163,-1.6215,0.0,0.0,0.0,0.0,-1.6065,-1.6273,-1.6527,0.0,0.0,0.0,0.0,0.0,0.0,-1.6839,-1.6646,-1.6409,-1.6132,-1.6102,-1.5862,-1.5482,-1.5321,-1.5148,-1.4987,-1.4987,-1.5202,-1.5482,-1.4708,-1.3794,0.0,0.0,0.0,0.0,-0.8325,-0.8035,-0.7988,-0.7988,-0.7988,-0.7988,-0.7988,-0.7988,-0.7988,0.0,0.0,0.0,0.0,0.0,0.0,0.0,-3.2873,-3.2679,-3.2426,-3.1527,-3.105,-3.1443,-3.0743,-3.0758,-3.1943,-3.1083,0.0,0.0,0.0,0.0,0.0,0.0,0.0,0.0,-2.694,-2.6617,-2.5913,-2.5465,-2.5465,-2.5786,-2.4913,-2.436,-2.4125,-2.378,0.0,0.0,0.0,0.0,0.0,0.0,0.0,-2.0428,0.0,0.0,0.0,0.0,0.0,0.0,0.0,0.0,0.0,0.0,0.0,0.0,0.0,-1.4421,-1.4733,0.0,-1.5801,-1.6284,-1.6284,-1.5958,-1.5753,0.0,0.0,-1.5327,-1.5535,-1.5725,-1.5839,-1.5573,-1.5487,-1.5542,-1.5759,-1.5777,0.0,0.0,0.0,0.0,-1.5445,0.0,0.0,0.0,0.0,0.0,0.0,0.0,0.0,-1.6706,-1.6303,-1.605,-1.5955,-1.6078,-1.6,-1.5642,-1.5535,-1.5428,-1.5363,-1.5256,-1.5363,-1.563,-1.4439,-1.3321,0.0,0.0,0.0,0.0,-0.8316,-0.8277,-0.827,-0.8158,-0.8137,-0.8137,-0.8038,-0.7988,-0.7988,0.0,0.0,0.0,0.0,0.0,0.0,0.0,-3.3602,-3.3023,-3.2426,-3.1752,-3.1415,-3.1527,-3.1527,-3.2033,-3.3326,0.0,0.0,0.0,0.0,0.0,0.0,0.0,0.0,0.0,-2.8219,-2.8336,-2.8379,-2.7186,-2.7084,-2.7962,-2.5721,-2.5084,-2.5777,-2.4956,-2.4573,0.0,0.0,0.0,0.0,-2.0907,-2.0682,0.0,0.0,0.0,0.0,0.0,0.0,0.0,0.0,0.0,0.0,0.0,0.0,0.0,0.0,0.0,0.0,0.0,-1.5632,-1.6145,-1.6145,-1.5976,-1.5827,-1.6078,0.0,0.0,-1.4984,-1.5416,-1.547,-1.4407,-1.4633,-1.4956,-1.4956,-1.4922,-1.4963,0.0,-1.5139,0.0,0.0,-1.4802,0.0,0.0,0.0,0.0,0.0,0.0,0.0,-1.6558,-1.6018,-1.5568,-1.5329,-1.5641,-1.5779,-1.5832,-1.563,-1.563,-1.5885,-1.5642,-1.563,-1.5725,-1.46,-1.3403,0.0,0.0,0.0,0.0,-0.8695,-0.867,-0.8693,-0.8492,-0.8379,-0.8386,-0.8088,-0.7988,-0.7988,0.0,0.0,0.0,0.0,0.0,0.0,0.0,0.0,0.0,0.0,-3.074,-3.06,-3.2033,-3.178,-3.237,0.0,0.0,0.0,0.0,0.0,0.0,0.0,0.0,0.0,0.0,-2.9549,-2.9273,-2.9135,-2.8106,-2.7685,-2.7906,-2.6989,-2.6279,-2.5777,-2.5568,-2.5126,-2.4445,0.0,0.0,0.0,-2.1758,-2.1087,0.0,0.0,0.0,0.0,-1.9671,-1.9583,0.0,0.0,0.0,0.0,0.0,0.0,0.0,0.0,-1.5108,-1.499,-1.4863,0.0,-1.4694,-1.4694,-1.4485,-1.4336,0.0,0.0,0.0,0.0,0.0,-1.4602,-1.4516,-1.4384,-1.4394,-1.4658,-1.4574,-1.4569,-1.4679,0.0,0.0,-1.3682,-1.3984,0.0,0.0,0.0,0.0,0.0,0.0,-1.5099,-1.5099,-1.4757,-1.4527,-1.4472,-1.458,-1.4815,-1.5202,-1.563,-1.5844,-1.5885,-1.5844,-1.5351,-1.4546,-1.3349,-1.22,0.0,0.0,0.0,-0.885,-0.8446,-0.8498,-0.8728,-0.8492,-0.8379,-0.8386,-0.8088,-0.7988,-0.7988,0.0,0.0,0.0,0.0,0.0,0.0,0.0,0.0,0.0,0.0,0.0,-3.0853,-3.1864,-3.1949,0.0,0.0,0.0,0.0,0.0,0.0,0.0,0.0,0.0,-3.1702,-3.1287,-3.074,-3.0441,-3.0471,-2.9114,-2.8362,-2.821,-2.7755,-2.7126,-2.6445,-2.6445,-2.5924,-2.5084,-2.4956,-2.4274,-2.3193,-2.2359,0.0,0.0,0.0,0.0,0.0,-1.9716,-1.9579,0.0,-1.9671,-1.9517,-1.9088,0.0,0.0,0.0,0.0,-1.5625,-1.5194,-1.4936,-1.474,-1.4565,-1.4424,-1.438,-1.4338,-1.4191,0.0,0.0,0.0,0.0,-1.4094,-1.3676,-1.3733,-1.3916,-1.4127,-1.4025,0.0,0.0,0.0,-1.3331,-1.3249,-1.3259,0.0,0.0,0.0,0.0,0.0,0.0,-1.4407,-1.4407,-1.4017,-1.3792,-1.3792,-1.3792,-1.4169,-1.4987,-1.5083,-1.5244,-1.5458,-1.4685,-1.3976,-1.3339,-1.1692,-1.0655,0.0,0.0,0.0,-0.8467,-0.8269,-0.8314,-0.8484,-0.8238,-0.8133,-0.8076,-0.7759,-0.769,-0.7796,0.0,0.0,0.0,0.0,0.0,0.0,0.0,0.0,0.0,0.0,0.0,0.0,0.0,0.0,0.0,0.0,0.0,0.0,0.0,0.0,0.0,0.0,0.0,-3.2833,-3.2321,-3.1691,-3.1461,-3.1701,-2.998,-2.8956,-2.8692,-2.8169,-2.7667,-2.719,-2.719,-2.6757,-2.6049,-2.6133,-2.5253,-2.3671,-2.2755,0.0,0.0,0.0,0.0,0.0,0.0,0.0,0.0,-1.9579,-1.9396,-1.9104,-1.892,0.0,0.0,0.0,0.0,0.0,-1.5207,-1.505,-1.4855,-1.4555,-1.4529,-1.4493,-1.4008,0.0,0.0,0.0,0.0,0.0,0.0,-1.2963,0.0,0.0,0.0,0.0,-1.324,-1.3051,-1.2899,-1.307,0.0,0.0,0.0,0.0,0.0,0.0,0.0,-1.3954,-1.3954,-1.3423,-1.3152,-1.3152,-1.3152,-1.3576,-1.4439,-1.4105,-1.4159,-1.46,-1.294,-1.2009,-1.1792,-1.01,-0.923,0.0,0.0,0.0,-0.806,-0.8112,-0.8145,-0.8188,-0.7891,-0.7782,-0.7699,-0.7328,-0.7341,-0.7497,0.0,0.0,0.0,0.0,0.0,0.0,0.0,0.0,0.0,0.0,0.0,0.0,0.0,0.0,0.0,0.0,0.0,0.0,0.0,0.0,0.0,-3.3904,-3.3485,-3.3297,-3.3367,-3.2127,-3.1564,-3.1793,-3.0034,-2.9155,-2.9104,-2.8355,-2.7727,-2.719,-2.719,-2.7108,-2.6962,-2.6404,-2.5737,-2.4807,-2.3105,0.0,0.0,0.0,0.0,0.0,0.0,0.0,0.0,-1.9442,-1.9258,-1.8874,-1.9104,0.0,0.0,0.0,0.0,0.0,-1.5532,-1.4886,-1.4282,-1.397,-1.3357,-1.2762,0.0,0.0,0.0,0.0,0.0,0.0,0.0,-1.2519,-1.2593,0.0,0.0,-1.323,0.0,0.0,-1.3173,-1.2852,0.0,0.0,0.0,0.0,0.0,0.0,0.0,-1.2654,-1.2654,-1.2599,-1.2545,-1.2545,-1.2545,-1.2372,-1.2037,-1.2453,-1.2724,-1.2778,-1.1511,-1.0366,-0.9449,-0.934,-0.8796,0.0,0.0,-0.7877,-0.8148,-0.796,-0.7971,-0.8162,-0.7917,-0.7718,-0.7609,-0.7291,-0.7235,-0.7241,0.0,0.0,0.0,0.0,0.0,0.0,0.0,0.0,0.0,0.0,0.0,0.0,0.0,0.0,0.0,0.0,0.0,0.0,0.0,0.0,0.0,-3.3712,-3.3431,-3.3705,-3.4597,-3.2927,-3.2145,-3.2331,-3.0184,-2.9141,-2.9186,-2.8384,-2.7851,-2.7621,-2.7305,-2.719,-2.719,-2.688,-2.6321,-2.5569,0.0,0.0,0.0,0.0,0.0,0.0,0.0,0.0,0.0,0.0,-1.9104,-1.8827,-1.892,0.0,0.0,0.0,0.0,0.0,-1.5406,-1.4565,-1.4026,-1.3488,-1.3143,-1.2827,0.0,0.0,0.0,0.0,0.0,0.0,0.0,0.0,-1.3022,-1.3249,0.0,-1.3136,-1.3325,-1.2984,0.0,0.0,0.0,0.0,0.0,0.0,0.0,0.0,0.0,0.0,-1.2382,-1.2382,-1.2382,-1.2382,-1.2278,-1.1836,-1.0949,-1.0527,-1.0514,-1.0975,-0.9442,-0.8404,-0.7919,-0.7682,-0.7309,-0.6937,0.0,-0.7396,-0.7621,-0.7512,-0.7551,-0.7642,-0.734,-0.72,-0.7129,-0.7045,-0.6886,-0.6786,0.0,0.0,0.0,0.0,0.0,0.0,0.0,0.0,0.0,0.0,0.0,0.0,0.0,0.0,0.0,0.0,0.0,0.0,0.0,0.0,-3.3206,-3.3487,-3.3445,-3.3917,-3.5102,-3.3274,-3.2321,-3.2482,-3.0211,-2.9093,-2.9065,-2.8463,-2.808,-2.7966,-2.7461,-2.719,-2.719,-2.719,-2.6715,-2.5821,0.0,0.0,0.0,0.0,0.0,0.0,0.0,0.0,0.0,0.0,0.0,0.0,0.0,0.0,0.0,-1.7699,-1.7138,-1.6441,-1.5046,-1.4175,-1.3529,-1.2892,0.0,0.0,0.0,0.0,0.0,0.0,0.0,0.0,0.0,-1.3032,0.0,-1.3731,-1.3381,-1.3098,-1.3259,0.0,0.0,0.0,0.0,0.0,0.0,0.0,0.0,0.0,0.0,0.0,-1.2382,-1.2382,-1.2363,-1.2316,-1.1942,-1.1194,-1.002,-0.8783,-0.8468,-0.9124,-0.7445,-0.6628,-0.6628,-0.6167,-0.6082,-0.6287,-0.6697,-0.6996,-0.721,-0.721,-0.7193,-0.715,-0.6915,-0.6775,-0.6727,-0.6669,-0.6536,-0.6374,0.0,0.0,0.0,0.0,0.0,0.0,0.0,0.0,0.0,0.0,0.0,0.0,0.0,0.0,0.0,0.0,0.0,0.0,0.0,0.0,-3.2988,-3.4076,-3.3776,-3.3731,-3.399,-3.2427,-3.1542,-3.1489,-2.997,-2.9029,-2.8717,-2.8697,-2.8402,-2.7966,-2.7461,-2.719,-2.719,-2.719,-2.6467,-2.5147,-2.3932,0.0,0.0,0.0,0.0,0.0,0.0,0.0,0.0,0.0,0.0,0.0,0.0,0.0,-1.8133,-1.8087,-1.6655,-1.5108,-1.4704,-1.3552,-1.2324,-1.199,-1.2054,0.0,0.0,0.0,0.0,0.0,0.0,0.0,0.0,-1.2795,-1.288,-1.3155,-1.3155,-1.3202,-1.3589,0.0,0.0,0.0,0.0,0.0,0.0,0.0,0.0,0.0,0.0,0.0,-1.2382,-1.2382,-1.2297,-1.2118,-1.1167,-1.0004,-0.8636,-0.758,-0.7059,-0.7082,-0.5868,-0.5235,-0.5231,-0.5488,-0.5808,-0.6127,-0.6497,-0.6827,-0.721,-0.721,-0.715,-0.6997,-0.698,-0.6743,-0.6421,-0.6298,-0.6251,-0.6236,0.0,0.0,0.0,0.0,0.0,0.0,0.0,0.0,0.0,0.0,0.0,0.0,0.0,0.0,0.0,0.0,0.0,0.0,0.0,-3.2988,-3.315,-3.3599,-3.3473,-3.3501,-3.3709,-3.2632,-3.1783,-3.1278,-2.9982,-2.9113,-2.87,-2.9045,-2.8907,-2.8402,-2.792,-2.7529,-2.719,-2.719,-2.6674,-2.5695,-2.4233,-2.2829,0.0,0.0,0.0,0.0,0.0,0.0,0.0,0.0,-1.8781,-1.8781,-1.8781,-1.8458,-1.8087,-1.8087,-1.6842,-1.5391,-1.4835,-1.3811,-1.2825,-1.2061,0.0,0.0,0.0,0.0,0.0,0.0,0.0,0.0,0.0,0.0,-1.3362,-1.3438,-1.324,-1.3231,0.0,0.0,0.0,0.0,0.0,0.0,0.0,0.0,0.0,0.0,0.0,0.0,-1.2372,-1.1541,-1.1053,-1.1105,-0.9818,-0.8584,-0.7401,-0.6862,-0.6261,-0.5602,-0.5422,-0.5324,-0.5377,-0.585,-0.6173,-0.6384,-0.6709,-0.6991,-0.721,-0.721,-0.7182,-0.7139,-0.7013,-0.6813,-0.6479,-0.6282,-0.6266,-0.63,0.0,0.0,0.0,0.0,0.0,0.0,0.0,0.0,0.0,0.0,0.0,0.0,0.0,0.0,0.0,0.0,0.0,0.0,-3.3045,-3.3045,-3.3094,-3.3262,-3.3361,-3.3501,-3.3675,-3.298,-3.2037,-3.0981,-2.9602,-2.8862,-2.87,-2.9068,-2.918,-2.8994,-2.8307,-2.7824,-2.752,-2.73,-2.6633,-2.5631,-2.4233,-2.2829,0.0,0.0,0.0,0.0,0.0,0.0,0.0,0.0,-1.8781,-1.8781,-1.8735,-1.8071,-1.7404,-1.7466,-1.6183,-1.4663,-1.428,-1.3539,-1.2649,0.0,0.0,0.0,0.0,0.0,0.0,0.0,0.0,0.0,0.0,0.0,0.0,0.0,-1.3432,0.0,0.0,0.0,0.0,0.0,0.0,0.0,0.0,0.0,0.0,0.0,0.0,0.0,0.0,-1.0807,-1.012,-0.9805,-0.8498,-0.74,-0.6602,-0.6123,-0.5536,-0.4788,-0.5356,-0.554,-0.5492,-0.6052,-0.6386,-0.6542,-0.6727,-0.6937,-0.7155,-0.7155,-0.7177,-0.7199,-0.692,-0.6664,-0.6412,-0.6184,-0.6057,-0.6088,0.0,0.0,0.0,0.0,0.0,0.0,0.0,0.0,-3.6846,-3.7148,-3.6631,0.0,0.0,0.0,0.0,0.0,0.0,0.0,-3.2426,-3.2426,-3.2679,-3.3262,-3.3501,-3.3675,-3.3911,-3.3297,-3.2182,-3.0479,-2.8793,-2.8218,-2.87,-2.87,-2.9106,-2.972,-2.8553,-2.8091,-2.8231,-2.752,-2.6279,-2.4701,-2.3803,-2.2277,-2.0501,0.0,0.0,0.0,0.0,0.0,0.0,0.0,-1.8781,-1.8735,-1.8566,-1.7264,-1.5873,-1.6136,-1.4424,-1.2516,-1.3001,-1.237,-1.159,0.0,0.0,0.0,0.0,0.0,0.0,0.0,0.0,0.0,0.0,0.0,0.0,-1.3526,0.0,0.0,0.0,0.0,0.0,0.0,0.0,0.0,0.0,0.0,0.0,0.0,0.0,0.0,0.0,-1.0351,-0.9805,-0.835,-0.722,-0.6602,-0.6387,-0.5336,-0.4784,-0.4788,-0.5491,-0.5644,-0.5395,-0.5803,-0.6226,-0.6591,-0.6478,-0.6658,-0.6986,-0.6986,-0.7051,-0.7143,-0.6697,-0.6325,-0.6084,-0.5874,-0.5644,-0.5424,0.0,0.0,0.0,0.0,0.0,0.0,0.0,0.0,-3.6785,-3.703,-3.6968,0.0,0.0,0.0,0.0,0.0,0.0,0.0,-3.3045,-3.3045,-3.3094,-3.3262,-3.3361,-3.3558,-3.3872,-3.3309,-3.1973,-2.9948,-2.8638,-2.8142,-2.843,-2.9124,-2.9213,-2.8723,-2.8792,-2.8337,-2.752,-2.73,-2.6279,-2.4701,-2.3803,-2.2277,-2.0501,0.0,0.0,0.0,0.0,0.0,0.0,0.0,0.0,0.0,-1.8535,-1.7761,-1.6796,-1.6527,-1.5201,-1.3667,-1.3474,-1.2651,0.0,-1.1883,0.0,0.0,0.0,0.0,0.0,0.0,0.0,0.0,0.0,0.0,0.0,0.0,0.0,0.0,0.0,0.0,0.0,0.0,0.0,0.0,0.0,0.0,0.0,0.0,0.0,0.0,0.0,-0.9503,-0.8433,-0.722,-0.6022,-0.5313,-0.5286,-0.4935,-0.4867,-0.4932,-0.5595,-0.587,-0.57,-0.6409,-0.6786,-0.6872,-0.6619,-0.6774,-0.7161,-0.7161,-0.7018,-0.6751,-0.6611,-0.6284,-0.5884,-0.5615,-0.5546,-0.5528,0.0,0.0,0.0,0.0,0.0,0.0,0.0,0.0,-3.6693,-3.6969,-3.709,-3.6938,0.0,0.0,0.0,0.0,0.0,0.0,0.0,-3.329,-3.329,-3.329,-3.3122,-3.3223,-3.3542,-3.3046,-3.1967,-3.0331,-2.909,-2.8519,-2.8457,-2.8978,-2.9157,-2.9032,-2.8854,-2.8514,-2.8032,-2.7433,-2.6238,-2.4616,-2.3611,-2.2145,-2.0365,0.0,0.0,0.0,0.0,0.0,0.0,0.0,0.0,0.0,-1.852,-1.7466,-1.6183,-1.6055,-1.4771,-1.3329,-1.3136,-1.2554,0.0,-1.198,-1.198,-1.217,-1.2941,0.0,0.0,0.0,0.0,-1.3805,0.0,0.0,0.0,0.0,0.0,0.0,0.0,0.0,0.0,0.0,0.0,0.0,0.0,0.0,0.0,0.0,0.0,0.0,0.0,-0.8443,-0.7222,-0.6046,-0.5308,-0.4945,-0.4945,-0.4945,-0.4973,-0.5026,-0.5594,-0.5801,-0.5761,-0.6519,-0.6743,-0.6588,-0.6534,-0.6544,-0.6673,-0.6828,-0.6699,-0.6368,-0.6323,-0.6013,-0.5639,-0.5397,-0.5289,-0.5236,0.0,0.0,-3.8387,-3.804,0.0,0.0,0.0,0.0,-3.6631,-3.7032,-3.7031,-3.6877,0.0,0.0,0.0,0.0,0.0,0.0,0.0,0.0,-3.329,-3.329,-3.2965,-3.2854,-3.2996,-3.2691,-3.2111,-3.1386,-3.0025,-2.9136,-2.8674,-2.8495,-2.8962,-2.9969,-2.8846,-2.8659,-2.9155,-2.7787,-2.6196,-2.4531,-2.3438,-2.1968,-2.0337,-1.9242,0.0,0.0,0.0,0.0,0.0,0.0,0.0,0.0,-1.8442,-1.6687,-1.4746,-1.4902,-1.3607,-1.2224,-1.2322,-1.2224,-1.2029,-1.2029,-1.2039,0.0,-1.2933,-1.3772,-1.4416,-1.4416,0.0,-1.4161,-1.4416,0.0,0.0,0.0,0.0,0.0,0.0,0.0,0.0,0.0,0.0,0.0,0.0,0.0,0.0,0.0,0.0,0.0,0.0,-0.7339,-0.6307,-0.5025,-0.5051,-0.5088,-0.5071,-0.5088,-0.5092,-0.5084,-0.5504,-0.5665,-0.558,-0.6275,-0.6378,-0.6008,-0.6278,-0.6228,-0.5883,-0.6305,-0.6293,-0.6066,-0.5917,-0.5662,-0.5377,-0.5289,-0.5044,-0.4784,0.0,0.0,-3.913,-3.8747,0.0,0.0,0.0,0.0,0.0,-3.7467,0.0,0.0,0.0,0.0,0.0,0.0,0.0,0.0,0.0,0.0,-3.329,-3.329,-3.3381,-3.3285,-3.3023,-3.3184,-3.2806,-3.1947,-3.057,-2.9392,-2.8402,-2.8935,-2.8897,-2.8398,-2.8545,-2.8345,-2.7877,-2.7382,-2.6528,-2.5358,-2.3677,-2.2347,-2.123,-1.9455,-1.8781,0.0,0.0,0.0,0.0,0.0,0.0,0.0,-1.7529,-1.6593,-1.5568,-1.4232,-1.3655,-1.3281,-1.2322,-1.2224,0.0,-1.2029,-1.2457,-1.2844,-1.272,-1.332,-1.3976,-1.3976,-1.4073,-1.4158,-1.3955,0.0,0.0,0.0,0.0,0.0,0.0,0.0,0.0,0.0,0.0,0.0,0.0,0.0,0.0,0.0,0.0,0.0,-0.727,-0.6894,-0.6225,-0.5025,-0.499,-0.4937,-0.4798,-0.4932,-0.4965,0.0,-0.537,-0.5563,-0.5478,-0.5973,-0.6109,-0.6013,-0.6417,-0.6496,-0.648,-0.6866,-0.6806,-0.6452,-0.6427,-0.5999,-0.5386,-0.5364,-0.5103,-0.4784,0.0,0.0,0.0,0.0,0.0,0.0,0.0,0.0,0.0,0.0,0.0,0.0,0.0,-3.7002,0.0,0.0,-3.5109,-3.4312,-3.4312,-3.3652,-3.315,-3.2731,-3.3035,-3.3184,-3.3192,-3.312,-3.2905,-3.2524,-3.1259,-2.9904,-2.8503,-2.8738,-2.8584,-2.807,-2.8134,-2.8192,-2.8231,-2.752,-2.6809,-2.5999,-2.3864,-2.2478,-2.148,-1.953,-1.8781,-1.8827,-1.8966,0.0,0.0,0.0,0.0,0.0,0.0,0.0,-1.4758,-1.3944,-1.3522,-1.3184,-1.2419,0.0,0.0,-1.1932,0.0,-1.2719,-1.2171,-1.2573,-1.2994,-1.2892,-1.3266,-1.3572,-1.3331,0.0,0.0,0.0,0.0,0.0,0.0,0.0,0.0,0.0,0.0,0.0,0.0,0.0,0.0,0.0,0.0,-0.7439,-0.6859,-0.6231,-0.5593,-0.4901,-0.4883,-0.4863,-0.4769,-0.4859,-0.4883,-0.4788,-0.5174,-0.54,-0.5461,-0.5778,-0.5932,-0.5936,-0.6308,-0.6298,-0.5946,-0.6371,-0.6328,-0.6008,-0.5798,-0.5591,-0.5382,-0.518,-0.4976,-0.4784,0.0,0.0,0.0,0.0,0.0,0.0,0.0,0.0,0.0,0.0,0.0,0.0,0.0,-3.7,-3.66,0.0,0.0,0.0,-3.4514,-3.3722,-3.2945,-3.2128,-3.2489,-3.2809,-3.3085,-3.2659,-3.2478,-3.2566,-3.1497,-3.0167,0.0,0.0,0.0,-2.8115,-2.7696,-2.8045,-2.8905,-2.7796,-2.716,-2.6626,-2.4132,-2.2668,-2.1702,-1.9575,-1.8781,-1.8827,-1.8874,-1.9166,-1.9596,-1.9625,0.0,0.0,0.0,0.0,-1.3559,-1.3619,-1.3244,-1.2759,-1.2467,-1.2419,-1.2273,-1.1736,-1.2054,0.0,-1.1529,-1.1714,-1.1964,-1.1484,-1.2135,-1.2693,-1.2319,0.0,0.0,0.0,0.0,0.0,0.0,0.0,0.0,0.0,0.0,0.0,0.0,0.0,0.0,0.0,0.0,-0.659,-0.6411,-0.5504,-0.4859,-0.4712,-0.4777,-0.4748,-0.4716,-0.4748,-0.4748,-0.472,-0.5056,-0.5317,-0.5563,-0.5855,-0.5916,-0.5798,-0.6145,-0.594,-0.5445,-0.577,-0.5817,-0.5638,-0.5273,-0.5286,-0.5455,-0.5163,-0.5014,-0.4885,0.0,0.0,0.0,0.0,0.0,0.0,0.0,0.0,0.0,0.0,-3.7748,-3.7935,-3.8089,-3.7677,-3.7329,-3.7329,-3.66,-3.5881,-3.5302,0.0,0.0,-3.2128,-3.2489,-3.2427,-3.1835,-3.1832,-3.146,-3.0728,-3.0358,0.0,0.0,0.0,0.0,-2.7603,0.0,0.0,-2.8375,-2.8027,-2.7878,-2.7564,-2.4807,-2.3359,-2.2547,-1.9832,-1.8781,-1.8827,-1.9058,-1.9333,-1.9625,-1.9808,-1.8858,0.0,0.0,0.0,-1.3667,-1.2856,-1.271,-1.2759,-1.2467,0.0,-1.2273,0.0,-1.1825,-1.1865,0.0,0.0,-1.1212,0.0,-1.0836,-1.169,-1.0552,0.0,0.0,0.0,0.0,0.0,0.0,0.0,0.0,0.0,0.0,0.0,0.0,0.0,0.0,0.0,-0.6102,-0.5375,-0.5223,-0.4926,-0.4732,-0.4708,-0.472,-0.4651,-0.4445,-0.4647,-0.4647,-0.4445,-0.5112,-0.5546,-0.577,-0.637,-0.6354,-0.5798,-0.5859,-0.6007,-0.627,-0.6448,-0.6589,-0.6765,-0.659,-0.629,-0.5932,-0.6123,-0.5742,-0.514,0.0,0.0,0.0,0.0,0.0,0.0,0.0,0.0,0.0,0.0,0.0,-3.762,-3.7802,-3.7608,-3.751,-3.751,-3.6815,-3.5944,-3.4846,-3.3859,-3.2945,-3.2128,-3.2489,-3.2673,-3.2593,-3.15,-3.1128,-3.1411,-2.9814,0.0,0.0,-2.8081,-2.7825,0.0,0.0,0.0,0.0,0.0,-2.8057,-2.853,-2.4851,-2.3334,-2.2984,0.0,-1.8746,-1.8694,-1.8902,-1.915,-1.9425,-1.9671,-1.8334,-1.6579,-1.6391,0.0,0.0,0.0,-1.271,-1.2759,-1.2467,-1.2419,-1.2068,0.0,-1.0425,-1.0195,-0.8621,0.0,-0.857,-0.7781,-0.8261,-0.8744,0.0,0.0,0.0,0.0,0.0,0.0,0.0,0.0,0.0,0.0,0.0,0.0,0.0,0.0,0.0,0.0,-0.5784,-0.5242,-0.5072,-0.4797,-0.4585,-0.4483,-0.4479,-0.4513,-0.4623,-0.4703,-0.4853,-0.5018,-0.549,-0.5728,-0.5822,-0.619,-0.6298,-0.6256,-0.6256,-0.6215,-0.6133,-0.6124,-0.6163,-0.6199,-0.6088,-0.6021,-0.5912,-0.5953,-0.5717,-0.5436,0.0,0.0,0.0,0.0,0.0,0.0,0.0,0.0,0.0,0.0,0.0,-3.7458,-3.7512,0.0,0.0,0.0,-3.6842,-3.5796,-3.4383,-3.3602,-3.2838,-3.2128,-3.2381,-3.2672,-3.2913,-3.1332,-3.0882,-3.1578,-2.9419,0.0,-2.8197,-2.7679,-2.751,0.0,-2.733,0.0,0.0,0.0,0.0,0.0,0.0,-2.343,0.0,0.0,0.0,0.0,-1.871,-1.8913,-1.9157,0.0,0.0,0.0,0.0,0.0,0.0,0.0,0.0,-1.2759,0.0,0.0,-1.1473,-0.9641,-0.9042,-0.8449,0.0,0.0,-0.642,0.0,-0.5947,-0.5957,0.0,0.0,0.0,0.0,0.0,0.0,0.0,0.0,0.0,0.0,0.0,0.0,0.0,0.0,0.0,0.0,-0.5597,-0.5349,-0.5103,-0.4741,-0.4463,-0.4304,-0.43,-0.4422,-0.4676,-0.4726,-0.4981,-0.5365,-0.5681,-0.5787,-0.5744,-0.5984,-0.6232,-0.6486,-0.6444,-0.6274,-0.5909,-0.5893,-0.5835,-0.5866,-0.5733,-0.5767,-0.5887,-0.5826,-0.5737,-0.5687,0.0,0.0,0.0,0.0,0.0,0.0,0.0,0.0,0.0,0.0,0.0,-3.7993,-3.7543,-3.751,-3.751,-3.751,-3.685,-3.579,-3.4381,-3.3323,-3.2561,-3.2128,-3.2191,0.0,-3.1702,-3.1149,-3.052,-2.9829,-2.8919,-2.8283,-2.7928,-2.7435,-2.7534,-2.8139,-2.7516,-2.7529,-2.8035,0.0,0.0,0.0,-2.543,-2.3971,0.0,0.0,0.0,0.0,0.0,0.0,0.0,0.0,0.0,0.0,0.0,0.0,-1.4004,0.0,0.0,0.0,0.0,-1.1463,0.0,-0.9444,-0.8259,0.0,0.0,0.0,0.0,-0.5052,-0.4747,-0.4369,0.0,0.0,0.0,0.0,0.0,0.0,0.0,0.0,0.0,0.0,0.0,0.0,0.0,0.0,0.0,0.0,-0.5318,-0.5401,-0.5094,-0.4678,-0.4398,-0.4304,-0.43,-0.43,-0.4308,-0.4576,-0.4804,-0.5037,-0.5415,-0.5609,-0.5614,-0.6075,-0.6219,-0.6127,-0.6054,-0.5992,-0.6027,-0.6208,-0.6399,-0.6538,-0.6355,-0.6216,-0.62,-0.6329,-0.6187,-0.5992,0.0,0.0,0.0,0.0,0.0,0.0,0.0,0.0,0.0,0.0,0.0,0.0,0.0,-3.751,-3.751,-3.751,-3.6073,-3.488,-3.407,-3.2454,-3.1431,-3.12,-3.1478,-3.1793,-3.2193,-3.0827,-3.0189,-3.027,-2.8522,-2.7655,-2.7655,-2.7353,-2.7371,-2.7713,-2.733,-2.7548,-2.8175,-2.787,0.0,0.0,-2.4783,-2.3373,0.0,0.0,0.0,0.0,0.0,0.0,0.0,0.0,0.0,0.0,0.0,0.0,-1.3292,-1.2905,-1.2807,0.0,0.0,0.0,0.0,-0.8654,-0.7558,-0.6465,-0.473,-0.43,-0.4163,-0.3836,-0.3701,-0.3558,0.0,0.0,0.0,0.0,0.0,0.0,0.0,0.0,0.0,0.0,0.0,0.0,0.0,0.0,0.0,0.0,0.0,-0.5389,-0.5288,-0.4677,-0.4332,-0.43,-0.43,-0.4508,-0.4886,-0.5179,-0.5409,-0.5567,-0.5825,-0.585,-0.5671,-0.5998,-0.6083,-0.5975,-0.6048,-0.6069,-0.6059,-0.6036,-0.608,-0.6184,-0.6252,-0.6218,-0.6088,-0.6273,-0.608,-0.5727,0.0,0.0,0.0,-4.0789,0.0,-3.9891,-3.9891,-3.8998,-3.8308,-3.8308,0.0,0.0,0.0,0.0,-3.7231,-3.655,-3.5156,-3.389,-3.2942,-3.1405,-3.0574,-3.0699,-3.0976,-3.1433,-3.2193,-3.0457,-2.9756,-3.0295,-2.8005,-2.7076,0.0,-2.7117,-2.7198,-2.7479,-2.7261,-2.7456,0.0,0.0,0.0,-2.7926,0.0,-2.3112,-2.2856,0.0,0.0,0.0,0.0,0.0,0.0,0.0,0.0,0.0,0.0,-1.4624,-1.2807,-1.2807,0.0,0.0,-1.2565,0.0,0.0,0.0,-0.731,-0.5922,-0.4131,0.0,-0.3101,-0.3184,-0.3144,-0.3101,0.0,0.0,0.0,0.0,0.0,0.0,0.0,0.0,0.0,0.0,0.0,0.0,0.0,0.0,0.0,0.0,0.0,0.0,-0.5379,-0.4717,-0.43,-0.43,-0.43,-0.4553,-0.5118,-0.5368,-0.5598,-0.5844,-0.5926,-0.5888,-0.5696,-0.5893,-0.592,-0.585,-0.5931,-0.6013,-0.6083,-0.604,-0.6026,-0.6068,-0.622,-0.624,-0.6126,-0.6263,-0.5994,-0.5577,-3.9825,-4.0518,-4.1117,-4.1117,-4.0556,-4.0152,-4.0152,-3.9124,-3.8371,-3.834,0.0,0.0,0.0,0.0,0.0,-3.4715,-3.4118,-3.3033,-3.1025,-3.0166,-2.9997,-3.061,-3.0663,-3.0956,-3.1569,-3.0002,-2.9378,-2.9679,-2.7416,0.0,0.0,0.0,-2.694,-2.7379,-2.7221,-2.7167,-2.7254,0.0,-2.769,-2.7071,0.0,-2.323,-2.2544,0.0,0.0,0.0,-1.8413,-1.8413,0.0,0.0,0.0,0.0,0.0,0.0,-1.2807,0.0,0.0,0.0,0.0,0.0,0.0,0.0,0.0,0.0,-0.4981,0.0,-0.2991,-0.3192,-0.3071,-0.2991,0.0,0.0,0.0,0.0,0.0,0.0,0.0,0.0,0.0,0.0,0.0,0.0,0.0,0.0,0.0,0.0,-0.5204,-0.5379,-0.5379,-0.4717,-0.43,-0.43,-0.43,-0.4523,-0.5008,-0.5008,-0.5235,-0.5691,-0.5691,-0.5691,-0.5691,-0.5691,-0.5691,-0.5691,-0.5691,-0.586,-0.6083,-0.6257,-0.6317,-0.6317,-0.6322,-0.6339,-0.6371,-0.6312,-0.5945,-0.5536,-4.0249,-4.0685,-4.1151,-4.1254,-4.1066,-4.0941,-4.0941,-4.0383,-3.9755,0.0,0.0,0.0,0.0,0.0,-3.6924,-3.5483,-3.406,-3.2564,-3.0934,-2.94,-2.8697,-2.9004,-2.9732,-3.0379,-3.093,-3.0033,-2.9505,-2.9365,0.0,0.0,0.0,0.0,0.0,0.0,-2.6867,-2.7065,-2.7412,-2.741,0.0,0.0,-2.4783,-2.3407,0.0,0.0,0.0,0.0,0.0,-1.8578,-1.882,0.0,-1.8362,-1.7598,0.0,0.0,0.0,0.0,0.0,0.0,-1.2516,0.0,0.0,0.0,0.0,0.0,-0.6763,-0.5349,-0.4311,-0.434,-0.3698,-0.3149,-0.3184,0.0,0.0,0.0,0.0,0.0,0.0,0.0,0.0,0.0,0.0,0.0,0.0,0.0,0.0,0.0,-0.5398,-0.5379,-0.5379,-0.4717,-0.43,-0.43,-0.4478,-0.4701,-0.5008,-0.5191,-0.5419,-0.5691,-0.5691,-0.5691,-0.5691,-0.5691,-0.5691,-0.5691,-0.5691,-0.5723,-0.5844,-0.6051,-0.6187,-0.6328,-0.6361,-0.6161,-0.5822,-0.5772,-0.5156,-0.4425,-4.0349,-4.0819,-4.1194,-4.0847,-4.0784,-4.0657,-4.0179,-3.9902,-3.9624,0.0,0.0,0.0,0.0,0.0,0.0,-3.4412,-3.3141,-3.187,-3.0488,-2.9019,-2.8422,-2.883,-2.952,-3.0209,-3.0797,-2.9954,0.0,0.0,0.0,0.0,0.0,0.0,0.0,0.0,-2.6472,0.0,0.0,0.0,0.0,0.0,-2.4701,0.0,0.0,-2.0519,-1.94,0.0,0.0,0.0,-1.8968,-1.8866,-1.8261,0.0,0.0,0.0,0.0,0.0,0.0,0.0,0.0,0.0,0.0,0.0,0.0,0.0,-0.7806,-0.6271,-0.5031,0.0,-0.3783,-0.3181,-0.3181,0.0,0.0,0.0,0.0,0.0,0.0,0.0,0.0,0.0,0.0,0.0,0.0,-0.4332,-0.4935,-0.5236,-0.5349,-0.5242,-0.4972,-0.4538,-0.43,-0.43,-0.4572,-0.479,-0.5008,-0.528,-0.5508,-0.5691,-0.5691,-0.5691,-0.5691,-0.5691,-0.5691,-0.5691,-0.5691,-0.5691,-0.5702,-0.5931,-0.5989,-0.5914,-0.5979,-0.5698,-0.5277,-0.5223,-0.4694,-0.3977,0.0,-4.0729,-4.0949,-4.0058,-3.9835,-3.9453,-3.8506,-3.8312,-3.8348,0.0,0.0,0.0,0.0,0.0,0.0,0.0,-3.195,-3.1178,-2.9907,-2.8995,-2.8743,-2.9355,-2.9767,-3.0271,-3.0895,-2.9755,0.0,0.0,0.0,0.0,0.0,0.0,0.0,0.0,-2.6025,-2.6115,0.0,0.0,0.0,-2.6345,-2.4493,-2.2995,0.0,0.0,-1.9715,0.0,-1.8704,-1.8755,-1.8924,-1.8873,-1.8194,0.0,0.0,0.0,0.0,0.0,-1.3318,0.0,0.0,0.0,0.0,0.0,0.0,0.0,-0.8711,-0.7167,-0.5772,-0.478,-0.4031,-0.3531,-0.3481,-0.338,0.0,0.0,0.0,0.0,0.0,0.0,0.0,0.0,0.0,0.0,-0.329,-0.4145,-0.4746,-0.4834,-0.5156,-0.5055,-0.4414,-0.4304,-0.43,-0.43,-0.4572,-0.479,-0.5008,-0.528,-0.5508,-0.5691,-0.5691,-0.5691,-0.5691,-0.5691,-0.5691,-0.5691,-0.5691,-0.5691,-0.5696,-0.5764,-0.5603,-0.5294,-0.5446,-0.5156,-0.4734,-0.4734,-0.4383,-0.3934,-3.8826,-3.8984,-3.9046,-3.8857,-3.8333,-3.7839,-3.765,-3.7114,-3.6561,-3.6094,-3.5499,0.0,0.0,0.0,0.0,0.0,-3.1985,-3.122,-3.0019,-2.9425,-2.904,-2.8871,-2.9954,-3.045,-3.0277,-2.9439,-2.8881,0.0,0.0,0.0,0.0,0.0,0.0,0.0,-2.5363,-2.5566,0.0,0.0,0.0,-2.5719,-2.4887,0.0,-2.2955,-2.1824,-2.0819,-1.9894,-1.9069,-1.8723,-1.875,0.0,-1.9129,-1.8767,0.0,0.0,0.0,0.0,0.0,0.0,0.0,0.0,0.0,0.0,0.0,0.0,-1.0993,-0.9838,-0.8696,-0.8252,-0.6918,-0.5627,-0.5227,-0.4429,0.0,0.0,0.0,0.0,0.0,0.0,0.0,0.0,0.0,0.0,-0.3869,-0.3917,-0.4249,-0.5044,-0.5107,-0.4989,-0.4739,-0.443,-0.43,-0.43,-0.4572,-0.479,-0.5008,-0.528,-0.5508,-0.5691,-0.5691,-0.5691,-0.5691,-0.5691,-0.5691,-0.5691,-0.5691,-0.5691,-0.5696,-0.54,-0.5278,-0.5294,-0.5446,-0.4959,-0.4131,-0.4131,-0.3833,-0.338,-3.7293,-3.7387,-3.7263,-3.673,-3.633,-3.5902,-3.5374,-3.5293,-3.5209,-3.5097,-3.4715,0.0,0.0,0.0,0.0,0.0,0.0,0.0,0.0,-3.0523,-3.026,-3.0086,-3.0859,-3.0922,-3.0095,-2.9492,-2.8729,-2.7774,0.0,0.0,0.0,0.0,0.0,0.0,0.0,0.0,0.0,0.0,-2.4952,-2.5359,-2.4872,0.0,-2.3173,-2.2604,-2.1498,-2.0223,-1.9647,-1.914,-1.8754,-1.9148,-1.9266,0.0,0.0,-1.7462,-1.6278,0.0,-1.3933,-1.272,0.0,0.0,0.0,-1.198,0.0,0.0,0.0,-1.0386,-0.9444,-0.8901,-0.7862,-0.6918,-0.667,0.0,-0.4977,0.0,0.0,0.0,0.0,0.0,0.0,0.0,0.0,0.0,-0.3681,-0.3836,-0.4201,-0.4885,-0.5028,-0.491,-0.4631,-0.4576,-0.4529,-0.4482,-0.4746,-0.4968,-0.5191,-0.5324,-0.5508,-0.5691,-0.5691,-0.5691,-0.5691,-0.5691,-0.5691,-0.5691,-0.5691,-0.5552,-0.5335,-0.5173,-0.488,-0.4516,-0.4651,-0.4263,-0.3581,-0.3581,-0.343,-0.3181,-3.553,-3.5693,-3.5443,-3.4603,-3.4341,-3.3988,-3.3122,-3.3314,-3.3692,-3.4051,0.0,0.0,0.0,0.0,0.0,0.0,0.0,0.0,0.0,0.0,-3.1278,-3.1223,-3.1606,-3.1146,-2.9731,-2.9189,-2.8242,-2.6971,0.0,0.0,0.0,0.0,0.0,0.0,0.0,0.0,0.0,0.0,0.0,-2.4999,0.0,-2.4166,-2.3497,-2.3173,-2.2019,-2.0445,-1.9904,-1.9307,-1.8835,-1.9093,0.0,-1.9123,-1.91,-1.8063,0.0,0.0,0.0,0.0,0.0,0.0,0.0,0.0,0.0,-1.1727,0.0,0.0,0.0,-0.9156,-0.8563,0.0,0.0,0.0,0.0,0.0,0.0,0.0,0.0,0.0,0.0,0.0,0.0,0.0,0.0,-0.3724,-0.4177,-0.4548,-0.4716,-0.463,-0.4281,-0.4447,-0.458,-0.4616,-0.4853,-0.5121,-0.5419,-0.5439,-0.5528,-0.5691,-0.5691,-0.5691,-0.5691,-0.5691,-0.5657,-0.5584,-0.5563,-0.5295,-0.4867,-0.4858,-0.4388,-0.3714,-0.3864,-0.3614,-0.3165,-0.3176,-0.3181,-0.3181,-3.3465,-3.355,-3.3522,-3.3396,-3.2866,-3.2372,-3.2245,-3.1743,0.0,0.0,0.0,0.0,0.0,0.0,0.0,0.0,0.0,0.0,-3.1261,0.0,0.0,-3.0296,-3.1093,-3.0632,-2.8739,-2.7583,-2.6857,-2.6479,-2.4784,0.0,0.0,0.0,0.0,0.0,-2.3896,0.0,0.0,0.0,-2.4209,0.0,-2.4703,-2.4893,0.0,-2.3584,-2.2394,-2.1114,-1.9143,-1.8583,-1.8835,0.0,-1.9392,-1.9618,0.0,-1.8962,-1.8129,0.0,0.0,0.0,0.0,0.0,0.0,0.0,-1.1639,0.0,0.0,0.0,-1.1629,-1.1287,0.0,0.0,0.0,0.0,0.0,0.0,0.0,0.0,0.0,0.0,0.0,0.0,0.0,0.0,0.0,-0.3528,-0.3789,-0.4071,-0.3811,-0.3739,-0.3847,-0.3781,-0.3937,-0.4348,-0.4654,-0.5022,-0.5419,-0.5521,-0.5612,-0.5691,-0.5691,-0.5691,-0.5691,-0.5691,-0.552,-0.5146,-0.5096,-0.484,-0.4418,-0.4016,-0.3793,-0.3714,-0.3864,-0.3583,-0.3106,-0.316,-0.3181,-0.3181,-3.2863,-3.2637,-3.2502,-3.2853,-3.2375,-3.1936,-3.1936,-3.1408,0.0,0.0,0.0,0.0,0.0,0.0,0.0,0.0,0.0,-3.0551,0.0,0.0,0.0,0.0,-3.1327,-3.0407,-2.8584,-2.7219,-2.6194,-2.5445,-2.4449,0.0,0.0,0.0,0.0,0.0,-2.3774,0.0,-2.4191,0.0,0.0,0.0,0.0,0.0,0.0,-2.3965,-2.2493,-2.0814,-1.9431,-1.8669,-1.8379,0.0,-1.9093,0.0,0.0,0.0,0.0,0.0,0.0,0.0,0.0,0.0,0.0,0.0,0.0,0.0,-1.2839,0.0,-1.1541,0.0,0.0,0.0,0.0,0.0,0.0,0.0,-0.8407,0.0,0.0,0.0,0.0,0.0,0.0,0.0,0.0,0.0,0.0,0.0,-0.3654,-0.3509,-0.3394,-0.3708,-0.396,-0.4104,-0.4637,-0.506,-0.5419,-0.5532,-0.5623,-0.5691,-0.5871,-0.5866,-0.5691,-0.5485,-0.5275,-0.503,-0.4719,-0.4365,-0.3908,-0.3776,-0.3562,-0.3297,-0.3382,-0.3286,-0.3098,-0.3157,-0.3181,-0.3181,-3.3169,0.0,0.0,0.0,-3.2254,-3.198,-3.1823,0.0,0.0,0.0,0.0,0.0,-3.0738,-3.0607,0.0,0.0,-3.0451,-3.0734,0.0,0.0,-3.192,0.0,0.0,0.0,0.0,-2.6625,-2.5684,-2.472,-2.4442,0.0,0.0,0.0,0.0,0.0,0.0,-2.4152,-2.4617,0.0,0.0,-2.5464,-2.5295,-2.4998,-2.466,-2.3846,-2.2349,-2.055,-1.9751,-1.8823,-1.8059,-1.8459,-1.8768,0.0,-1.9187,0.0,0.0,0.0,0.0,0.0,-1.7353,0.0,0.0,0.0,0.0,0.0,0.0,0.0,0.0,0.0,0.0,0.0,0.0,0.0,0.0,0.0,0.0,-0.9057,0.0,0.0,0.0,0.0,0.0,0.0,0.0,0.0,0.0,-0.3629,-0.3528,-0.3401,-0.324,-0.3726,-0.408,-0.4112,-0.4758,-0.5205,-0.5419,-0.5577,-0.5668,-0.5691,-0.5909,-0.5899,-0.5691,-0.532,-0.5053,-0.4826,-0.4308,-0.3868,-0.3438,-0.3474,-0.3258,-0.2992,-0.3068,-0.3115,-0.3125,-0.3152,-0.3181,-0.3181,-3.4345,-3.343,0.0,0.0,0.0,-3.2463,0.0,0.0,0.0,0.0,0.0,0.0,0.0,0.0,0.0,0.0,0.0,-2.9941,-3.1378,0.0,-3.0543,0.0,0.0,-2.841,0.0,0.0,-2.5168,-2.4509,-2.468,0.0,0.0,0.0,0.0,0.0,0.0,-2.4472,-2.4893,-2.4803,-2.493,-2.5189,-2.5189,-2.4533,-2.3468,0.0,-2.1847,-2.0753,-1.9696,0.0,0.0,-1.8459,-1.8596,0.0,0.0,0.0,0.0,0.0,0.0,0.0,0.0,0.0,0.0,-1.594,0.0,0.0,0.0,0.0,-1.4076,0.0,0.0,0.0,0.0,0.0,0.0,0.0,0.0,0.0,0.0,0.0,0.0,0.0,0.0,0.0,0.0,0.0,0.0,-0.3578,-0.338,-0.3304,-0.3488,-0.3772,-0.4039,-0.4392,-0.4984,-0.5315,-0.5419,-0.5708,-0.5844,-0.5691,-0.5696,-0.5696,-0.5691,-0.524,-0.48,-0.438,-0.3845,-0.34,-0.2997,-0.2944,-0.2922,-0.2933,-0.3052,-0.3099,-0.3113,-0.3185,-0.3181,-0.3181,0.0,0.0,0.0,0.0,0.0,0.0,0.0,-3.1601,0.0,0.0,0.0,0.0,0.0,-3.0529,-3.0424,0.0,0.0,-3.0424,-2.9886,-3.107,0.0,0.0,0.0,-2.7711,0.0,0.0,0.0,0.0,0.0,0.0,0.0,0.0,0.0,0.0,0.0,-2.4597,0.0,0.0,0.0,0.0,0.0,-2.5141,-2.4538,0.0,0.0,-2.1268,-2.1051,-2.0372,0.0,-1.9797,-1.9659,-1.937,-1.9304,-1.9123,-1.8998,-1.8819,-1.8871,0.0,0.0,0.0,-1.8208,-1.8319,0.0,0.0,0.0,0.0,0.0,0.0,0.0,0.0,0.0,0.0,0.0,0.0,0.0,0.0,0.0,0.0,0.0,0.0,0.0,0.0,0.0,0.0,0.0,-0.3626,-0.3639,-0.3574,-0.3299,-0.3703,-0.3943,-0.4087,-0.4806,-0.5189,-0.5208,-0.5654,-0.5882,-0.585,-0.5634,-0.5529,-0.5408,-0.4614,-0.4135,-0.3924,-0.3351,-0.3086,-0.3003,-0.2983,-0.2976,-0.3055,-0.3093,-0.3134,-0.3174,-0.3215,-0.3181,-0.3181,-3.2302,0.0,0.0,0.0,0.0,0.0,0.0,0.0,0.0,0.0,-3.0898,0.0,-3.0973,0.0,-3.0921,0.0,-3.1266,-3.0981,-2.9538,-3.0775,0.0,-2.7162,-2.7284,0.0,0.0,0.0,0.0,0.0,0.0,-2.4493,0.0,0.0,0.0,0.0,0.0,0.0,-2.4893,0.0,-2.5338,0.0,0.0,-2.5306,0.0,0.0,-2.3042,-2.183,0.0,-2.1221,-2.0508,-2.0508,-2.0133,-1.9582,-1.9384,-1.9051,-1.8716,-1.8459,-1.8665,-1.8998,-1.8998,-1.8888,0.0,-1.9418,-1.8622,0.0,-1.8446,0.0,0.0,0.0,0.0,0.0,0.0,0.0,0.0,0.0,0.0,0.0,0.0,-1.0953,0.0,0.0,0.0,0.0,0.0,0.0,-0.4327,-0.3927,-0.3937,-0.3884,0.0,0.0,-0.4339,-0.4309,-0.4923,-0.5246,-0.5262,-0.5583,-0.5721,-0.5629,-0.5449,-0.5217,-0.4996,-0.4233,-0.383,-0.3688,-0.3181,-0.3003,-0.3036,-0.3014,-0.3003,-0.3076,-0.3098,-0.3131,-0.3172,-0.3215,-0.3181,-0.3181,-3.0932,-3.0707,0.0,0.0,-3.1148,0.0,0.0,0.0,-3.0356,0.0,-3.071,-3.0936,-3.0936,-3.0936,-3.1171,-3.168,-3.1964,-3.1548,-3.0279,-3.0585,0.0,0.0,-2.565,-2.508,-2.3507,0.0,0.0,0.0,0.0,0.0,0.0,0.0,0.0,0.0,-2.4507,0.0,-2.4914,-2.5126,-2.5338,-2.5612,-2.5591,-2.5029,-2.4129,-2.4086,-2.3448,-2.2514,-2.2036,-2.1336,-2.0624,-2.0586,-2.004,-1.9332,-1.9292,-1.8714,-1.7991,-1.7991,-1.8288,-1.8562,-1.8562,-1.8836,-1.917,-1.9187,0.0,0.0,0.0,0.0,-1.82,0.0,0.0,0.0,0.0,0.0,0.0,0.0,0.0,0.0,0.0,0.0,0.0,0.0,0.0,0.0,0.0,-0.5222,-0.4776,-0.4487,-0.4228,-0.4275,0.0,0.0,-0.5146,-0.5103,-0.5391,-0.5537,-0.5563,-0.5506,-0.5368,-0.5092,-0.5046,-0.4822,-0.4443,-0.4007,-0.3766,-0.3762,-0.3287,-0.3097,-0.3097,-0.3039,-0.3014,-0.3025,-0.3083,-0.3105,-0.3119,-0.3188,-0.3181,-0.3181,-2.9943,-2.9557,-2.9395,0.0,-2.9616,-2.9701,0.0,0.0,0.0,0.0,-2.9973,-3.0012,-3.0012,-3.0216,-3.0407,-3.0497,-3.0867,0.0,0.0,0.0,0.0,-2.4342,-2.5194,-2.5,-2.3305,-2.3784,0.0,-2.4406,0.0,0.0,-2.4507,0.0,0.0,0.0,0.0,0.0,-2.4615,-2.4871,-2.5211,-2.5569,-2.5367,-2.5126,0.0,0.0,-2.3638,-2.3349,-2.2854,-2.2531,-2.2268,-2.168,-2.0875,-2.0079,-1.949,-1.8714,-1.7991,-1.7991,-1.8059,-1.8128,-1.8128,-1.8213,-1.8391,-1.8665,-1.8733,-1.8836,0.0,0.0,0.0,0.0,0.0,0.0,0.0,0.0,0.0,0.0,0.0,0.0,0.0,0.0,0.0,0.0,0.0,0.0,-0.8096,-0.6803,-0.595,-0.5622,-0.5001,-0.4692,-0.4776,0.0,0.0,-0.5155,-0.5576,-0.5601,-0.5211,-0.5327,-0.5185,-0.4822,-0.439,-0.4193,-0.4122,-0.3528,-0.326,-0.326,-0.3164,-0.3122,-0.3115,-0.3098,-0.312,-0.3161,-0.3177,-0.3183,-0.3188,-0.3218,-0.3181,-0.3181,-2.8864,0.0,0.0,-2.78,0.0,0.0,-2.8361,-2.8351,0.0,-2.8267,-2.8521,0.0,-2.8694,-2.8939,-2.9081,-2.9081,-2.9592,0.0,-2.7837,0.0,0.0,-2.4461,-2.4548,-2.4196,-2.3173,-2.3532,0.0,-2.42,0.0,0.0,-2.4507,0.0,0.0,0.0,0.0,-2.4507,0.0,-2.4786,-2.5041,-2.5267,-2.5109,0.0,0.0,-2.394,-2.3553,-2.3372,-2.3088,-2.3001,-2.2889,-2.2059,-2.1221,-2.0352,-1.9529,-1.8714,-1.7991,-1.7991,-1.7991,-1.7991,-1.7991,-1.7991,-1.8042,-1.8288,-1.834,-1.8442,-1.8836,-1.8922,-1.8998,0.0,0.0,0.0,0.0,0.0,0.0,0.0,0.0,0.0,0.0,0.0,0.0,0.0,0.0,0.0,-0.9936,-0.8082,-0.6697,-0.6061,-0.5143,-0.4639,0.0,0.0,0.0,-0.534,-0.5381,-0.538,-0.5289,-0.4993,-0.4699,-0.4358,-0.4065,-0.3811,-0.3632,-0.3293,-0.3114,-0.3087,-0.3104,-0.3109,-0.3087,-0.3112,-0.3136,-0.3141,-0.3141,-0.3157,-0.3181,-0.3181,-0.3181,-0.3181,-2.7904,0.0,0.0,0.0,0.0,0.0,0.0,-2.6719,0.0,-2.6419,0.0,-2.7273,-2.7273,-2.7498,-2.7683,-2.7683,0.0,-2.828,-2.7434,-2.6922,-2.6218,-2.5168,-2.3991,-2.3304,-2.32,-2.3421,0.0,0.0,0.0,0.0,-2.4673,0.0,0.0,0.0,0.0,0.0,0.0,-2.4617,-2.4619,0.0,-2.448,-2.4107,-2.3568,-2.358,-2.3372,-2.3001,-2.2889,-2.2852,-2.2718,-2.1907,-2.1068,-2.0196,-1.9371,-1.8634,-1.7991,-1.7951,-1.7991,-1.7991,-1.7951,-1.7991,-1.7991,-1.7991,-1.7991,-1.8076,-1.8442,-1.8511,-1.8697,-1.9235,-1.8522,-1.7969,0.0,0.0,0.0,0.0,0.0,0.0,0.0,0.0,0.0,0.0,0.0,0.0,0.0,-0.9156,-0.7426,-0.6559,-0.5389,-0.4691,0.0,0.0,0.0,-0.5486,-0.5135,0.0,-0.5312,0.0,-0.4128,-0.3772,-0.3782,-0.357,-0.3168,-0.3176,-0.3152,-0.3103,-0.3103,-0.3103,-0.3098,-0.3095,-0.3104,-0.3103,-0.3103,-0.3133,-0.3181,-0.3181,-0.3181,-0.3181,0.0,0.0,0.0,0.0,0.0,-2.5233,-2.5257,-2.5871,-2.6342,-2.649,-2.6588,-2.667,-2.667,-2.6853,-2.6976,-2.6976,-2.7249,0.0,0.0,0.0,0.0,-2.4679,-2.4385,-2.4095,-2.3763,-2.3805,-2.42,0.0,-2.507,-2.5295,-2.5647,0.0,0.0,0.0,0.0,0.0,-2.4242,-2.3761,0.0,-2.3185,-2.3012,-2.2841,-2.273,-2.2999,-2.3067,-2.2927,-2.2268,-2.2004,-2.1869,-2.1029,-2.0196,-1.9371,-1.8514,-1.8112,-1.7951,-1.7789,-1.787,-1.7951,-1.7789,-1.787,-1.7991,-1.7991,-1.7991,-1.8008,-1.8076,-1.8094,-1.8192,-1.8545,-1.8562,-1.8632,-1.9,0.0,0.0,0.0,0.0,0.0,0.0,0.0,0.0,0.0,0.0,0.0,0.0,0.0,0.0,-0.9,-0.7638,0.0,0.0,0.0,0.0,0.0,-0.5286,0.0,0.0,0.0,-0.3785,-0.3237,-0.329,-0.3243,-0.3109,-0.3157,-0.3176,-0.3165,-0.3165,-0.3165,-0.3162,-0.3204,-0.3204,-0.3165,-0.3165,-0.3171,-0.3181,-0.3181,-0.3181,-0.3181,0.0,0.0,0.0,0.0,0.0,0.0,0.0,-2.5701,0.0,-2.5168,-2.5232,-2.5316,-2.5316,-2.5485,-2.5589,-2.5589,-2.5673,-2.5871,-2.6145,-2.5529,-2.5083,-2.4881,-2.4447,0.0,-2.37,-2.3802,-2.4137,-2.47,-2.4973,-2.5263,0.0,0.0,0.0,0.0,0.0,-2.4032,0.0,0.0,0.0,-2.1829,-2.173,-2.1589,-2.1485,-2.163,-2.17,-2.1662,-2.126,-2.0837,-2.045,-2.004,-1.9608,-1.9134,-1.8273,-1.7991,-1.7991,-1.787,-1.787,-1.787,-1.787,-1.787,-1.787,-1.7951,-1.7991,-1.7991,-1.7991,-1.7991,-1.8112,-1.8491,-1.8571,-1.8516,-1.8452,-1.6946,0.0,0.0,0.0,0.0,0.0,0.0,0.0,0.0,0.0,0.0,0.0,0.0,0.0,0.0,0.0,0.0,0.0,0.0,0.0,0.0,0.0,0.0,0.0,0.0,0.0,-0.3138,-0.3165,-0.3165,-0.3138,-0.3168,-0.3162,-0.3133,-0.3133,-0.3133,-0.3136,-0.3168,-0.3181,-0.3181,-0.3181,-0.3181,-0.3181,-0.3181,-0.3181,-0.3181,0.0,-2.7309,0.0,0.0,-2.6915,0.0,-2.648,-2.5834,-2.508,-2.4216,-2.4161,-2.4249,-2.4249,-2.4421,-2.4528,-2.4631,-2.4652,-2.5068,-2.6003,-2.4987,-2.4633,-2.5337,-2.4592,-2.4033,-2.3719,-2.3902,-2.4132,0.0,-2.4935,-2.5207,0.0,0.0,0.0,0.0,0.0,0.0,0.0,0.0,-2.1385,-2.0556,-2.0556,-2.0445,-2.0274,-2.043,-2.0508,-2.0469,-2.0313,-1.9844,-1.9271,-1.9112,-1.9033,-1.8895,-1.8233,-1.7991,-1.7991,-1.7951,-1.7829,-1.7732,-1.787,-1.7829,-1.7732,-1.7951,-1.7991,-1.7991,-1.7991,-1.8031,-1.8193,-1.8571,-1.8571,-1.8377,-1.7896,-1.6881,0.0,0.0,0.0,0.0,0.0,0.0,0.0,0.0,0.0,0.0,0.0,0.0,0.0,0.0,0.0,0.0,0.0,0.0,0.0,0.0,0.0,-0.3783,-0.3528,0.0,-0.3123,0.0,-0.3173,-0.3173,-0.3162,-0.3176,-0.3154,-0.3109,-0.3109,-0.3109,-0.3114,-0.316,-0.3181,-0.3181,-0.3181,-0.3181,-0.3181,-0.3181,-0.3181,-0.3181,0.0,0.0,0.0,0.0,0.0,0.0,-2.5999,-2.5875,-2.5668,-2.5145,-2.4712,-2.4464,-2.4464,-2.4507,-2.4673,-2.5086,-2.5127,-2.5544,-2.648,-2.6044,-2.573,-2.5813,-2.5357,-2.4881,-2.4426,-2.466,-2.4808,0.0,0.0,-2.5522,0.0,0.0,0.0,0.0,0.0,0.0,0.0,-2.0642,-1.9773,-1.9427,-1.9427,-1.9448,-1.949,-2.0235,-2.0508,-2.0391,-1.9687,-1.9371,-1.9173,-1.8393,-1.8112,-1.8112,-1.8031,-1.7991,-1.7951,-1.7789,-1.7691,-1.7691,-1.7732,-1.7691,-1.7732,-1.7951,-1.7991,-1.7991,-1.7991,-1.8193,-1.8393,-1.8434,-1.8714,-1.874,-1.8162,-1.7275,-1.6148,0.0,0.0,0.0,0.0,0.0,0.0,0.0,0.0,0.0,0.0,-1.1087,0.0,0.0,0.0,0.0,0.0,0.0,0.0,-0.5625,0.0,-0.4479,-0.3229,-0.2977,-0.2952,-0.3101,-0.3154,-0.3152,-0.3101,-0.3154,-0.3179,-0.3171,-0.3171,-0.3171,-0.3171,-0.3179,-0.3181,-0.3181,-0.3181,-0.3181,-0.3181,-0.3181,-0.3181,-0.3181,0.0,0.0,0.0,0.0,0.0,0.0,0.0,-2.6107,-2.5813,-2.5647,-2.5233,-2.4797,-2.4528,-2.4507,-2.4693,-2.5148,-2.4941,-2.5192,-2.6148,-2.5482,-2.5213,-2.5482,-2.5024,-2.4693,-2.4507,-2.4493,-2.4472,0.0,0.0,0.0,0.0,0.0,0.0,0.0,0.0,-2.207,-2.1332,-2.0083,-1.9191,-1.8531,-1.8597,-1.8586,-1.8554,-1.8895,-1.9015,-1.8975,-1.8634,-1.8514,-1.8474,-1.8112,-1.7991,-1.7991,-1.7991,-1.7991,-1.7991,-1.791,-1.7789,-1.7691,-1.7691,-1.7691,-1.7732,-1.7789,-1.791,-1.7991,-1.7991,-1.8193,-1.8434,-1.8571,-1.8873,-1.9109,-1.8851,-1.7878,-1.664,0.0,0.0,0.0,0.0,0.0,0.0,0.0,0.0,0.0,0.0,0.0,0.0,0.0,0.0,0.0,0.0,0.0,0.0,-0.5708,0.0,-0.3983,-0.2725,-0.2775,-0.2816,-0.2944,-0.3118,-0.3168,-0.3144,-0.3168,-0.3181,-0.3181,-0.3181,-0.3181,-0.3181,-0.3181,-0.3181,-0.3181,-0.3181,-0.3181,-0.3181,-0.3181,-0.3181,-0.3181,-2.8131,0.0,-2.8752,0.0,-2.7986,-2.7986,-2.6791,-2.6459,-2.6144,-2.5751,-2.5544,-2.5254,-2.4755,-2.4693,-2.4941,-2.5585,-2.5316,-2.5399,-2.6041,-2.5357,-2.4983,-2.5189,-2.4735,0.0,-2.4507,-2.443,-2.4388,-2.4282,-2.4893,0.0,0.0,0.0,0.0,0.0,-2.2473,-2.1444,-2.0495,-1.9567,-1.8804,-1.8226,-1.8196,-1.8178,-1.8145,-1.8042,-1.7991,-1.7991,-1.7991,-1.7991,-1.7991,-1.7991,-1.7991,-1.7991,-1.7991,-1.7991,-1.7991,-1.7991,-1.787,-1.7691,-1.7789,-1.7708,-1.7627,-1.7749,-1.787,-1.791,-1.7991,-1.8233,-1.8571,-1.8812,-1.9073,-1.9192,-1.9112,-1.8278,-1.7141,-1.5831,0.0,0.0,0.0,0.0,0.0,0.0,0.0,-1.1079,-1.114,0.0,0.0,0.0,0.0,0.0,0.0,0.0,0.0,0.0,0.0,0.0,0.0,-0.2675,-0.2775,-0.2927,-0.3128,-0.3181,-0.3181,-0.3181,-0.3181,-0.3181,-0.3181,-0.3181,-0.3181,-0.3181,-0.3181,-0.3181,-0.3181,-0.3181,-0.3181,-0.3181,-0.3232,-0.3282,-2.8607,-2.8607,-2.8483,-2.8007,-2.7924,-2.7614,-2.6703,-2.6998,-2.6765,-2.5375,-2.5606,-2.5709,-2.523,-2.5189,-2.5585,-2.6521,-2.6604,-2.6604,-2.6604,-2.6169,-2.5668,0.0,0.0,-2.4507,-2.4507,-2.4786,-2.4767,-2.4489,0.0,0.0,-2.4129,0.0,-2.3805,-2.297,-2.195,-2.0851,-1.9664,-1.8784,-1.8543,-1.8741,-1.8372,-1.8371,-1.8545,-1.8128,-1.7991,-1.7991,-1.7991,-1.7991,-1.7991,-1.7991,-1.7991,-1.7991,-1.7991,-1.7991,-1.7991,-1.7991,-1.787,-1.7749,-1.7951,-1.7725,-1.7522,-1.791,-1.787,-1.7749,-1.7951,-1.8371,-1.8812,-1.9231,-1.9152,-1.8931,-1.8732,-1.8331,-1.7663,-1.6553,0.0,0.0,0.0,0.0,0.0,0.0,-1.1434,-1.1303,-1.1413,0.0,0.0,0.0,0.0,0.0,0.0,0.0,0.0,-0.6667,-0.5948,0.0,-0.3232,-0.2675,-0.2675,-0.3181,-0.3181,-0.3181,-0.3181,-0.3181,-0.3181,-0.3181,-0.3181,-0.3181,-0.3181,-0.3181,-0.3181,-0.3181,-0.3181,-0.3181,-0.3181,-0.3181,-0.3383,-0.3534,-2.8607,-2.8876,-2.8835,-2.8069,-2.8193,-2.809,-2.7226,-2.6687,-2.6165,-2.573,-2.5254,-2.4983,-2.5168,-2.5189,-2.5585,0.0,-2.6335,-2.6148,0.0,-2.5689,-2.5189,-2.4735,-2.4569,-2.4507,-2.4507,-2.4572,-2.4534,-2.4282,0.0,0.0,0.0,-2.3804,-2.31,-2.2095,-2.1535,-2.0795,-1.9851,-1.9016,-1.8732,-1.8792,-1.8969,-1.8845,-1.8596,-1.8751,-1.8494,-1.8025,-1.8323,-1.8213,-1.7991,-1.7991,-1.7991,-1.7991,-1.7991,-1.7991,-1.7991,-1.7991,-1.7951,-1.787,-1.7829,-1.7708,-1.7587,-1.7587,-1.7668,-1.7732,-1.7951,-1.8474,-1.8953,-1.9271,-1.9033,-1.8772,-1.8692,-1.8089,-1.7253,-1.6303,-1.4936,0.0,0.0,0.0,0.0,0.0,0.0,-1.1123,0.0,-1.1149,0.0,0.0,0.0,0.0,0.0,0.0,0.0,0.0,-0.6203,0.0,-0.2672,-0.2675,-0.2675,-0.2675,-0.3027,-0.3181,-0.3181,-0.3181,-0.3181,-0.3181,-0.3181,-0.3181,-0.3181,-0.3181,-0.3181,-0.3181,-0.3181,-0.3181,-0.3181,-0.3181,-0.3232,-0.3332,-2.9145,-2.9373,-2.9332,-2.8566,-2.8545,-2.8359,-2.7634,-2.6724,-2.6127,-2.5896,-2.5254,-2.4921,-2.542,-2.5482,0.0,-2.6542,-2.6501,-2.6376,-2.6144,-2.5875,-2.5461,-2.4776,-2.4755,-2.4673,-2.4507,0.0,0.0,-2.4053,-2.4274,-2.3998,-2.3213,-2.2966,-2.2305,-2.1254,-2.1183,-2.0662,-1.9835,-1.9326,-1.9167,-1.9211,-1.9339,-1.9218,-1.9025,-1.9127,-1.8828,-1.8328,-1.8591,-1.8439,-1.8136,-1.8083,-1.8093,-1.8119,-1.8053,-1.8053,-1.8057,-1.8002,-1.7991,-1.7951,-1.787,-1.7708,-1.7587,-1.7546,-1.7546,-1.7708,-1.817,-1.8652,-1.8993,-1.9073,-1.8891,-1.8624,-1.8441,-1.7968,-1.7383,-1.6786,-1.5262,-1.3991,-1.3514,0.0,0.0,0.0,0.0,0.0,0.0,-1.1261,0.0,0.0,0.0,0.0,0.0,0.0,0.0,-0.6891,-0.623,0.0,-0.2725,-0.2775,-0.2775,-0.2725,-0.3027,-0.3181,-0.3181,-0.3181,-0.3181,-0.3181,-0.3181,-0.3181,-0.3181,-0.3181,-0.3181,-0.3181,-0.3181,-0.3181,-0.3181,-0.3181,-0.3282,-0.3332,-2.9911,-2.9932,-2.9808,0.0,-2.8918,0.0,-2.8028,-2.7179,-2.6459,-2.5937,-2.5523,-2.542,-2.5792,-2.5896,-2.6082,-2.6429,0.0,0.0,0.0,-2.647,-2.6032,-2.4992,-2.4995,-2.4854,-2.4421,-2.4464,-2.4272,-2.38,-2.2824,-2.2116,-2.1684,-2.1901,-2.1472,-2.0578,-2.0891,-2.0484,-1.9625,-1.9608,-1.9745,-1.9849,-1.9586,-1.9584,-1.9665,-1.9384,-1.9084,-1.8835,-1.8868,-1.8662,-1.8407,-1.8288,-1.8303,-1.8341,-1.8117,-1.811,-1.8188,-1.8063,-1.8025,-1.8008,-1.8025,-1.7742,-1.7465,-1.7651,-1.7587,-1.7684,-1.8491,-1.8851,-1.8971,-1.8732,-1.8727,-1.8528,-1.8004,-1.7877,-1.7839,-1.7759,-1.5919,-1.4479,-1.4536,0.0,0.0,0.0,0.0,0.0,0.0,-1.1671,-1.1596,0.0,0.0,0.0,0.0,0.0,-0.9437,-0.6463,-0.6223,-0.5231,-0.3279,-0.3078,-0.3027,-0.3181,-0.3181,-0.3181,-0.3181,-0.3181,-0.3181,-0.3181,-0.3181,-0.3181,-0.3181,-0.3181,-0.3181,-0.3181,-0.3181,-0.3181,-0.3181,-0.3181,-0.3383,-0.3534,0.0,0.0,-2.9435,-2.9332,-2.8918,-2.8566,-2.8462,-2.7386,-2.6459,-2.5937,-2.5792,-2.5647,-2.542,-2.5999,-2.608,-2.5079,-2.6411,-2.6627,-2.5119,-2.5013,-2.4251,-2.2593,-2.3218,-2.3573,-2.341,-2.4143,-2.4272,-2.38,-2.2353,-2.1644,-2.1727,-2.1776,-2.1256,-2.0407,-2.0863,-2.0625,-1.982,-1.9732,-1.9766,-1.9928,-2.0053,-1.9939,-1.9717,-1.9949,-1.9675,-1.9127,-1.9417,-1.9157,-1.8689,-1.8691,-1.8519,-1.838,-1.8344,-1.8344,-1.8344,-1.8188,-1.8091,-1.8019,-1.8127,-1.7927,-1.7627,-1.7691,-1.7951,-1.825,-1.8612,-1.8971,-1.9112,-1.8772,-1.8679,-1.8494,-1.8012,-1.7691,-1.751,-1.7501,-1.566,-1.4213,-1.4004,-1.2348,0.0,0.0,-1.1207,-1.1283,-1.138,-1.1391,-1.1465,0.0,0.0,0.0,0.0,-1.1093,-0.9985,-0.8259,-0.775,-0.6426,-0.4128,-0.4232,-0.393,-0.3181,-0.3181,-0.3181,-0.3181,-0.3181,-0.3181,-0.3181,-0.3181,-0.3181,-0.3181,-0.3181,-0.3181,-0.3181,-0.3181,-0.3181,-0.3181,-0.3181,-0.3232,-0.3282,-2.8711,-2.898,-2.9311,-2.9311,-2.8676,-2.8076,-2.7925,-2.6428,-2.5413,-2.549,-2.5133,-2.4871,-2.4896,-2.5118,-2.4894,-2.3886,-2.535,-2.5637,-2.3924,-2.3839,-2.3277,-2.2097,-2.2509,-2.2726,-2.2604,-2.3105,-2.3149,-2.2711,-2.1472,-2.0952,-2.1042,-2.1042,-2.0772,-2.032,-2.0606,-2.049,-2.0093,-1.9996,-2.0013,-2.011,-2.0246,-2.0172,-1.9973,-2.0087,-1.9855,-1.9533,-1.962,-1.9418,-1.9146,-1.9094,-1.9012,-1.8919,-1.8789,-1.8702,-1.8671,-1.8603,-1.8339,-1.8134,-1.8154,-1.7987,-1.7846,-1.7996,-1.8124,-1.8285,-1.858,-1.8899,-1.898,-1.8428,-1.843,-1.8422,-1.8148,-1.7846,-1.7681,-1.7881,-1.5849,-1.4244,-1.4199,-1.237,0.0,-1.1305,-1.1354,-1.1421,-1.1661,-1.1671,-1.169,-1.1706,0.0,0.0,-1.1771,-1.1483,-1.0542,-0.8852,-0.8266,-0.6874,-0.458,-0.4232,-0.3783,-0.3181,-0.3181,-0.3181,-0.3181,-0.3181,-0.3181,-0.3181,-0.3181,-0.3181,-0.3181,-0.3181,-0.3181,-0.3181,-0.3181,-0.3181,-0.3181,-0.3181,-0.3181,-0.3181,-2.8711,-2.898,-2.9311,-2.9311,-2.8284,-2.7383,-2.7031,-2.5264,-2.4147,-2.4698,-2.4268,-2.4004,-2.4314,-2.416,-2.3698,-2.2868,-2.3871,-2.3966,-2.2673,-2.2561,-2.2333,-2.1769,-2.1889,-2.1907,-2.1784,-2.1765,-2.1606,-2.1266,-2.0546,-2.0246,-2.0292,-2.0246,-2.0246,-2.0292,-2.0246,-2.0246,-2.0292,-2.0292,-2.0292,-2.0246,-2.0246,-2.0201,-2.0155,-1.9928,-1.9882,-1.9882,-1.9716,-1.9625,-1.9621,-1.953,-1.9541,-1.9571,-1.9336,-1.9161,-1.9011,-1.9011,-1.8622,-1.8178,-1.8262,-1.8145,-1.8051,-1.8433,-1.8347,-1.8247,-1.8596,-1.8849,-1.8807,-1.8112,-1.8249,-1.842,-1.8284,-1.8081,-1.7994,-1.8195,-1.6016,-1.4309,-1.4364,0.0,-1.0955,-1.1517,-1.1539,-1.1653,-1.2073,-1.2094,-1.2013,-1.1826,-1.2156,-1.2283,-1.2136,-1.2024,-1.113,-0.9353,-0.8662,-0.7273,-0.5081,-0.3984,-0.338,-0.3181,-0.3181,-0.3181,-0.3181,-0.3181,-0.3181,-0.3181,-0.3181,-0.3181,-0.3181,-0.3181,-0.3181,-0.3181,-0.3181,-0.3181,-0.3181,-0.3181,-0.3181,-0.3181,-2.8711,-2.898,-2.9311,-2.9311,-2.8095,-2.7051,-2.7043,-2.5314,-2.3999,-2.3673,-2.466,-2.4919,-2.3706,-2.4392,-2.4098,-2.193,-2.1649,-2.1316,-2.0687,-2.064,-2.0069,-1.8814,-1.955,-2.0201,-2.0799,-2.0817,-2.0817,-2.0727,-2.0048,-1.9928,-2.0292,-1.9866,-1.9911,-2.0292,-1.9882,-1.9928,-2.0292,-2.0292,-2.0155,-1.9973,-1.9973,-1.9853,-1.9716,-1.9671,-1.9762,-1.9882,-1.9837,-1.9837,-1.9837,-1.9815,-1.9712,-1.9608,-1.9538,-1.9356,-1.916,-1.916,-1.8598,-1.8011,-1.8411,-1.8447,-1.839,-1.8689,-1.882,-1.8948,-1.9016,-1.9187,-1.9144,-1.846,-1.8627,-1.873,-1.8079,-1.7995,-1.7794,-1.6998,-1.5425,-1.3936,-1.2974,0.0,-1.143,-1.114,-1.1626,-1.2005,-1.2094,-1.2094,-1.2134,-1.2292,-1.2157,-1.2263,-1.2646,-1.2009,-1.1639,-1.1531,-1.0551,-0.8768,-0.6176,-0.5081,-0.4085,-0.3181,-0.3181,-0.3181,-0.3181,-0.3181,-0.3181,-0.3181,-0.3181,-0.3181,-0.3181,-0.3181,-0.3181,-0.3181,-0.3181,-0.3181,-0.3181,-0.3181,-0.3181,-0.3181,-2.8711,-2.8773,-2.8938,-2.8938,-2.7345,-2.6007,-2.5831,-2.4005,-2.2723,-2.2892,-2.3834,-2.3888,-2.2376,-2.2985,-2.2571,-2.0117,-1.97,-1.9319,-1.866,-1.8894,-1.8645,-1.7714,-1.8102,-1.8611,-1.9225,-1.95,-1.9774,-2.0048,-1.9455,-1.9409,-1.9928,-1.9409,-1.9288,-1.9517,-1.9546,-1.9729,-1.9911,-1.9911,-1.9837,-1.97,-1.9425,-1.9242,-1.9166,-1.9166,-1.9333,-1.9517,-1.9379,-1.9425,-1.9563,-1.97,-1.97,-1.9608,-1.9716,-1.9517,-1.918,-1.9012,-1.8482,-1.7899,-1.7989,-1.8033,-1.8104,-1.8552,-1.8578,-1.8523,-1.8457,-1.8534,-1.849,-1.8181,-1.8335,-1.8452,-1.8285,-1.8041,-1.7621,-1.673,-1.5238,0.0,0.0,-1.2153,-1.1549,-1.1739,-1.2066,-1.2343,-1.2462,-1.2483,-1.2479,-1.2406,-1.2406,-1.2459,-1.2565,-1.237,-1.2175,-1.2029,-1.0395,-0.881,-0.7273,-0.5632,-0.4533,-0.4031,-0.3481,-0.3181,-0.3181,-0.3181,-0.3181,-0.3181,-0.3181,-0.3181,-0.3181,-0.3181,-0.3181,-0.3181,-0.3181,-0.3181,-0.3181,-0.3181,-0.3181,-0.3181,-2.8835,-2.8773,-2.8731,-2.8628,-2.68,-2.5161,-2.4688,-2.2585,-2.1315,-2.186,-2.2542,-2.2498,-2.1064,-2.1519,-2.1002,-1.8824,-1.8505,-1.8085,-1.7355,-1.7633,-1.7648,-1.7153,-1.7372,-1.7606,-1.79,-1.8411,-1.8827,-1.9225,-1.8827,-1.892,-1.9409,-1.8874,-1.8689,-1.8827,-1.9134,-1.9317,-1.9409,-1.9409,-1.9363,-1.9317,-1.892,-1.8689,-1.8643,-1.8643,-1.8781,-1.8996,-1.8781,-1.8874,-1.915,-1.9409,-1.9455,-1.9455,-1.9654,-1.9425,-1.9012,-1.8781,-1.8271,-1.775,-1.7599,-1.7626,-1.7833,-1.8363,-1.8369,-1.8185,-1.8051,-1.8068,-1.8114,-1.8068,-1.8149,-1.8319,-1.8473,-1.8148,-1.7527,-1.648,0.0,0.0,0.0,-1.2262,-1.1764,-1.2255,-1.2432,-1.2565,-1.2797,-1.2807,-1.271,-1.2516,-1.2662,-1.271,-1.2516,-1.271,-1.2565,-1.2029,-1.0141,-0.881,-0.8024,-0.6381,-0.5281,-0.4784,-0.3984,-0.343,-0.3181,-0.3181,-0.3181,-0.3181,-0.3181,-0.3181,-0.3181,-0.3181,-0.3181,-0.3181,-0.3181,-0.3181,-0.3181,-0.3181,-0.3181,-0.3181,-2.927,-2.9249,-2.9125,-2.869,-2.6851,-2.5161,-2.4143,-2.1821,-2.022,-2.0292,-2.1167,-2.1389,-2.0297,-2.0829,-2.0655,-1.9079,-1.8508,-1.7935,-1.7323,-1.7175,-1.6978,-1.665,-1.7527,-1.7854,-1.7372,-1.79,-1.8179,-1.8226,-1.8179,-1.8411,-1.8827,-1.8365,-1.8365,-1.8781,-1.8411,-1.8458,-1.8874,-1.8874,-1.8735,-1.8581,-1.8535,-1.8365,-1.8133,-1.8133,-1.8319,-1.8535,-1.8535,-1.8643,-1.8874,-1.915,-1.9058,-1.892,-1.9196,-1.892,-1.8535,-1.8535,-1.7963,-1.739,-1.7638,-1.7716,-1.784,-1.8396,-1.8503,-1.8472,-1.8457,-1.8596,-1.8703,-1.8488,-1.8581,-1.8689,-1.852,-1.8489,-1.7807,-1.5818,0.0,0.0,-1.2468,-1.2262,-1.2255,-1.2136,-1.2523,-1.2797,-1.2807,-1.2807,-1.2807,-1.2759,-1.2807,-1.2807,-1.2759,-1.2807,-1.2565,-1.2029,-1.0895,-0.9567,-0.8024,-0.7819,-0.6775,-0.4784,-0.4734,-0.4182,-0.3181,-0.3181,-0.3181,-0.3181,-0.3181,-0.3181,-0.3181,-0.3181,-0.3181,-0.3181,-0.3181,-0.3181,-0.3181,-0.3181,-0.3181,-0.3181,-2.9352,-2.9311,-2.9166,-2.869,-2.7211,-2.5503,-2.3785,-2.2165,-2.0826,-2.0189,-2.0708,-2.0759,-1.9724,-2.0102,-1.9872,-1.8462,-1.8131,-1.7775,-1.715,-1.7015,-1.6704,-1.613,-1.6636,-1.6918,-1.6871,-1.7246,-1.7621,-1.8087,-1.7746,-1.79,-1.8365,-1.7839,-1.7699,-1.7885,-1.804,-1.8179,-1.8365,-1.8365,-1.8319,-1.821,-1.7885,-1.7699,-1.7606,-1.7807,-1.79,-1.7994,-1.7994,-1.804,-1.8133,-1.8411,-1.8458,-1.8411,-1.8673,-1.8442,-1.7885,-1.7246,-1.6965,-1.6918,-1.7012,-1.7246,-1.7527,-1.7699,-1.79,-1.7994,-1.7994,-1.804,-1.8195,-1.8442,-1.8427,-1.8365,-1.8473,-1.8381,-1.7621,-1.5724,0.0,-1.4435,-1.2785,-1.2463,-1.2436,-1.2496,-1.2705,-1.2807,-1.2807,-1.2807,-1.2807,-1.2807,-1.263,-1.2608,-1.2807,-1.2807,-1.2419,-1.1541,-1.11,-1.0453,-0.9517,-0.852,-0.7571,-0.6775,-0.5432,-0.4583,-0.4182,-0.3481,-0.3181,-0.3181,-0.3181,-0.3181,-0.3181,-0.3181,-0.3181,-0.3181,-0.3181,-0.3181,-0.3181,-0.3181,-0.3181,-0.3181,-2.958,-2.9518,-2.9332,-2.8711,-2.7071,-2.5189,-2.332,-2.1659,-2.0416,-1.9657,-1.9849,-1.9782,-1.9101,-1.9294,-1.9045,-1.7988,-1.7839,-1.7631,-1.7183,-1.6898,-1.6477,-1.5845,-1.6082,-1.6319,-1.6588,-1.6871,-1.7308,-1.7854,-1.7466,-1.7466,-1.7854,-1.7466,-1.7279,-1.7326,-1.7667,-1.7854,-1.7854,-1.7854,-1.7854,-1.7807,-1.7466,-1.7279,-1.7326,-1.7481,-1.7574,-1.7574,-1.7574,-1.7574,-1.7621,-1.79,-1.79,-1.79,-1.8071,-1.7792,-1.7185,-1.6447,-1.6461,-1.673,-1.6636,-1.6951,-1.7279,-1.7279,-1.7434,-1.7574,-1.7667,-1.7776,-1.7962,-1.8427,-1.8427,-1.8365,-1.8566,-1.8458,-1.7699,-1.5805,-1.5378,-1.4663,-1.305,-1.2613,-1.2565,-1.2662,-1.2759,-1.2759,-1.2662,-1.2759,-1.2807,-1.2807,-1.2619,-1.2597,-1.2807,-1.2807,-1.237,-1.1492,-1.1296,-1.0953,-1.0413,-0.9122,-0.8322,-0.7975,-0.6526,-0.5432,-0.4784,-0.4034,-0.3531,-0.3181,-0.3181,-0.3181,-0.3181,-0.3181,-0.3181,-0.3181,-0.3181,-0.3181,-0.3181,-0.3181,-0.3181,-0.3181,-2.9994,-2.9994,-2.9704,-2.8773,-2.6404,-2.4136,-2.2653,-2.0128,-1.8422,-1.8422,-1.8422,-1.8422,-1.8422,-1.8422,-1.8244,-1.7937,-1.7721,-1.7587,-1.7491,-1.6728,-1.6139,-1.5798,-1.6082,-1.6319,-1.6588,-1.6885,-1.712,-1.7279,-1.7279,-1.7279,-1.7279,-1.7279,-1.7279,-1.7279,-1.7279,-1.7279,-1.7279,-1.7279,-1.7279,-1.7279,-1.7279,-1.7279,-1.7279,-1.7279,-1.7279,-1.7279,-1.7279,-1.7279,-1.7326,-1.7621,-1.7527,-1.7279,-1.7279,-1.6951,-1.6541,-1.6272,-1.6602,-1.6932,-1.6683,-1.6951,-1.7279,-1.7279,-1.7279,-1.7372,-1.7621,-1.79,-1.8179,-1.8427,-1.8658,-1.8781,-1.8781,-1.8781,-1.8118,-1.6123,-1.5792,-1.5092,-1.3098,-1.2807,-1.271,-1.2419,-1.2613,-1.271,-1.2419,-1.2613,-1.2807,-1.2807,-1.2807,-1.2807,-1.2807,-1.2807,-1.2565,-1.2029,-1.1492,-1.0953,-1.0413,-0.9871,-0.9072,-0.8024,-0.8024,-0.6874,-0.4834,-0.4784,-0.4232,-0.3181,-0.3181,-0.3181,-0.3181,-0.3181,-0.3181,-0.3181,-0.3181,-0.3181,-0.3181,-0.3181,-0.3181,-0.3181,-2.958,-2.9766,-2.9704,-2.8773,-2.7632,-2.5831,-2.2854,-2.144,-2.0143,-1.8617,-1.8055,-1.8003,-1.837,-1.8055,-1.7804,-1.7723,-1.7634,-1.7526,-1.7289,-1.6652,-1.6281,-1.6139,-1.5986,-1.6021,-1.6305,-1.6588,-1.6824,-1.712,-1.7246,-1.7279,-1.7279,-1.7279,-1.7279,-1.7279,-1.7279,-1.7279,-1.7279,-1.7279,-1.7279,-1.7279,-1.7279,-1.7279,-1.7279,-1.7279,-1.7279,-1.7279,-1.7279,-1.7279,-1.7326,-1.7387,-1.7246,-1.7059,-1.6871,-1.6824,-1.6838,-1.6541,-1.673,-1.6979,-1.6885,-1.7106,-1.7279,-1.7279,-1.7279,-1.7419,-1.79,-1.804,-1.8226,-1.8643,-1.8735,-1.8781,-1.8781,-1.821,-1.7296,-1.6028,-1.5188,-1.4292,-1.3001,-1.2807,-1.2759,-1.271,-1.2759,-1.2759,-1.271,-1.2759,-1.2807,-1.2807,-1.2807,-1.2743,-1.2533,-1.2528,-1.237,-1.2029,-1.1296,-1.0757,-1.0413,-0.9871,-0.9426,-0.9122,-0.8372,-0.7273,-0.5877,-0.5131,-0.4232,-0.3181,-0.3181,-0.3181,-0.3181,-0.3181,-0.3181,-0.3181,-0.3181,-0.3181,-0.3181,-0.3181,-0.3181,-0.3181,-2.9394,-2.9684,-2.9653,-2.8471,-2.7157,-2.5303,-2.2552,-2.0982,-1.9627,-1.8251,-1.7793,-1.774,-1.8055,-1.7793,-1.7582,-1.7582,-1.7582,-1.7514,-1.7219,-1.6871,-1.6563,-1.6335,-1.6099,-1.6048,-1.6177,-1.6447,-1.673,-1.6979,-1.72,-1.7279,-1.7279,-1.7279,-1.7279,-1.7279,-1.7279,-1.7279,-1.7279,-1.7279,-1.7279,-1.7279,-1.7279,-1.7279,-1.7279,-1.7279,-1.7279,-1.7279,-1.7279,-1.7232,-1.72,-1.7279,-1.7153,-1.6932,-1.6683,-1.6636,-1.665,-1.6494,-1.6636,-1.6871,-1.6979,-1.7153,-1.7279,-1.7279,-1.7279,-1.7419,-1.7994,-1.8087,-1.8226,-1.8689,-1.8735,-1.8596,-1.8257,-1.7638,-1.6687,-1.527,-1.4627,-1.3859,-1.2662,-1.2662,-1.2662,-1.237,-1.2516,-1.2613,-1.2467,-1.2467,-1.2516,-1.2613,-1.2516,-1.2463,-1.2411,-1.2297,-1.2029,-1.1541,-1.1051,-1.056,-1.0068,-0.9673,-0.9484,-0.9575,-0.8924,-0.8074,-0.6974,-0.5927,-0.483,-0.3833,-0.338,-0.3181,-0.3181,-0.3181,-0.3181,-0.3181,-0.3181,-0.3181,-0.3181,-0.3181,-0.3181,-0.3181,-2.9332,-2.958,-2.9425,-2.8006,-2.568,-2.3479,-2.1962,-1.9524,-1.7845,-1.7635,-1.7582,-1.7582,-1.7582,-1.7582,-1.7582,-1.7582,-1.7582,-1.7527,-1.7259,-1.7219,-1.6965,-1.6429,-1.6326,-1.6324,-1.6218,-1.6461,-1.6683,-1.6979,-1.7153,-1.7279,-1.7279,-1.7279,-1.7279,-1.7279,-1.7279,-1.7279,-1.7279,-1.7279,-1.7279,-1.7279,-1.7279,-1.7279,-1.7279,-1.7279,-1.7279,-1.7279,-1.7279,-1.72,-1.7073,-1.7246,-1.7153,-1.6979,-1.673,-1.6447,-1.6272,-1.6272,-1.6447,-1.6683,-1.6932,-1.7153,-1.7279,-1.7279,-1.7326,-1.7466,-1.7994,-1.8087,-1.8226,-1.8689,-1.8612,-1.8241,-1.739,-1.6969,-1.6136,-1.4184,-1.4052,-1.3667,-1.2273,-1.2467,-1.2467,-1.1785,-1.2078,-1.2273,-1.2078,-1.2078,-1.2175,-1.2419,-1.2175,-1.2127,-1.237,-1.2127,-1.1639,-1.0904,-1.0806,-1.0413,-0.9673,-0.9385,-0.9335,-0.9575,-0.9575,-0.9023,-0.7925,-0.6974,-0.5977,-0.4885,-0.3833,-0.333,-0.333,-0.3232,-0.3181,-0.3181,-0.3181,-0.3181,-0.3181,-0.3181,-0.3176,-0.3171,-2.8856,-2.8835,-2.8581,-2.7501,-2.6515,-2.49,-2.2064,-2.0794,-1.9539,-1.7845,-1.7582,-1.7582,-1.7582,-1.7582,-1.7582,-1.7582,-1.7582,-1.7555,-1.7541,-1.7326,-1.7139,-1.7018,-1.674,-1.6522,-1.6289,-1.6286,-1.6414,-1.6683,-1.6932,-1.7153,-1.7279,-1.7279,-1.7279,-1.7279,-1.7279,-1.7279,-1.7279,-1.7279,-1.7279,-1.7279,-1.7279,-1.7279,-1.7279,-1.7279,-1.7279,-1.7279,-1.7279,-1.7279,-1.7246,-1.7106,-1.7153,-1.72,-1.6965,-1.6885,-1.6838,-1.6838,-1.6885,-1.6932,-1.6979,-1.7153,-1.7279,-1.7279,-1.7481,-1.7714,-1.804,-1.8087,-1.8179,-1.852,-1.852,-1.8148,-1.6983,-1.6183,-1.533,-1.41,-1.3474,-1.3001,-1.2662,-1.2565,-1.2419,-1.2273,-1.2127,-1.2175,-1.2322,-1.2516,-1.2662,-1.271,-1.2467,-1.2322,-1.2419,-1.1932,-1.159,-1.1443,-1.0806,-1.0413,-1.0216,-0.9525,-0.9236,-0.9286,-0.9286,-0.8733,-0.7677,-0.767,-0.7074,-0.5977,-0.4931,-0.4433,-0.4383,-0.3531,-0.3181,-0.3181,-0.3181,-0.3181,-0.3181,-0.3181,-0.3152,-0.3103,-2.838,-2.8263,-2.7914,-2.6993,-2.5929,-2.4354,-2.1658,-2.0605,-1.9487,-1.7845,-1.7582,-1.7582,-1.7582,-1.7582,-1.7582,-1.7582,-1.7582,-1.7582,-1.7582,-1.7487,-1.734,-1.7206,-1.7058,-1.678,-1.6486,-1.6486,-1.6402,-1.64,-1.6933,-1.717,-1.7153,-1.7246,-1.7279,-1.7279,-1.7279,-1.7279,-1.7279,-1.7279,-1.7279,-1.7279,-1.7279,-1.7279,-1.7279,-1.7279,-1.7246,-1.7153,-1.7279,-1.7279,-1.7232,-1.6918,-1.7012,-1.7232,-1.6918,-1.6885,-1.6979,-1.6979,-1.6979,-1.7026,-1.7106,-1.7246,-1.7279,-1.7279,-1.7434,-1.7621,-1.7994,-1.8179,-1.8381,-1.8612,-1.8179,-1.7372,-1.6264,-1.5175,-1.4136,-1.299,-1.271,-1.2467,-1.2078,-1.2273,-1.2273,-1.1883,-1.1834,-1.1883,-1.198,-1.237,-1.2613,-1.2613,-1.237,-1.2273,-1.237,-1.1785,-1.1345,-1.1247,-1.056,-1.0167,-1.0019,-0.9327,-0.9031,-0.9031,-0.9137,-0.8882,-0.8329,-0.8124,-0.767,-0.7123,-0.6027,-0.5281,-0.4734,-0.4185,-0.3682,-0.3181,-0.3181,-0.3181,-0.3181,-0.3181,-0.316,-0.3125,-2.7903,-2.7667,-2.7312,-2.6438,-2.5114,-2.3472,-2.1487,-2.021,-1.9072,-1.7989,-1.7898,-1.7898,-1.7898,-1.7898,-1.7793,-1.7635,-1.7582,-1.7582,-1.7582,-1.7582,-1.7475,-1.7286,-1.7273,-1.7139,-1.678,-1.6834,-1.6666,-1.6327,-1.7057,-1.7318,-1.7065,-1.7272,-1.7337,-1.7279,-1.7279,-1.7279,-1.7279,-1.7279,-1.7279,-1.7279,-1.7279,-1.7279,-1.7279,-1.7279,-1.72,-1.7073,-1.7246,-1.7279,-1.7232,-1.6824,-1.6918,-1.7185,-1.6777,-1.6777,-1.6932,-1.6979,-1.6979,-1.7026,-1.72,-1.7279,-1.7279,-1.7279,-1.7326,-1.7512,-1.7994,-1.8288,-1.8473,-1.8689,-1.7746,-1.6546,-1.5447,-1.4316,-1.3076,-1.1824,-1.2029,-1.2078,-1.1443,-1.1883,-1.2029,-1.1345,-1.1443,-1.1639,-1.1688,-1.2127,-1.2419,-1.2419,-1.2175,-1.2078,-1.2175,-1.1541,-1.1002,-1.0659,-1.025,-0.9921,-0.9673,-0.9118,-0.8885,-0.8907,-0.9011,-0.9088,-0.913,-0.8528,-0.8273,-0.8223,-0.7123,-0.6176,-0.5331,-0.4935,-0.4282,-0.343,-0.3279,-0.3181,-0.3179,-0.3207,-0.3194,-0.3174,-2.7475,-2.7023,-2.6512,-2.5898,-2.5244,-2.4189,-2.2535,-2.1353,-2.0261,-1.9124,-1.8968,-1.8968,-1.8968,-1.8968,-1.8617,-1.7687,-1.7582,-1.7582,-1.7582,-1.7582,-1.7569,-1.7528,-1.7528,-1.7434,-1.7152,-1.7341,-1.7336,-1.7004,-1.7329,-1.7436,-1.7332,-1.7606,-1.7604,-1.7279,-1.7279,-1.7279,-1.7279,-1.7279,-1.7279,-1.7279,-1.7279,-1.7279,-1.7279,-1.7279,-1.7279,-1.7279,-1.7279,-1.7279,-1.7279,-1.7026,-1.6979,-1.7026,-1.6979,-1.6838,-1.6683,-1.6932,-1.6979,-1.7026,-1.7026,-1.7153,-1.7279,-1.7279,-1.7481,-1.7714,-1.804,-1.8133,-1.8226,-1.8473,-1.7652,-1.6452,-1.4984,-1.4028,-1.3076,-1.1824,-1.1883,-1.2029,-1.1932,-1.1785,-1.1688,-1.1541,-1.159,-1.1688,-1.1932,-1.2224,-1.2419,-1.2419,-1.2175,-1.1834,-1.1394,-1.1051,-1.0609,-1.0117,-1.0229,-1.0112,-0.9851,-0.9345,-0.9116,-0.9205,-0.8715,-0.8634,-0.8874,-0.9229,-0.9377,-0.9327,-0.8273,-0.772,-0.7422,-0.5582,-0.4734,-0.4483,-0.3581,-0.3181,-0.3218,-0.3112,-0.3088,-0.3033,-2.7303,-2.662,-2.5994,-2.5752,-2.502,-2.4035,-2.2736,-2.1607,-2.0467,-1.9332,-1.9176,-1.9176,-1.9176,-1.9176,-1.876,-1.7687,-1.7582,-1.7582,-1.7582,-1.7582,-1.7582,-1.7582,-1.7582,-1.7515,-1.7447,-1.7515,-1.7514,-1.7362,-1.7442,-1.7377,-1.7196,-1.7437,-1.7504,-1.7279,-1.7279,-1.7279,-1.7279,-1.7279,-1.7279,-1.7279,-1.7279,-1.7279,-1.7279,-1.7279,-1.7246,-1.7106,-1.7106,-1.7106,-1.7106,-1.6871,-1.6885,-1.6979,-1.6824,-1.6871,-1.7012,-1.7153,-1.7153,-1.7153,-1.7153,-1.7246,-1.7279,-1.7279,-1.7387,-1.7574,-1.7994,-1.8087,-1.8226,-1.8612,-1.7746,-1.6452,-1.5067,-1.4076,-1.3028,-1.1629,-1.1736,-1.1883,-1.159,-1.159,-1.1541,-1.1394,-1.1492,-1.1639,-1.1785,-1.2029,-1.2175,-1.2175,-1.2224,-1.198,-1.1443,-1.1149,-1.0806,-1.0216,-1.0004,-0.9846,-0.9738,-0.9338,-0.9071,-0.8998,-0.8693,-0.8614,-0.8765,-0.9176,-0.9385,-0.9385,-0.9031,-0.857,-0.7875,-0.6326,-0.5331,-0.4684,-0.3632,-0.3181,-0.3171,-0.3131,-0.3082,-0.3046]},{"header":{"parameterUnit":"m.s-1","parameterCategory":1,"la1":30.6,"la2":28.766,"lo1":-90.7593,"lo2":-88.6598,"dy":0.0162,"dx":0.0183,"nx":116,"ny":114,"refTime":"2024-04-03T18:00:00:Z","depth":0,"parameterNumber":3,"parameterNumberName":"V-component_of_WINDS"},"data":[0.0,0.0,0.0,0.0,0.0,0.0,0.0,0.0,0.0,0.0,0.0,0.0,0.0,0.0,0.0,0.0,0.0,0.0,0.0,0.0,0.0,0.0,0.0,0.0,0.0,0.0,0.0,0.0,0.0,0.0,0.0,0.0,0.0,0.0,0.0,0.0,0.0,0.0,0.0,0.0,0.0,0.0,0.0,0.0,0.0,0.0,0.0,0.0,0.0,0.0,0.0,0.0,0.0,0.0,0.0,0.0,0.0,0.0,0.0,0.0,0.0,0.0,0.0,0.0,0.0,0.0,0.0,0.0,0.0,0.0,0.0,0.0,0.0,0.0,0.0,0.0,0.0,0.0,0.0,0.0,0.0,0.0,0.0,0.0,0.0,0.0,0.0,0.0,0.0,0.0,0.0,0.0,0.0,0.0,0.0,0.0,0.0,0.0,0.0,0.0,0.0,0.0,0.0,0.0,0.0,0.0,0.0,0.0,0.0,0.0,0.0,0.0,0.0,0.0,0.0,0.0,0.0,0.0,0.0,0.0,0.0,0.0,0.0,0.0,0.0,0.0,0.0,0.0,0.0,0.0,0.0,0.0,0.0,0.0,0.0,0.0,0.0,0.0,0.0,0.0,0.0,0.0,0.0,0.0,0.0,0.0,0.0,0.0,0.0,0.0,0.0,0.0,0.0,0.0,0.0,0.0,0.0,0.0,0.0,0.0,0.0,0.0,0.0,0.0,0.0,0.0,0.0,0.0,0.0,0.0,0.0,0.0,0.0,0.0,0.0,0.0,0.0,0.0,0.0,0.0,0.0,0.0,0.0,0.0,0.0,0.0,0.0,0.0,0.0,0.0,0.0,0.0,0.0,0.0,0.0,0.0,0.0,0.0,0.0,0.0,0.0,0.0,0.0,0.0,0.0,0.0,0.0,0.0,0.0,0.0,0.0,0.0,0.0,0.0,0.0,0.0,0.0,0.0,0.0,0.0,0.0,0.0,0.0,0.0,0.0,0.0,0.0,0.0,0.0,0.0,0.0,0.0,0.0,0.0,0.0,0.0,0.0,0.0,0.0,0.0,0.0,0.0,0.0,0.0,0.0,0.0,0.0,0.0,0.0,0.0,0.0,0.0,0.0,0.0,0.0,0.0,0.0,0.0,0.0,0.0,0.0,0.0,0.0,0.0,0.0,0.0,0.0,0.0,0.0,0.0,0.0,0.0,0.0,0.0,0.0,0.0,0.0,0.0,0.0,0.0,0.0,0.0,0.0,0.0,0.0,0.0,0.0,0.0,0.0,0.0,0.0,0.0,0.0,0.0,0.0,0.0,0.0,0.0,0.0,0.0,0.0,0.0,0.0,0.0,0.0,0.0,0.0,0.0,0.0,0.0,0.0,0.0,0.0,0.0,0.0,0.0,0.0,0.0,0.0,0.0,0.0,0.0,0.0,0.0,0.0,0.0,0.0,0.0,0.0,0.0,0.0,0.0,0.0,0.0,0.0,0.0,0.0,0.0,0.0,0.0,0.0,0.0,0.0,0.0,0.0,0.0,0.0,0.0,0.0,0.0,0.0,0.0,0.0,0.0,0.0,0.0,0.0,0.0,0.0,0.0,0.0,0.0,0.0,0.0,0.0,0.0,0.0,0.0,0.0,0.0,0.0,0.0,0.0,0.0,0.0,0.0,0.0,0.0,0.0,0.0,0.0,0.0,0.0,0.0,0.0,0.0,0.0,0.0,0.0,0.0,0.0,0.0,0.0,0.0,0.0,0.0,0.0,0.0,0.0,0.0,0.0,0.0,0.0,0.0,0.0,0.0,0.0,0.0,0.0,0.0,0.0,0.0,0.0,0.0,0.0,0.0,0.0,0.0,0.0,0.0,0.0,0.0,0.0,0.0,0.0,0.0,0.0,0.0,0.0,0.0,0.0,0.0,0.0,0.0,0.0,0.0,0.0,0.0,0.0,0.0,0.0,0.0,0.0,0.0,0.0,0.0,0.0,0.0,0.0,0.0,0.0,0.0,0.0,0.0,0.0,0.0,0.0,0.0,0.0,0.0,0.0,0.0,0.0,0.0,0.0,0.0,0.0,0.0,0.0,0.0,0.0,0.0,0.0,0.0,0.0,0.0,0.0,0.0,0.0,0.0,0.0,0.0,0.0,0.0,0.0,0.0,0.0,0.0,0.0,0.0,0.0,0.0,0.0,0.0,0.0,0.0,0.0,0.0,0.0,0.0,0.0,0.0,0.0,0.0,0.0,0.0,0.0,0.0,0.0,0.0,0.0,0.0,0.0,0.0,0.0,0.0,0.0,0.0,0.0,0.0,0.0,0.0,0.0,0.0,0.0,0.0,0.0,0.0,0.0,0.0,0.0,0.0,0.0,0.0,0.0,0.0,0.0,0.0,0.0,0.0,0.0,0.0,0.0,0.0,0.0,0.0,0.0,0.0,0.0,0.0,0.0,0.0,0.0,0.0,0.0,0.0,0.0,0.0,0.0,0.0,0.0,0.0,0.0,0.0,0.0,0.0,0.0,0.0,0.0,0.0,0.0,0.0,0.0,0.0,0.0,0.0,0.0,0.0,0.0,0.0,0.0,0.0,0.0,0.0,0.0,0.0,0.0,0.0,0.0,0.0,0.0,0.0,0.0,0.0,0.0,0.0,0.0,0.0,0.0,0.0,0.0,0.0,0.0,0.0,0.0,0.0,0.0,0.0,0.0,0.0,0.0,0.0,0.0,0.0,0.0,0.0,0.0,0.0,0.0,0.0,0.0,0.0,0.0,0.0,0.0,0.0,0.0,0.0,0.0,0.0,0.0,0.0,0.0,0.0,0.0,0.0,0.0,0.0,0.0,0.0,0.0,0.0,0.0,0.0,0.0,0.0,0.0,0.0,0.0,0.0,0.0,0.0,0.0,0.0,0.0,0.0,0.0,0.0,0.0,0.0,0.0,0.0,0.0,0.0,0.0,0.0,0.0,0.0,0.0,0.0,0.0,0.0,0.0,0.0,0.0,0.0,0.0,0.0,0.0,0.0,0.0,0.0,0.0,0.0,0.0,0.0,0.0,0.0,0.0,0.0,0.0,0.0,0.0,0.0,0.0,0.0,0.0,0.0,0.0,0.0,0.0,0.0,0.0,0.0,0.0,0.0,0.0,0.0,0.0,0.0,0.0,0.0,0.0,0.0,0.0,0.0,0.0,0.0,0.0,0.0,0.0,0.0,0.0,0.0,0.0,0.0,0.0,0.0,0.0,0.0,0.0,0.0,0.0,0.0,0.0,0.0,0.0,0.0,0.0,0.0,0.0,0.0,0.0,0.0,0.0,0.0,0.0,0.0,0.0,0.0,0.0,0.0,0.0,0.0,0.0,0.0,0.0,0.0,0.0,0.0,0.0,0.0,0.0,0.0,0.0,0.0,0.0,0.0,0.0,0.0,0.0,0.0,0.0,0.0,0.0,0.0,0.0,0.0,0.0,0.0,0.0,0.0,0.0,0.0,0.0,0.0,0.0,0.0,0.0,0.0,0.0,0.0,0.0,0.0,0.0,0.0,0.0,0.0,0.0,0.0,0.0,0.0,0.0,0.0,0.0,0.0,0.0,0.0,0.0,0.0,0.0,0.0,0.0,0.0,0.0,0.0,0.0,0.0,0.0,0.0,0.0,0.0,0.0,0.0,0.0,0.0,0.0,0.0,0.0,0.0,0.0,0.0,0.0,0.0,0.0,0.0,0.0,0.0,0.0,0.0,0.0,0.0,0.0,0.0,0.0,0.0,0.0,0.0,0.0,0.0,0.0,0.0,0.0,0.0,0.0,0.0,0.0,0.0,0.0,0.0,0.0,0.0,0.0,0.0,0.0,0.0,0.0,0.0,0.0,0.0,0.0,0.0,0.0,0.0,0.0,0.0,0.0,0.0,0.0,0.0,0.0,0.0,0.0,0.0,0.0,0.0,0.0,0.0,0.0,0.0,0.0,0.0,0.0,0.0,0.0,0.0,0.0,0.0,0.0,0.0,0.0,0.0,0.0,0.0,0.0,0.0,0.0,0.0,0.0,0.0,0.0,0.0,0.0,0.0,0.0,0.0,0.0,0.0,0.0,0.0,0.0,0.0,0.0,0.0,0.0,0.0,0.0,0.0,0.0,0.0,0.0,0.0,0.0,0.0,0.0,0.0,0.0,0.0,0.0,0.0,0.0,0.0,0.0,0.0,0.0,0.0,0.0,0.0,0.0,0.0,0.0,0.0,0.0,0.0,0.0,0.0,0.0,0.0,0.0,0.0,0.0,0.0,0.0,0.0,0.0,0.0,0.0,0.0,0.0,0.0,0.0,0.0,0.0,0.0,0.0,0.0,0.0,0.0,0.0,0.0,0.0,0.0,0.0,0.0,0.0,0.0,0.0,0.0,0.0,0.0,0.0,0.0,0.0,0.0,0.0,0.0,0.0,0.0,0.0,0.0,0.0,0.0,0.0,0.0,0.0,0.0,0.0,0.0,0.0,0.0,0.0,0.0,0.0,0.0,0.0,0.0,0.0,0.0,0.0,0.0,0.0,0.0,0.0,0.0,0.0,0.0,0.0,0.0,0.0,0.0,0.0,0.0,0.0,0.0,0.0,0.0,0.0,0.0,0.0,0.0,0.0,0.0,0.0,0.0,0.0,0.0,0.0,0.0,0.0,0.0,0.0,0.0,0.0,0.0,0.0,0.0,0.0,0.0,0.0,0.0,0.0,0.0,0.0,0.0,0.0,0.0,0.0,0.0,0.0,0.0,0.0,0.0,0.0,0.0,0.0,0.0,0.0,0.0,0.0,0.0,0.0,0.0,0.0,0.0,0.0,0.0,0.0,0.0,0.0,0.0,0.0,0.0,0.0,0.0,0.0,0.0,0.0,0.0,0.0,0.0,0.0,0.0,0.0,0.0,0.0,0.0,0.0,0.0,0.0,0.0,0.0,0.0,0.0,0.0,0.0,0.0,0.0,0.0,0.0,0.0,0.0,0.0,0.0,0.0,0.0,0.0,0.0,0.0,0.0,0.0,0.0,0.0,0.0,0.0,0.0,0.0,0.0,0.0,0.0,0.0,0.0,0.0,0.0,0.0,0.0,0.0,0.0,0.0,0.0,0.0,0.0,0.0,0.0,0.0,0.0,0.0,0.0,0.0,0.0,0.0,0.0,0.0,0.0,0.0,0.0,0.0,0.0,0.0,0.0,0.0,0.0,0.0,0.0,0.0,0.0,0.0,0.0,0.0,0.0,0.0,0.0,0.0,0.0,0.0,0.0,0.0,0.0,0.0,0.0,0.0,0.0,0.0,0.0,0.0,0.0,0.0,0.0,0.0,0.0,0.0,0.0,0.0,0.0,0.0,0.0,0.0,0.0,0.0,0.0,0.0,0.0,0.0,0.0,0.0,0.0,0.0,0.0,0.0,0.0,0.0,0.0,0.0,0.0,0.0,0.0,0.0,0.0,0.0,0.0,0.0,0.0,0.0,0.0,0.0,0.0,0.0,0.0,0.0,0.0,0.0,0.0,0.0,0.0,0.0,0.0,0.0,0.0,0.0,0.0,0.0,0.0,0.0,0.0,0.0,0.0,0.0,0.0,0.0,0.0,0.0,0.0,0.0,0.0,0.0,0.0,0.0,0.0,0.0,0.0,0.0,0.0,0.0,0.0,0.0,0.0,0.0,0.0,0.0,0.0,0.0,0.0,0.0,0.0,0.0,0.0,0.0,0.0,0.0,0.0,0.0,0.0,0.0,0.0,0.0,0.0,0.0,0.0,0.0,0.0,0.0,0.0,0.0,0.0,0.0,0.0,0.0,0.0,0.0,0.0,0.0,0.0,0.0,0.0,0.0,0.0,0.0,0.0,0.0,0.0,0.0,0.0,0.0,0.0,0.0,0.0,0.0,0.0,0.0,0.0,0.0,0.0,0.0,0.0,0.0,0.0,0.0,0.0,0.0,0.0,0.0,0.0,0.0,0.0,0.0,0.0,0.0,0.0,0.0,0.0,0.0,0.0,0.0,0.0,0.0,0.0,0.0,0.0,0.0,0.0,0.0,0.0,0.0,0.0,0.0,0.0,0.0,0.0,0.0,0.0,0.0,0.0,0.0,0.0,0.0,0.0,0.0,0.0,0.0,0.0,0.0,2.48,0.0,0.0,0.0,0.0,0.0,0.0,0.0,0.0,0.0,0.0,0.0,0.0,0.0,0.0,0.0,0.0,0.0,0.0,0.0,0.0,0.0,0.0,0.0,0.0,3.6518,3.6893,3.7805,3.7863,3.7863,3.7863,0.0,0.0,0.0,0.0,0.0,3.7357,3.5911,3.4892,3.4369,3.4678,3.4463,3.382,3.3321,3.2393,3.1224,0.0,0.0,0.0,0.0,0.0,0.0,0.0,0.0,0.0,0.0,0.0,0.0,0.0,0.0,0.0,0.0,0.0,0.0,0.0,0.0,0.0,0.0,0.0,0.0,0.0,0.0,0.0,0.0,0.0,0.0,0.0,0.0,0.0,0.0,0.0,0.0,0.0,0.0,0.0,0.0,0.0,0.0,0.0,0.0,0.0,0.0,0.0,0.0,0.0,0.0,0.0,0.0,0.0,0.0,0.0,0.0,0.0,0.0,0.0,0.0,0.0,0.0,0.0,0.0,0.0,0.0,0.0,0.0,0.0,0.0,0.0,2.5902,0.0,0.0,0.0,0.0,0.0,0.0,0.0,0.0,0.0,0.0,0.0,0.0,0.0,0.0,0.0,0.0,0.0,0.0,0.0,0.0,0.0,3.5276,3.65,3.6646,3.7174,3.8465,3.8554,3.8583,3.8546,3.862,3.8664,3.8657,3.8339,3.8316,3.8664,3.7624,3.7004,3.6858,3.6892,3.6655,3.611,3.611,3.5056,0.0,0.0,0.0,0.0,0.0,0.0,0.0,0.0,0.0,0.0,0.0,0.0,0.0,0.0,0.0,0.0,0.0,0.0,0.0,0.0,0.0,0.0,0.0,0.0,0.0,0.0,0.0,0.0,0.0,0.0,0.0,0.0,0.0,0.0,0.0,0.0,0.0,0.0,0.0,0.0,0.0,0.0,0.0,0.0,0.0,0.0,0.0,0.0,0.0,0.0,0.0,0.0,0.0,0.0,0.0,0.0,0.0,0.0,0.0,0.0,0.0,0.0,0.0,0.0,0.0,2.8733,2.8759,2.862,2.9038,2.9013,2.8576,2.8189,2.7564,2.6876,2.7406,0.0,0.0,0.0,0.0,0.0,0.0,0.0,0.0,0.0,0.0,0.0,0.0,0.0,0.0,0.0,0.0,0.0,0.0,0.0,3.6877,3.794,3.806,3.858,3.989,4.0013,3.9943,3.9864,4.0286,4.0492,4.0382,4.043,4.0501,4.056,3.9551,3.9017,3.8984,3.9356,3.9427,3.9301,3.9334,3.8922,3.7969,0.0,0.0,0.0,0.0,0.0,0.0,0.0,0.0,0.0,0.0,0.0,0.0,0.0,0.0,0.0,0.0,0.0,0.0,0.0,0.0,0.0,0.0,0.0,0.0,0.0,0.0,0.0,0.0,0.0,0.0,0.0,0.0,0.0,0.0,0.0,0.0,0.0,0.0,0.0,0.0,0.0,0.0,0.0,0.0,3.1893,3.2481,0.0,0.0,0.0,0.0,0.0,0.0,0.0,0.0,0.0,0.0,0.0,0.0,0.0,2.7348,2.7311,2.9006,2.9552,2.8967,3.0616,3.0957,3.0131,3.0165,3.0173,3.0126,3.0045,0.0,2.8504,2.888,0.0,0.0,0.0,0.0,0.0,0.0,0.0,0.0,0.0,0.0,0.0,0.0,0.0,0.0,0.0,0.0,0.0,0.0,0.0,0.0,0.0,3.9566,4.026,4.137,4.1498,4.1367,4.1166,4.1396,4.1396,4.1162,4.1196,4.1231,4.1231,4.0572,4.0198,4.0194,4.0257,4.0257,4.0226,4.0257,4.0134,3.9786,3.8513,3.7193,3.605,3.6713,0.0,0.0,0.0,0.0,0.0,0.0,0.0,0.0,0.0,0.0,0.0,0.0,0.0,0.0,0.0,0.0,0.0,0.0,0.0,0.0,0.0,0.0,0.0,0.0,0.0,0.0,0.0,0.0,0.0,0.0,0.0,0.0,0.0,0.0,0.0,0.0,0.0,0.0,0.0,3.2312,3.3139,3.2933,3.2572,3.194,0.0,0.0,0.0,0.0,0.0,0.0,0.0,0.0,0.0,2.9614,2.9757,2.9892,2.998,3.1163,3.1602,3.142,3.2179,3.2347,3.2035,3.2035,3.2035,3.2035,3.2352,3.215,3.1542,3.0306,2.9859,2.9977,0.0,0.0,0.0,0.0,2.9493,2.9254,0.0,0.0,0.0,0.0,0.0,0.0,0.0,0.0,0.0,0.0,0.0,0.0,4.0602,4.1464,4.236,4.323,4.3326,4.3086,4.2502,4.2729,4.2577,4.1948,4.214,4.2172,4.1979,4.1649,4.1559,4.1733,4.1588,4.1504,4.1416,4.1386,4.1221,4.0958,4.1087,4.004,3.8214,3.8549,3.8175,0.0,0.0,0.0,0.0,0.0,0.0,0.0,0.0,0.0,0.0,0.0,0.0,0.0,0.0,0.0,0.0,0.0,0.0,0.0,0.0,0.0,0.0,0.0,0.0,0.0,0.0,0.0,0.0,0.0,0.0,0.0,0.0,0.0,0.0,0.0,0.0,0.0,0.0,3.4109,3.4743,3.3999,3.453,3.4313,0.0,0.0,0.0,0.0,0.0,0.0,3.2563,3.2191,3.2046,3.2305,3.2572,3.2745,3.2828,3.3627,3.3903,3.3656,3.3875,3.3895,3.3716,3.3716,3.3716,3.375,3.4133,3.424,3.3989,3.2196,3.1583,3.1754,3.1691,3.151,3.1277,3.1336,3.0981,3.05,0.0,0.0,0.0,0.0,0.0,0.0,0.0,0.0,0.0,0.0,0.0,4.2014,4.2746,4.3969,4.4994,4.574,4.581,4.5256,4.3897,4.4662,4.4497,4.3077,4.3889,4.4041,4.3305,4.3299,4.3597,4.43,4.43,4.4192,4.3905,4.3731,4.3131,4.2242,4.2752,4.1974,4.0324,3.9903,3.974,3.961,0.0,0.0,0.0,0.0,0.0,0.0,0.0,0.0,0.0,0.0,0.0,0.0,0.0,0.0,0.0,0.0,0.0,0.0,0.0,0.0,0.0,0.0,0.0,0.0,0.0,0.0,0.0,0.0,0.0,0.0,0.0,0.0,0.0,0.0,0.0,0.0,0.0,0.0,0.0,3.7152,3.7361,0.0,0.0,0.0,0.0,3.4064,3.4249,3.4529,3.4893,3.4887,3.4996,3.5305,3.5297,3.5113,3.4752,3.6122,3.6056,3.4668,3.5956,3.5952,3.481,3.481,3.481,3.481,3.4843,3.4942,3.5017,3.4905,3.4259,3.3339,3.3636,3.3517,3.3183,3.3305,3.3184,3.2953,0.0,0.0,0.0,0.0,0.0,4.0456,4.0745,4.0897,4.0943,4.0943,4.2172,4.3208,4.3652,4.5,4.6083,4.6542,4.6601,4.6295,4.5569,4.5775,4.5426,4.424,4.4431,4.436,4.3868,4.4148,4.4555,4.4998,4.531,4.5251,4.4865,4.4811,4.4372,4.3719,4.361,4.3281,4.2775,4.1833,4.0989,4.0291,3.9902,3.9462,0.0,0.0,0.0,0.0,0.0,0.0,0.0,0.0,0.0,0.0,0.0,0.0,0.0,0.0,0.0,0.0,0.0,0.0,0.0,0.0,0.0,0.0,0.0,0.0,0.0,0.0,0.0,0.0,0.0,0.0,0.0,0.0,0.0,0.0,0.0,0.0,0.0,3.8751,3.9498,0.0,3.7916,3.7601,3.7641,3.7901,3.7998,3.8344,3.9001,3.8698,3.8262,3.7769,3.7639,3.7222,3.6494,3.7114,3.7065,3.6443,3.651,3.6555,3.6555,3.6004,3.5759,3.5759,3.6091,3.5949,3.5529,3.5952,3.5736,3.5202,3.5337,3.5156,3.488,3.506,3.444,3.3512,0.0,0.0,0.0,0.0,4.0722,4.1161,4.1495,4.1603,4.1668,4.1668,4.3164,4.4311,4.4421,4.5988,4.7146,4.7327,4.7349,4.6966,4.6092,4.6184,4.581,4.4752,4.4871,4.487,4.4627,4.4928,4.534,4.5831,4.6141,4.6112,4.5664,4.5613,4.5217,4.4536,4.426,4.3977,4.3719,4.3293,4.2528,4.1591,4.1309,4.0735,4.0082,0.0,0.0,0.0,0.0,0.0,0.0,0.0,0.0,0.0,0.0,0.0,0.0,0.0,0.0,0.0,0.0,0.0,0.0,0.0,0.0,0.0,0.0,0.0,0.0,0.0,0.0,0.0,0.0,0.0,0.0,0.0,0.0,0.0,0.0,0.0,4.1138,4.0217,4.1462,4.1815,4.0304,4.0609,4.0979,4.1233,4.1264,4.1472,4.1917,4.1545,4.0986,4.0282,4.0151,3.9734,3.9031,3.9195,3.9174,3.8967,3.856,3.8442,3.8622,3.803,3.7626,3.7347,3.7457,3.7184,3.6722,3.6786,3.6693,3.6538,3.6507,3.6353,3.6221,3.6371,3.5466,3.4135,0.0,0.0,0.0,4.0314,4.1183,4.1853,4.1853,4.2077,4.2257,4.2257,4.4061,4.5292,4.5136,4.7027,4.8267,4.8207,4.8207,4.7395,4.5497,4.5915,4.5708,4.4543,4.5279,4.5721,4.5699,4.5721,4.6114,4.6936,4.6936,4.6763,4.6413,4.6283,4.5727,4.4784,4.4846,4.4218,4.317,4.4264,4.4291,4.3539,4.2301,4.1885,4.1917,0.0,0.0,0.0,0.0,0.0,0.0,0.0,0.0,0.0,0.0,0.0,0.0,0.0,0.0,0.0,0.0,0.0,0.0,0.0,0.0,0.0,0.0,0.0,0.0,0.0,0.0,0.0,0.0,0.0,0.0,0.0,0.0,0.0,4.0706,4.2449,4.3239,4.184,4.3312,4.4008,4.2956,4.3432,4.3778,4.3812,4.3812,4.3743,4.357,4.3364,4.3122,4.2949,4.2883,4.274,4.2283,4.2576,4.2503,4.2166,4.2233,4.1821,4.0991,4.0991,4.0515,3.9628,3.8932,3.8645,3.864,3.7525,3.7121,3.721,3.706,3.7059,3.7178,3.7208,3.636,3.498,0.0,0.0,4.0698,4.1035,4.1937,4.2693,4.2995,4.3087,4.316,4.316,4.4675,4.5698,4.564,4.7334,4.8458,4.8267,4.8532,4.8144,4.6819,4.6873,4.6228,4.465,4.5399,0.0,4.5838,4.6421,4.7113,4.7915,4.7915,4.7695,4.7277,4.7219,4.6869,4.6282,4.5971,4.5666,4.5351,4.5035,4.4953,4.4888,4.3988,4.3446,4.3111,0.0,0.0,0.0,0.0,0.0,0.0,0.0,0.0,0.0,0.0,0.0,0.0,0.0,0.0,0.0,0.0,0.0,0.0,0.0,0.0,0.0,0.0,0.0,0.0,0.0,0.0,0.0,0.0,0.0,0.0,0.0,4.3012,4.3907,4.259,4.377,4.5016,4.5652,4.5492,4.548,4.5794,4.5765,4.6,4.6676,4.6638,4.6778,4.7295,4.6741,4.6119,4.5433,4.5433,4.5107,4.4459,4.4365,4.4267,4.4068,4.3557,4.3428,4.3491,4.3009,4.2334,4.147,4.1278,4.0482,3.9311,3.8461,3.8116,3.8083,3.7308,3.703,3.709,3.7331,3.6708,3.5564,0.0,4.0201,4.1093,4.1349,4.2366,4.3214,4.348,4.3515,4.3497,4.3463,4.4874,4.5828,4.5735,4.7187,4.8088,4.7811,4.7895,4.7512,4.6411,4.7083,4.6975,4.5754,4.7511,4.8017,4.6934,4.8229,4.8993,4.8993,4.9228,4.9215,4.8935,4.8935,4.8789,4.8533,4.8025,4.7677,4.7524,4.7114,4.6953,4.688,4.6389,4.5424,4.4311,4.4156,4.3146,4.1871,4.1936,4.119,4.0156,4.0533,0.0,0.0,0.0,0.0,0.0,0.0,0.0,0.0,0.0,0.0,0.0,0.0,0.0,0.0,0.0,0.0,0.0,0.0,0.0,0.0,0.0,0.0,0.0,0.0,4.5427,4.6433,4.6091,4.688,4.776,4.8572,4.8102,4.7767,4.7867,4.7758,4.7861,4.8244,4.7983,4.8157,4.8859,4.8099,4.7407,4.6881,4.6781,4.6519,4.6094,4.5767,4.5701,4.5896,4.5212,4.5017,4.5275,4.4496,4.3913,0.0,4.2396,4.1562,4.0892,3.9745,3.9168,0.0,0.0,0.0,0.0,0.0,3.6561,3.591,0.0,4.0494,4.1416,4.1459,4.2602,4.3515,4.3515,4.3515,4.348,4.3412,4.4765,4.5718,4.5551,4.6704,4.7376,4.7095,4.693,4.633,4.5201,4.6981,4.7787,4.7239,5.0326,5.1016,4.8782,5.061,5.1211,5.0502,5.0786,5.0942,5.0973,5.0899,5.0842,5.0782,5.0299,4.9842,4.9467,4.9646,4.9468,4.904,4.8848,4.7466,4.5531,4.563,4.471,4.3391,4.3219,4.2637,4.2032,4.287,0.0,0.0,0.0,0.0,0.0,0.0,0.0,0.0,0.0,0.0,0.0,0.0,0.0,0.0,0.0,0.0,0.0,0.0,0.0,0.0,0.0,0.0,0.0,0.0,4.7457,4.8781,5.0135,5.0654,5.0793,5.0593,5.046,5.0126,4.936,4.9427,4.9427,4.9157,4.873,4.8696,4.9193,0.0,0.0,0.0,0.0,4.7331,4.7331,4.6748,4.6782,4.747,4.6815,4.652,4.6487,4.5734,4.5373,4.5304,4.3054,4.2468,4.2953,4.1341,4.0384,3.9823,3.8226,3.774,3.7787,3.6886,3.6554,3.6398,0.0,4.0698,4.1503,4.1902,4.2829,4.3515,4.3515,4.3515,4.348,4.3412,4.4289,4.4929,4.4945,4.6153,4.693,4.6862,4.7261,4.706,4.6026,0.0,4.7996,4.7252,4.973,5.1285,5.154,5.1874,5.2545,5.3553,5.2333,5.1864,5.2063,5.1473,5.1062,5.0802,5.0684,5.0524,5.0341,5.017,5.0018,4.9912,4.9719,4.8561,4.7043,4.7539,4.6801,4.5677,4.6782,4.6277,4.4936,4.4406,4.3664,4.302,4.3048,0.0,0.0,0.0,0.0,0.0,0.0,0.0,0.0,0.0,0.0,0.0,0.0,0.0,0.0,0.0,0.0,0.0,0.0,0.0,0.0,4.8301,4.9695,5.0879,5.1758,5.193,5.1762,5.1155,5.0289,4.999,5.0591,5.0393,5.0493,5.1194,5.1263,5.0928,5.0022,5.0059,4.9559,4.8356,4.8255,4.8255,4.8255,4.7263,4.6968,4.7267,0.0,0.0,4.7274,4.7133,4.6714,4.614,4.5457,4.4801,4.4181,4.3194,4.2072,4.0897,3.9495,3.9043,3.9143,3.8923,3.8765,3.8657,0.0,4.0874,4.1429,4.2006,4.2791,4.3393,4.3497,4.3515,4.3463,4.3304,4.4089,4.4673,4.4795,4.5574,4.615,4.6243,4.667,4.704,4.7232,4.8641,4.951,4.9698,5.1721,5.285,5.2805,5.3428,5.4114,5.481,5.4171,5.4145,5.4683,5.4237,5.3962,5.3795,5.36,5.3222,5.2793,5.2443,5.1936,5.1382,5.1215,5.0322,4.8995,4.8465,4.7255,4.5994,4.7432,4.7208,4.6213,4.6431,4.6315,4.6124,4.6397,4.574,4.479,0.0,0.0,0.0,0.0,0.0,0.0,0.0,0.0,0.0,0.0,0.0,0.0,0.0,0.0,4.5534,4.7321,0.0,4.8693,5.0464,5.1317,5.2029,5.2807,5.2909,5.2604,5.186,5.1257,5.0924,5.0859,5.1095,5.1329,5.1629,5.1497,5.1263,5.0992,5.076,5.0259,4.9522,4.9489,4.9223,4.8825,4.8192,4.7663,4.7302,4.7144,4.7144,4.7339,4.6922,4.6796,4.6907,4.5784,4.5301,4.5199,4.3826,4.292,4.2221,4.1013,4.0275,3.9817,3.9605,3.9452,3.9373,0.0,4.0838,4.1308,4.2062,4.2751,4.3269,4.3428,4.348,4.3445,4.3269,4.3907,4.4435,4.4591,4.4963,4.5317,4.5606,4.6061,4.6706,0.0,4.9335,5.071,5.16,5.3503,5.428,5.383,5.4803,5.5476,5.5696,5.5835,5.6289,5.7024,5.6945,5.6859,5.6772,5.6482,5.5956,5.5304,5.4737,5.4047,5.3229,5.2736,0.0,5.0844,4.9231,4.7707,4.6561,4.7631,4.7622,4.7218,4.8015,4.8566,4.9005,4.946,4.8603,4.7289,4.6933,4.5765,0.0,0.0,0.0,0.0,0.0,0.0,0.0,0.0,0.0,4.4347,4.6652,4.7043,4.7509,4.9351,4.9752,5.0396,5.2265,5.2536,5.2773,5.3416,5.3382,5.301,5.2328,5.2264,5.1964,5.1094,5.1698,5.2068,5.1897,5.1497,5.1395,5.1799,5.1195,5.0759,5.066,5.0459,5.0091,4.9456,4.9126,4.8596,4.7868,4.7391,4.7306,4.7487,4.6584,4.6529,4.7133,4.5451,4.5233,4.5925,4.4438,4.3691,4.3476,4.2585,4.1544,4.0484,4.0076,3.9916,3.9859,0.0,4.0309,4.1185,4.2353,4.2901,4.3214,4.3233,4.3393,4.3463,4.3394,4.3501,4.3659,4.3791,4.4252,4.4764,4.5395,4.6234,0.0,4.5755,4.817,4.9637,4.9697,5.2068,5.4092,5.5567,5.5533,5.6153,5.7518,5.6881,5.6764,5.7083,5.7213,5.7078,5.679,5.6737,5.6682,5.6514,5.5397,5.5198,5.548,0.0,0.0,5.1945,5.0304,4.9661,4.9581,4.9504,4.9424,4.917,4.7933,4.8004,4.8583,4.8661,4.8969,4.9126,4.7707,0.0,4.5391,4.3138,4.2449,4.2787,4.4578,4.5105,4.6098,0.0,0.0,4.9218,5.1103,5.1014,5.0943,5.2021,5.2059,5.2232,5.3213,5.3382,5.3416,5.3484,5.2875,5.2359,5.2142,5.2215,5.2233,5.2132,5.2233,5.2571,5.3214,5.3222,5.278,5.1866,5.1877,5.1685,5.111,5.0534,5.0407,5.0681,4.9973,4.9536,4.9438,4.8678,4.8455,4.859,4.7509,4.6765,4.6195,4.5512,4.5593,4.616,4.5965,4.5198,4.4175,4.393,4.2991,4.1758,4.1477,4.1353,4.1375,0.0,0.0,4.0504,4.1753,4.2474,4.2937,4.3178,4.3286,4.334,4.3394,4.3429,4.3497,4.3631,4.3982,4.4431,4.4954,4.5884,0.0,4.6167,4.774,4.9103,5.0058,5.1087,5.2723,5.4968,5.488,5.5597,5.7275,5.6881,5.725,5.8339,5.831,5.8198,5.8097,5.8408,5.767,5.6233,5.6013,5.5473,5.4666,0.0,0.0,5.2615,5.1063,5.0521,5.0341,4.8646,4.7904,0.0,0.0,4.7322,4.8061,4.8441,4.8818,4.9001,4.8443,4.7688,0.0,4.5663,4.532,0.0,0.0,4.7822,4.8846,5.053,5.0322,5.0371,5.255,5.2719,5.274,5.3526,5.347,5.3409,0.0,5.3618,5.3651,5.4074,5.3391,5.2994,5.3404,5.2999,5.2546,5.2131,5.2477,5.2857,5.3172,5.3197,5.2989,5.2536,5.2612,5.255,5.231,5.2149,5.1911,5.1557,5.06,5.0077,4.9957,4.8963,4.8592,4.8714,4.8269,4.7629,4.6776,4.6527,4.6493,4.6566,4.568,4.4946,4.4361,4.3363,4.2562,4.2016,4.1801,4.167,4.1604,0.0,0.0,0.0,4.0885,4.1717,4.2474,4.2975,4.3087,4.3178,4.3304,4.3322,4.341,4.3614,4.3896,4.4233,4.4599,4.5392,0.0,0.0,4.7146,4.8202,4.944,5.011,5.1359,5.3255,5.3897,5.481,5.6098,5.6435,5.7238,5.8475,5.8543,5.8654,5.8692,5.9019,5.8104,5.6311,5.6387,5.5748,5.467,0.0,0.0,5.3056,5.1559,5.0574,4.9703,4.7535,4.6649,0.0,0.0,4.6293,4.7093,4.7533,4.7849,4.8055,4.7943,4.7177,4.6339,4.6428,0.0,0.0,4.8591,5.0099,5.1319,5.1549,5.1476,5.1874,5.3628,5.3821,5.387,5.4391,5.4397,5.433,5.433,5.4299,5.4388,5.4934,5.4451,5.418,5.4662,5.3954,5.3254,5.2777,5.2873,5.2993,5.2993,5.2951,5.3007,5.3015,5.287,5.2891,5.3122,5.3061,5.2643,5.1876,5.1112,5.0647,5.0506,4.921,4.891,4.9387,4.8892,4.8285,4.7599,4.7331,4.699,4.6569,4.5414,4.4864,4.4521,4.3315,4.2724,4.2469,4.2292,4.1978,4.1648,0.0,0.0,0.0,0.0,4.0756,4.1774,4.253,4.2768,4.2976,4.3196,4.3214,4.3321,4.3681,4.3955,4.4177,4.4383,4.4789,4.506,4.506,4.6004,4.657,4.6598,4.8995,5.0356,5.0511,5.2755,5.3973,5.4091,5.5649,5.6463,5.6608,5.7325,5.7706,5.7815,5.773,5.761,5.7481,5.6459,5.6312,5.6637,0.0,0.0,5.342,5.1788,4.9762,4.76,4.687,0.0,0.0,0.0,4.4752,4.5458,4.54,4.5881,0.0,4.5623,4.4318,0.0,0.0,0.0,4.6775,4.9082,5.14,5.3296,5.4033,5.4505,5.4887,5.4922,5.4679,5.4494,5.4494,5.4922,5.5238,5.5238,5.566,5.6015,5.6043,5.6043,5.5902,5.5512,5.4875,5.4567,0.0,5.3718,5.2993,5.2993,5.2919,5.2944,5.3085,5.2406,5.239,5.3171,5.2426,5.1896,5.1632,5.1536,5.1389,5.1239,4.9647,4.972,5.1154,4.9397,4.852,4.8312,4.7546,4.6668,4.582,4.5859,4.5437,4.4793,4.4721,4.4241,4.354,4.3344,4.2633,4.178,0.0,0.0,0.0,0.0,0.0,4.0625,4.1276,4.2133,4.2749,4.2957,4.3068,0.0,0.0,0.0,0.0,0.0,4.4435,4.4675,4.5057,4.5481,4.5955,4.6484,4.7819,4.914,5.0317,5.2145,5.3403,5.4001,5.508,5.5933,5.648,5.6716,5.684,5.6906,5.7373,5.692,5.5829,5.608,5.5997,5.5526,5.4025,0.0,5.3055,5.0468,4.8975,4.8014,0.0,0.0,0.0,0.0,4.3687,4.3948,4.4468,4.4776,0.0,4.4001,4.4343,4.512,4.5792,0.0,5.0534,5.1521,5.3513,5.5107,5.4435,5.5107,5.5695,5.5172,5.4374,5.3753,5.3753,5.3718,5.3886,5.4412,5.5428,5.626,5.6768,5.6273,5.6063,5.645,5.5766,0.0,0.0,0.0,0.0,5.3515,5.3099,5.2868,5.2895,5.2767,5.2767,5.3044,5.2803,5.236,5.1746,5.107,5.0707,5.0562,4.951,4.9313,4.9821,4.9213,4.8315,4.7274,4.7464,4.7081,4.6344,4.5725,4.5653,4.589,4.5302,4.4859,4.4525,4.4462,4.3799,4.2881,0.0,0.0,0.0,0.0,0.0,0.0,0.0,0.0,0.0,0.0,0.0,0.0,0.0,0.0,0.0,0.0,0.0,4.4621,0.0,0.0,4.5481,4.5993,4.6832,4.7808,4.8911,5.0579,5.1712,5.2246,5.2997,5.3836,5.4765,5.4618,5.4728,5.5075,5.5884,5.5598,5.4547,5.5166,5.509,5.441,5.2975,5.2209,5.1635,4.933,4.7981,0.0,0.0,0.0,0.0,0.0,4.3207,4.3238,4.3692,4.375,4.3665,4.3793,4.4742,4.6089,4.7643,5.0186,5.2493,5.294,5.4814,5.6286,5.5123,5.5553,5.608,5.5864,5.4514,5.3484,5.3833,5.3604,5.3423,5.3676,5.4894,5.6031,5.6772,5.6136,5.6057,5.7302,5.6476,5.577,0.0,0.0,0.0,5.3557,5.3097,5.2806,5.285,5.3017,5.3082,5.3082,5.3082,5.2511,5.137,5.0775,5.0122,4.9392,4.9422,4.9313,4.9038,4.9349,4.8566,4.7078,4.7544,4.7,4.5735,4.5497,4.5639,4.6053,4.5755,4.5621,4.5518,4.5456,4.4777,4.3736,0.0,0.0,0.0,0.0,0.0,0.0,0.0,0.0,0.0,0.0,0.0,0.0,0.0,0.0,0.0,0.0,0.0,0.0,0.0,0.0,0.0,4.5159,4.6008,4.6477,4.6477,4.8174,4.9087,4.9087,4.9758,5.0596,5.1508,5.1253,5.1616,5.2473,5.3228,5.3566,5.358,5.365,5.3608,5.3328,5.1627,5.0378,4.9439,4.8461,0.0,0.0,0.0,0.0,0.0,0.0,0.0,4.3304,4.3178,4.303,4.3244,4.4897,4.5388,4.6098,4.911,5.1179,5.2704,5.33,5.5329,5.6924,5.6041,5.5896,5.6102,5.6779,5.5015,5.3615,0.0,0.0,5.3937,5.324,5.4394,5.5638,5.632,5.5842,5.6097,0.0,0.0,0.0,0.0,0.0,0.0,5.3288,0.0,5.2908,5.3002,5.3124,5.3225,5.3225,5.3225,5.2354,5.0623,5.0492,4.9622,4.7938,4.9321,4.9582,4.8837,4.9619,4.9112,4.7591,4.7695,4.6388,4.4169,4.5064,4.5372,4.5381,4.6178,4.6504,4.6483,4.6317,4.5477,4.4346,0.0,0.0,0.0,0.0,0.0,0.0,0.0,0.0,0.0,0.0,0.0,0.0,0.0,0.0,0.0,0.0,0.0,0.0,0.0,0.0,0.0,0.0,0.0,0.0,0.0,0.0,0.0,0.0,0.0,5.006,5.0274,5.0151,5.0156,5.0383,5.0522,5.0591,5.0591,5.0621,5.0636,5.0552,0.0,4.8798,4.8474,0.0,0.0,0.0,0.0,0.0,0.0,0.0,0.0,0.0,0.0,4.4621,4.4722,4.5876,4.6802,4.7656,4.8519,5.1474,5.4137,5.3396,5.5468,5.7217,5.5414,5.5775,5.6008,5.4377,5.3377,5.2702,0.0,0.0,0.0,5.4434,5.6371,0.0,5.8066,5.7938,0.0,5.854,0.0,5.7728,5.6891,5.6265,0.0,0.0,5.3949,5.3918,5.3396,5.3251,5.3209,5.3256,5.323,5.2396,5.0762,4.9472,4.853,4.7988,4.8302,4.8327,4.8004,4.8242,4.7446,4.5924,4.5945,4.5316,4.4285,4.4522,4.4958,4.5537,4.6335,4.6565,4.6524,4.6729,4.5826,4.4564,0.0,0.0,0.0,0.0,0.0,0.0,0.0,0.0,0.0,0.0,0.0,0.0,0.0,0.0,0.0,0.0,0.0,0.0,0.0,0.0,0.0,0.0,0.0,0.0,0.0,0.0,0.0,0.0,0.0,0.0,0.0,4.8115,4.8249,4.8612,4.8918,4.9039,4.9039,0.0,0.0,0.0,0.0,0.0,0.0,0.0,0.0,0.0,0.0,0.0,0.0,0.0,0.0,4.5718,4.6214,4.6505,4.6924,4.7808,0.0,4.9122,4.9547,5.175,5.3848,5.3501,5.5027,5.6307,5.5089,5.5132,5.5043,5.3621,5.2675,0.0,5.1491,0.0,0.0,0.0,0.0,0.0,5.7546,5.7046,5.7029,0.0,5.7546,0.0,5.64,5.6166,5.5606,0.0,5.4129,5.3896,5.3518,5.342,5.34,5.3424,5.344,5.2702,5.1042,4.9249,4.8344,4.8267,4.8151,4.8052,4.7988,4.7886,4.6937,4.5447,0.0,4.4696,4.3702,4.4065,4.4464,4.4992,4.5911,4.6258,4.6222,4.6562,4.5779,4.4644,0.0,0.0,0.0,0.0,0.0,0.0,0.0,0.0,0.0,0.0,4.0851,0.0,0.0,0.0,0.0,0.0,0.0,0.0,0.0,0.0,0.0,0.0,0.0,0.0,0.0,0.0,0.0,0.0,0.0,0.0,0.0,0.0,0.0,0.0,0.0,0.0,0.0,0.0,0.0,0.0,0.0,0.0,0.0,0.0,0.0,0.0,0.0,0.0,0.0,0.0,4.7097,4.7714,4.8059,4.8526,4.9084,4.9988,5.0098,5.0098,5.0859,5.1751,5.2642,5.346,5.4351,5.4983,5.4871,5.4314,5.372,5.3385,0.0,5.1342,5.1268,5.1974,5.2438,5.1825,0.0,5.4707,5.6246,5.5227,5.5097,5.7249,5.6134,5.5429,5.606,5.6134,5.5763,5.4909,5.3911,5.342,5.3541,5.3583,5.3622,5.3622,5.3533,5.2791,5.1305,4.9546,4.8642,4.8587,4.8477,4.8383,4.8306,4.8021,4.7139,4.5769,4.5523,0.0,4.3339,4.4065,4.4302,4.4323,4.5425,4.5827,4.5789,4.6129,4.5522,4.4619,0.0,0.0,0.0,0.0,0.0,0.0,0.0,0.0,0.0,0.0,3.8906,3.9774,0.0,0.0,0.0,0.0,0.0,0.0,0.0,0.0,0.0,0.0,0.0,0.0,0.0,0.0,0.0,0.0,0.0,0.0,0.0,0.0,0.0,0.0,0.0,0.0,0.0,0.0,0.0,0.0,0.0,0.0,0.0,0.0,0.0,0.0,0.0,0.0,0.0,0.0,4.7915,4.8661,5.0139,5.012,4.9749,5.0713,5.0064,4.9062,4.9281,5.045,5.1788,5.2605,5.3905,5.4834,5.4166,5.3905,0.0,0.0,5.1082,5.1193,5.045,5.162,5.2828,5.3311,0.0,0.0,0.0,0.0,5.6303,0.0,0.0,0.0,0.0,0.0,0.0,0.0,0.0,5.3756,5.3907,5.3699,5.3641,5.3756,5.2438,5.1602,5.1287,4.9672,4.8803,4.8695,4.8587,4.8495,4.8383,4.7609,4.7094,4.68,4.6122,0.0,4.537,4.5517,4.5277,4.4847,4.5847,4.5885,4.545,4.5871,4.5457,4.4739,0.0,0.0,0.0,0.0,0.0,0.0,0.0,3.5131,3.6266,3.6561,3.7448,3.8509,3.9707,4.0031,4.0261,0.0,0.0,0.0,0.0,0.0,0.0,0.0,0.0,0.0,0.0,0.0,0.0,0.0,0.0,0.0,0.0,0.0,0.0,0.0,0.0,0.0,0.0,0.0,0.0,0.0,0.0,0.0,0.0,0.0,0.0,0.0,0.0,0.0,0.0,0.0,4.7819,4.9085,5.1269,5.186,5.171,5.1398,5.0749,5.0063,4.9653,5.0116,5.1119,5.2828,5.3497,5.3645,5.3274,0.0,0.0,0.0,5.0153,5.0488,4.9633,5.0895,0.0,5.2494,0.0,0.0,0.0,0.0,0.0,0.0,0.0,0.0,0.0,0.0,0.0,0.0,0.0,5.3869,5.3982,5.4,5.3777,5.3367,5.2173,5.137,5.0959,4.9728,4.9077,4.9006,4.8959,4.8855,4.875,4.8163,4.7666,4.7224,4.6765,0.0,4.5901,4.5599,4.5275,4.502,4.5387,4.5327,4.5084,4.548,4.5103,4.4429,0.0,0.0,0.0,0.0,0.0,0.0,0.0,3.3481,3.4831,3.5602,3.6371,3.7386,3.8831,3.9488,3.9849,0.0,0.0,0.0,0.0,0.0,0.0,0.0,0.0,0.0,0.0,0.0,0.0,0.0,0.0,0.0,0.0,0.0,0.0,0.0,0.0,0.0,0.0,0.0,0.0,0.0,0.0,0.0,0.0,0.0,0.0,0.0,0.0,0.0,0.0,0.0,4.738,4.8729,5.11,5.2494,5.2899,5.151,5.125,5.1268,5.0562,5.0376,5.0896,5.3014,5.294,5.2345,5.2345,5.1714,0.0,0.0,4.941,4.967,4.9039,0.0,5.0951,0.0,5.2215,0.0,0.0,0.0,0.0,0.0,0.0,0.0,0.0,0.0,0.0,0.0,0.0,0.0,5.4019,5.4015,5.3656,5.2948,5.2027,5.1237,5.06,4.9755,4.9358,4.9358,4.9262,4.9164,4.9118,4.8803,4.8308,4.7716,4.7645,0.0,0.0,4.5999,4.5618,4.5335,4.5193,4.5048,4.4943,4.5239,4.4939,4.4441,0.0,0.0,0.0,0.0,0.0,0.0,0.0,3.2612,3.391,3.5155,3.5666,3.6195,3.6978,3.782,3.8524,0.0,0.0,0.0,0.0,0.0,0.0,0.0,0.0,0.0,0.0,0.0,0.0,0.0,0.0,0.0,0.0,0.0,0.0,0.0,0.0,0.0,0.0,0.0,0.0,0.0,0.0,0.0,0.0,0.0,0.0,0.0,0.0,0.0,0.0,0.0,0.0,4.7111,4.8945,5.0392,5.125,5.0361,0.0,0.0,5.1305,5.1268,5.1528,5.2457,5.2122,5.1528,5.1528,0.0,0.0,4.9076,4.8964,4.9002,4.8927,4.9145,0.0,0.0,0.0,5.1395,0.0,0.0,0.0,0.0,0.0,0.0,0.0,0.0,0.0,0.0,0.0,0.0,5.4091,5.3399,5.3023,5.298,5.1499,5.0675,5.06,4.9856,4.9474,4.9474,4.9279,4.9197,4.9181,4.8959,4.8818,4.8761,4.908,0.0,0.0,4.8108,4.739,4.6187,4.6237,4.5872,4.5371,4.5523,4.553,4.5444,0.0,0.0,0.0,0.0,0.0,0.0,3.0731,3.2058,3.3317,3.4218,3.4688,3.5064,3.5306,3.5668,3.6245,3.7145,0.0,0.0,0.0,0.0,0.0,0.0,0.0,0.0,0.0,0.0,0.0,0.0,0.0,0.0,0.0,0.0,0.0,0.0,0.0,0.0,0.0,0.0,0.0,0.0,0.0,0.0,0.0,0.0,0.0,0.0,0.0,0.0,0.0,0.0,0.0,0.0,4.6202,4.7623,0.0,0.0,4.9968,5.0748,5.1268,5.1751,5.2308,5.3125,5.2345,5.1416,5.1416,0.0,4.9299,4.8964,4.889,4.889,4.889,4.8962,4.9073,0.0,0.0,0.0,5.2234,0.0,0.0,0.0,0.0,0.0,0.0,0.0,0.0,0.0,0.0,0.0,5.3291,5.3027,5.243,5.1335,5.0766,5.0256,4.9749,4.953,4.9406,4.949,4.9343,4.9262,4.9214,4.9064,4.8783,4.8408,4.8549,0.0,0.0,4.7353,4.6889,4.6347,4.6041,4.5764,4.5541,4.5577,4.5594,4.5586,0.0,0.0,0.0,0.0,0.0,3.0174,3.0608,3.1625,3.2653,3.3448,3.3594,3.371,3.3898,3.3819,3.4041,3.4813,3.5884,0.0,0.0,0.0,0.0,0.0,0.0,0.0,0.0,0.0,0.0,4.0402,4.0549,0.0,0.0,0.0,0.0,0.0,0.0,0.0,0.0,0.0,0.0,0.0,0.0,0.0,0.0,0.0,0.0,0.0,0.0,0.0,0.0,0.0,0.0,0.0,0.0,0.0,0.0,0.0,4.9331,5.0636,5.1231,5.2159,5.3088,5.3683,5.2419,5.1082,0.0,0.0,4.863,4.8853,4.889,4.889,4.889,4.889,4.889,0.0,0.0,5.1008,5.1045,0.0,0.0,0.0,0.0,0.0,0.0,0.0,0.0,0.0,0.0,0.0,5.2716,5.2751,5.2025,5.0281,5.0104,4.9762,4.9164,4.9279,4.9343,4.9412,4.9327,4.9246,4.9164,4.9064,4.8828,4.8461,4.8288,0.0,0.0,4.6784,4.6393,4.6135,4.5763,4.5594,4.5594,4.5594,4.5594,4.5594,0.0,0.0,0.0,0.0,0.0,0.0,3.1287,3.1287,3.176,3.3052,3.2415,3.2108,3.2717,3.2435,3.2228,3.2258,3.4068,0.0,0.0,0.0,0.0,0.0,0.0,0.0,0.0,0.0,3.9189,3.9216,3.9765,3.974,3.9242,0.0,0.0,0.0,0.0,0.0,0.0,0.0,0.0,0.0,0.0,0.0,0.0,0.0,0.0,0.0,0.0,0.0,0.0,0.0,0.0,0.0,0.0,0.0,0.0,0.0,4.8885,5.1379,5.1416,5.2568,5.3794,5.3794,5.1936,5.0339,0.0,0.0,4.7924,4.8742,4.889,4.889,4.889,4.889,4.889,4.889,0.0,0.0,5.019,5.0896,0.0,0.0,0.0,5.1714,0.0,0.0,0.0,0.0,0.0,0.0,5.2642,5.2605,5.1917,5.0348,4.9511,4.9101,4.9101,4.9246,4.9257,4.9214,4.9214,4.9164,4.9101,4.8962,4.9077,0.0,0.0,0.0,0.0,4.7108,4.6394,4.5624,4.5594,4.5594,4.5594,4.5594,4.5594,4.5594,0.0,0.0,0.0,0.0,0.0,0.0,0.0,3.1287,3.1412,3.1823,3.0917,3.0477,3.1093,3.1023,3.1286,3.2111,3.3176,0.0,0.0,0.0,0.0,0.0,0.0,0.0,0.0,0.0,3.8701,3.9189,3.9375,3.9375,3.9189,3.9558,3.9842,0.0,0.0,0.0,0.0,0.0,0.0,0.0,0.0,0.0,0.0,0.0,0.0,0.0,0.0,0.0,0.0,0.0,0.0,0.0,0.0,0.0,0.0,4.4727,4.644,4.8184,4.8704,5.0042,5.1268,5.1268,4.9856,4.8816,5.019,0.0,4.7256,4.863,4.889,4.9076,4.967,4.9834,4.9832,4.9745,5.0467,0.0,0.0,0.0,0.0,5.1539,5.2006,5.2417,0.0,0.0,0.0,0.0,0.0,0.0,5.1825,5.1231,5.0691,5.0206,4.9928,4.9554,4.9101,4.9152,4.9164,4.9214,4.9214,4.9148,4.9101,4.9257,4.9115,0.0,0.0,0.0,0.0,4.6328,4.5864,4.5594,4.5594,4.5594,4.5594,4.5594,4.5594,4.5594,0.0,0.0,0.0,0.0,0.0,0.0,0.0,3.1469,3.1558,3.1314,3.0446,2.9984,3.0364,3.041,3.0893,3.2083,3.2755,0.0,0.0,0.0,0.0,0.0,0.0,0.0,0.0,3.7594,3.8014,3.8873,3.8748,3.8748,3.8958,3.9106,3.9269,3.9368,3.9577,0.0,0.0,0.0,0.0,0.0,0.0,0.0,4.1538,0.0,0.0,0.0,0.0,0.0,0.0,0.0,0.0,0.0,0.0,0.0,0.0,0.0,4.5053,4.5855,0.0,4.863,5.0116,5.0116,4.9113,4.8481,0.0,0.0,4.7347,4.8716,4.8942,4.9111,4.9769,4.9877,4.986,4.9792,5.081,0.0,0.0,0.0,0.0,5.1728,0.0,0.0,0.0,0.0,0.0,0.0,0.0,0.0,5.1416,5.0931,5.0519,5.0222,4.9854,4.9428,4.905,4.9084,4.9118,4.9098,4.9131,4.9098,4.9013,4.9337,4.9286,0.0,0.0,0.0,0.0,4.6568,4.6059,4.6021,4.5683,4.5568,4.5568,4.5586,4.5594,4.5594,0.0,0.0,0.0,0.0,0.0,0.0,0.0,3.1609,3.1821,3.1314,3.0663,3.0337,3.0446,3.0446,3.0934,3.2182,0.0,0.0,0.0,0.0,0.0,0.0,0.0,0.0,0.0,3.6693,3.7095,3.809,3.785,3.7971,3.8398,3.886,3.881,3.8306,3.8892,3.9135,0.0,0.0,0.0,0.0,4.1255,4.1368,0.0,0.0,0.0,0.0,0.0,0.0,0.0,0.0,0.0,0.0,0.0,0.0,0.0,0.0,0.0,0.0,0.0,4.811,4.9874,4.9874,4.9353,4.9073,4.9854,0.0,0.0,4.9011,4.9081,4.9064,4.9427,4.9402,4.9305,4.9305,5.0783,5.1544,0.0,5.194,0.0,0.0,5.1834,0.0,0.0,0.0,0.0,0.0,0.0,0.0,5.1341,5.1389,5.1119,5.0335,4.942,4.8925,4.8907,4.9013,4.9013,4.889,4.905,4.9013,4.8942,4.9289,4.9588,0.0,0.0,0.0,0.0,4.7492,4.6781,4.6618,4.5821,4.5485,4.5523,4.5577,4.5594,4.5594,0.0,0.0,0.0,0.0,0.0,0.0,0.0,0.0,0.0,0.0,2.9686,2.955,3.0934,3.069,3.126,0.0,0.0,0.0,0.0,0.0,0.0,0.0,0.0,0.0,0.0,3.5529,3.5908,3.6221,3.6878,3.7244,3.7371,3.7751,3.8059,3.8306,3.8446,3.8783,3.9216,0.0,0.0,0.0,4.0813,4.1163,0.0,0.0,0.0,0.0,4.1945,4.2115,0.0,0.0,0.0,0.0,0.0,0.0,0.0,0.0,4.3878,4.4001,4.5238,0.0,4.7506,4.7506,4.7937,4.8593,0.0,0.0,0.0,0.0,0.0,4.9492,5.0209,5.0369,5.0407,5.029,5.1249,5.1657,5.0772,0.0,0.0,5.0402,5.1292,0.0,0.0,0.0,0.0,0.0,0.0,5.0771,5.0771,5.022,4.984,4.9652,4.9418,4.9225,4.9148,4.9013,4.8945,4.889,4.8945,4.9061,4.9305,4.9602,4.9857,0.0,0.0,0.0,4.8337,4.7299,4.6416,4.5697,4.5543,4.5485,4.5523,4.5577,4.5594,4.5594,0.0,0.0,0.0,0.0,0.0,0.0,0.0,0.0,0.0,0.0,0.0,2.9794,3.0771,3.0853,0.0,0.0,0.0,0.0,0.0,0.0,0.0,0.0,0.0,3.437,3.4748,3.5284,3.58,3.6234,3.6438,3.6879,3.7436,3.7338,3.7508,3.7943,3.7943,3.8254,3.881,3.8892,3.9322,3.9969,4.0441,0.0,0.0,0.0,0.0,0.0,4.1923,4.1987,0.0,4.1945,4.1973,4.2127,0.0,0.0,0.0,0.0,4.3821,4.3972,4.5461,4.6222,4.6728,4.718,4.7969,4.8796,4.9287,0.0,0.0,0.0,0.0,4.9558,5.0161,5.0591,5.0825,5.0726,5.1888,0.0,0.0,0.0,5.1546,5.1002,5.104,0.0,0.0,0.0,0.0,0.0,0.0,5.0037,5.0037,4.9702,4.9521,4.9521,4.9521,4.9415,4.9214,4.9144,4.9094,4.9027,4.9182,4.9348,4.9565,4.9898,5.013,0.0,0.0,0.0,4.9278,4.844,4.7758,4.7212,4.6423,4.6124,4.6095,4.5753,4.5646,4.5667,0.0,0.0,0.0,0.0,0.0,0.0,0.0,0.0,0.0,0.0,0.0,0.0,0.0,0.0,0.0,0.0,0.0,0.0,0.0,0.0,0.0,0.0,0.0,3.4,3.4434,3.512,3.5795,3.6468,3.6288,3.6813,3.7904,3.7467,3.7305,3.751,3.751,3.7772,3.8169,3.8112,3.8701,3.9688,4.022,0.0,0.0,0.0,0.0,0.0,0.0,0.0,0.0,4.1987,4.2072,4.2163,4.2246,0.0,0.0,0.0,0.0,0.0,4.5947,4.6492,4.6759,4.7794,4.8658,4.9321,4.9461,0.0,0.0,0.0,0.0,0.0,0.0,5.035,0.0,0.0,0.0,0.0,5.2859,5.2101,5.1736,5.2177,0.0,0.0,0.0,0.0,0.0,0.0,0.0,4.9476,4.9476,4.9663,4.9736,4.9736,4.9736,4.9581,4.9337,4.9393,4.9377,4.9289,4.9589,4.9783,4.9835,5.0205,5.0412,0.0,0.0,0.0,5.0533,4.9812,4.9332,4.8929,4.7474,4.6818,4.6634,4.5943,4.5703,4.5717,0.0,0.0,0.0,0.0,0.0,0.0,0.0,0.0,0.0,0.0,0.0,0.0,0.0,0.0,0.0,0.0,0.0,0.0,0.0,0.0,0.0,3.31,3.2691,3.2436,3.2364,3.3487,3.4071,3.4019,3.6192,3.7401,3.7589,3.8059,3.7989,3.751,3.751,3.7569,3.7626,3.7972,3.8427,3.9034,4.002,0.0,0.0,0.0,0.0,0.0,0.0,0.0,0.0,4.2051,4.2136,4.2267,4.2163,0.0,0.0,0.0,0.0,0.0,4.5756,4.6504,4.6897,4.7927,4.8993,4.9797,0.0,0.0,0.0,0.0,0.0,0.0,0.0,4.9979,5.0041,0.0,0.0,5.3063,0.0,0.0,5.2836,5.1547,0.0,0.0,0.0,0.0,0.0,0.0,0.0,4.9824,4.9824,4.9838,4.9852,4.9852,4.9852,4.9855,4.9897,4.9714,4.9645,4.9631,4.986,5.0111,5.0371,5.0392,5.0529,0.0,0.0,5.0443,4.9688,4.956,4.8609,4.719,4.6994,4.6433,4.5778,4.5711,4.568,4.5719,0.0,0.0,0.0,0.0,0.0,0.0,0.0,0.0,0.0,0.0,0.0,0.0,0.0,0.0,0.0,0.0,0.0,0.0,0.0,0.0,0.0,3.2626,3.2354,3.2407,3.2831,3.38,3.4171,3.3995,3.5813,3.6965,3.7525,3.8184,3.8333,3.8017,3.7668,3.751,3.751,3.7685,3.803,3.8539,0.0,0.0,0.0,0.0,0.0,0.0,0.0,0.0,0.0,0.0,4.2163,4.2287,4.2246,0.0,0.0,0.0,0.0,0.0,4.5221,4.6196,4.6974,4.8025,4.9051,4.9821,0.0,0.0,0.0,0.0,0.0,0.0,0.0,0.0,5.2229,5.3139,0.0,5.2684,5.3442,5.2077,0.0,0.0,0.0,0.0,0.0,0.0,0.0,0.0,0.0,0.0,4.9893,4.9893,4.9893,4.9893,4.9476,4.9302,4.9387,4.8999,4.9202,5.0021,5.0333,5.0556,5.0713,5.0276,5.041,5.0975,0.0,5.024,5.0245,5.0262,4.9782,4.8938,4.8036,4.7465,4.7001,4.6105,4.5734,4.5749,0.0,0.0,0.0,0.0,0.0,0.0,0.0,0.0,0.0,0.0,0.0,0.0,0.0,0.0,0.0,0.0,0.0,0.0,0.0,0.0,3.2137,3.2409,3.2227,3.2469,3.3093,3.4008,3.4434,3.4229,3.5687,3.6904,3.7964,3.8466,3.8649,3.8491,3.7796,3.751,3.751,3.751,3.7801,3.8371,0.0,0.0,0.0,0.0,0.0,0.0,0.0,0.0,0.0,0.0,0.0,0.0,0.0,0.0,0.0,4.2729,4.2957,4.3396,4.4807,4.5826,4.6794,4.7905,0.0,0.0,0.0,0.0,0.0,0.0,0.0,0.0,0.0,5.2267,0.0,5.5072,5.3669,5.2532,5.2935,0.0,0.0,0.0,0.0,0.0,0.0,0.0,0.0,0.0,0.0,0.0,4.9893,4.9893,4.9817,4.9627,4.9035,4.8731,4.8706,4.827,4.8643,4.9836,5.0193,5.0347,5.0347,4.9776,4.9983,5.0745,5.0022,5.0179,5.0898,5.0898,5.0782,5.0473,4.9204,4.8592,4.8244,4.6714,4.6141,4.6085,0.0,0.0,0.0,0.0,0.0,0.0,0.0,0.0,0.0,0.0,0.0,0.0,0.0,0.0,0.0,0.0,0.0,0.0,0.0,0.0,3.1857,3.2979,3.2334,3.187,3.1766,3.3142,3.3825,3.3768,3.6195,3.8089,3.9345,3.9408,3.9092,3.8491,3.7796,3.751,3.751,3.751,3.7976,3.8816,3.9439,0.0,0.0,0.0,0.0,0.0,0.0,0.0,0.0,0.0,0.0,0.0,0.0,0.0,4.2589,4.2609,4.3105,4.3878,4.492,4.5567,4.6197,4.7212,4.8123,0.0,0.0,0.0,0.0,0.0,0.0,0.0,0.0,5.1319,5.1661,5.2518,5.2518,5.2949,5.4503,0.0,0.0,0.0,0.0,0.0,0.0,0.0,0.0,0.0,0.0,0.0,4.9893,4.9893,4.9551,4.8831,4.8857,4.863,4.8058,4.8197,4.8315,4.847,4.8671,4.8782,4.8743,4.8637,4.9071,4.9899,4.9773,5.0162,5.0898,5.0898,5.0473,4.9784,4.9668,4.9149,4.8365,4.7435,4.7087,4.6971,0.0,0.0,0.0,0.0,0.0,0.0,0.0,0.0,0.0,0.0,0.0,0.0,0.0,0.0,0.0,0.0,0.0,0.0,0.0,3.1857,3.2083,3.2517,3.2254,3.2,3.178,3.2775,3.3492,3.391,3.6942,3.881,3.9503,3.9977,3.9787,3.9092,3.8428,3.7891,3.751,3.751,3.7831,3.8455,3.9256,4.0043,0.0,0.0,0.0,0.0,0.0,0.0,0.0,0.0,4.2308,4.2308,4.2308,4.245,4.2609,4.2609,4.3032,4.3614,4.4177,4.4998,4.5857,4.6428,0.0,0.0,0.0,0.0,0.0,0.0,0.0,0.0,0.0,0.0,5.3594,5.3897,5.3101,5.2821,0.0,0.0,0.0,0.0,0.0,0.0,0.0,0.0,0.0,0.0,0.0,0.0,4.9855,4.9011,4.8603,4.8831,4.799,4.7472,4.7394,4.6962,4.677,4.6893,4.8054,4.8615,4.861,4.8516,4.8948,4.9748,4.9705,5.014,5.0898,5.0898,5.0705,5.0395,4.99,4.8863,4.7608,4.7319,4.6809,4.6292,0.0,0.0,0.0,0.0,0.0,0.0,0.0,0.0,0.0,0.0,0.0,0.0,0.0,0.0,0.0,0.0,0.0,0.0,3.1911,3.1911,3.2028,3.2191,3.2146,3.2,3.1817,3.248,3.3248,3.4182,3.7298,3.9094,3.9503,4.0008,4.0071,3.9724,3.8871,3.8208,3.7705,3.7575,3.786,3.8451,3.9256,4.0043,0.0,0.0,0.0,0.0,0.0,0.0,0.0,0.0,4.2308,4.2308,4.2328,4.2573,4.2808,4.2825,4.3284,4.3823,4.3949,4.4632,4.542,0.0,0.0,0.0,0.0,0.0,0.0,0.0,0.0,0.0,0.0,0.0,0.0,0.0,5.3133,0.0,0.0,0.0,0.0,0.0,0.0,0.0,0.0,0.0,0.0,0.0,0.0,0.0,0.0,4.8498,4.8127,4.8192,4.7289,4.6722,4.6605,4.6119,4.5917,4.6041,4.7472,4.8159,4.8204,4.8412,4.8921,4.9688,4.9427,4.9753,5.0511,5.0511,5.0666,5.0821,5.0031,4.8963,4.7893,4.7371,4.6797,4.6242,0.0,0.0,0.0,0.0,0.0,0.0,0.0,0.0,2.8018,2.7551,2.8235,0.0,0.0,0.0,0.0,0.0,0.0,0.0,3.1314,3.1314,3.1558,3.2191,3.2,3.1817,3.1622,3.2155,3.3108,3.4526,3.7187,3.8839,3.9503,3.9503,3.9787,4.0257,3.903,3.84,3.8152,3.7705,3.8059,3.9055,3.9518,4.0397,4.1458,0.0,0.0,0.0,0.0,0.0,0.0,0.0,4.2308,4.2328,4.2445,4.2865,4.3316,4.3302,4.3902,4.4565,4.4426,4.4605,4.4815,0.0,0.0,0.0,0.0,0.0,0.0,0.0,0.0,0.0,0.0,0.0,0.0,5.2303,0.0,0.0,0.0,0.0,0.0,0.0,0.0,0.0,0.0,0.0,0.0,0.0,0.0,0.0,0.0,4.8437,4.8192,4.676,4.6908,4.6605,4.5807,4.5941,4.6002,4.6041,4.6828,4.7242,4.735,4.8128,4.8941,4.9642,4.8791,4.8924,4.9707,4.9707,5.0171,5.0828,5.0022,4.9716,4.955,4.7844,4.7242,4.715,0.0,0.0,0.0,0.0,0.0,0.0,0.0,0.0,2.8099,2.7841,2.7857,0.0,0.0,0.0,0.0,0.0,0.0,0.0,3.1911,3.1911,3.2028,3.2191,3.2146,3.2336,3.2853,3.4192,3.4969,3.5142,3.7406,3.8557,3.8685,3.9629,3.966,3.8905,3.9,3.8559,3.7705,3.7575,3.8059,3.9055,3.9518,4.0397,4.1458,0.0,0.0,0.0,0.0,0.0,0.0,0.0,0.0,0.0,4.2501,4.2746,4.3051,4.3196,4.3681,4.4185,4.4244,4.4486,0.0,4.4738,0.0,0.0,0.0,0.0,0.0,0.0,0.0,0.0,0.0,0.0,0.0,0.0,0.0,0.0,0.0,0.0,0.0,0.0,0.0,0.0,0.0,0.0,0.0,0.0,0.0,0.0,0.0,4.7775,4.7222,4.6908,4.6526,4.618,4.5947,4.5986,4.6307,4.6929,4.772,4.7805,4.7275,4.8681,4.9458,4.9683,4.9442,4.9775,5.055,5.055,5.0333,5.0015,4.9797,4.8973,4.7921,4.7442,4.686,4.6272,0.0,0.0,0.0,0.0,0.0,0.0,0.0,0.0,2.8219,2.7921,2.776,2.7898,0.0,0.0,0.0,0.0,0.0,0.0,0.0,3.2218,3.2218,3.2218,3.2336,3.2791,3.3688,3.4824,3.5659,3.6148,3.7402,3.8278,3.881,3.9251,3.9313,3.8968,3.8905,3.8622,3.8056,3.7671,3.8087,3.9109,3.9587,4.047,4.1525,0.0,0.0,0.0,0.0,0.0,0.0,0.0,0.0,0.0,4.2465,4.2825,4.3284,4.3374,4.3828,4.4288,4.4345,4.4513,0.0,4.4712,4.4712,4.5025,4.6271,0.0,0.0,0.0,0.0,5.0855,0.0,0.0,0.0,0.0,0.0,0.0,0.0,0.0,0.0,0.0,0.0,0.0,0.0,0.0,0.0,0.0,0.0,0.0,0.0,4.7577,4.7264,4.7114,4.7045,4.7045,4.7045,4.7045,4.7317,4.7822,4.8625,4.8561,4.7779,4.91,4.9543,4.9209,4.9216,4.9294,4.9434,4.9768,4.9628,4.9199,4.885,4.8102,4.7203,4.6917,4.6418,4.5953,0.0,0.0,2.6076,2.6512,0.0,0.0,0.0,0.0,2.8363,2.8032,2.7968,2.8042,0.0,0.0,0.0,0.0,0.0,0.0,0.0,0.0,3.2218,3.2218,3.2607,3.3215,3.4169,3.4676,3.5741,3.7404,3.741,3.8057,3.9377,3.8685,3.8874,3.9681,3.8717,3.8466,3.8778,3.7897,3.8116,3.9162,3.969,4.0566,4.1582,4.21,0.0,0.0,0.0,0.0,0.0,0.0,0.0,0.0,4.2414,4.3051,4.3754,4.3742,4.4162,4.4646,4.4619,4.4646,4.4699,4.4699,4.4736,0.0,4.5665,4.8228,5.0482,5.0482,0.0,5.0635,5.0482,0.0,0.0,0.0,0.0,0.0,0.0,0.0,0.0,0.0,0.0,0.0,0.0,0.0,0.0,0.0,0.0,0.0,0.0,4.7681,4.7907,4.7312,4.8055,4.8405,4.825,4.8405,4.8444,4.8366,4.9264,4.9245,4.8508,4.9329,4.9276,4.8496,4.8502,4.8114,4.7488,4.8301,4.8618,4.8528,4.776,4.7397,4.7195,4.6418,4.6053,4.6002,0.0,0.0,2.6581,2.7068,0.0,0.0,0.0,0.0,0.0,2.875,0.0,0.0,0.0,0.0,0.0,0.0,0.0,0.0,0.0,0.0,3.2218,3.2218,3.3019,3.3723,3.4197,3.5819,3.7162,3.8157,3.8175,3.8304,3.8559,3.8748,3.8435,3.7686,3.7966,3.7872,3.7588,3.7515,3.7886,3.8585,3.9502,4.0314,4.1001,4.1959,4.2308,0.0,0.0,0.0,0.0,0.0,0.0,0.0,4.2715,4.3087,4.351,4.3965,4.4147,4.4302,4.4619,4.4646,0.0,4.4699,4.5108,4.5731,4.6656,4.7828,4.8739,4.8739,4.928,4.958,4.8867,0.0,0.0,0.0,0.0,0.0,0.0,0.0,0.0,0.0,0.0,0.0,0.0,0.0,0.0,0.0,0.0,0.0,4.7928,4.755,4.7287,4.7312,4.7473,4.6968,4.5647,4.6929,4.724,0.0,4.806,4.8353,4.7616,4.9091,4.931,4.8535,4.9153,4.934,4.9224,5.0039,5.0008,4.9424,4.9231,4.8419,4.7272,4.7078,4.6596,4.6002,0.0,0.0,0.0,0.0,0.0,0.0,0.0,0.0,0.0,0.0,0.0,0.0,0.0,2.8201,0.0,0.0,2.9986,3.0895,3.0895,3.1726,3.2363,3.2731,3.3035,3.3768,3.4901,3.6144,3.7439,3.8846,3.8774,3.8797,3.8873,3.8748,3.8279,3.759,3.7591,3.784,3.8152,3.7705,3.8022,3.891,3.9618,4.0241,4.0827,4.1881,4.2308,4.2287,4.2225,0.0,0.0,0.0,0.0,0.0,0.0,0.0,4.3791,4.4057,4.4229,4.4331,4.4592,0.0,0.0,4.4725,0.0,4.6454,4.6641,4.7545,4.8282,4.7905,4.8451,4.8731,4.7866,0.0,0.0,0.0,0.0,0.0,0.0,0.0,0.0,0.0,0.0,0.0,0.0,0.0,0.0,0.0,0.0,4.7981,4.7673,4.7326,4.6815,4.6147,4.6463,4.6268,4.5375,4.623,4.6463,4.6041,4.7728,4.8332,4.7932,4.8367,4.8309,4.7915,4.8734,4.8657,4.7992,4.8805,4.8889,4.8496,4.8089,4.7681,4.7233,4.6824,4.6374,4.6002,0.0,0.0,0.0,0.0,0.0,0.0,0.0,0.0,0.0,0.0,0.0,0.0,0.0,2.7945,2.8275,0.0,0.0,0.0,3.067,3.1653,3.2516,3.3269,3.2917,3.3533,3.5324,3.5876,3.7034,3.8811,3.8983,3.9137,0.0,0.0,0.0,3.7995,3.7429,3.7901,3.9062,3.8083,3.8253,3.9289,3.9866,4.0269,4.0709,4.186,4.2308,4.2287,4.2267,4.2178,4.2023,4.1966,0.0,0.0,0.0,0.0,4.4177,4.4199,4.4354,4.4496,4.4578,4.4592,4.4632,4.4776,4.5783,0.0,4.6241,4.7201,4.7984,4.7378,4.778,4.7998,4.7208,0.0,0.0,0.0,0.0,0.0,0.0,0.0,0.0,0.0,0.0,0.0,0.0,0.0,0.0,0.0,0.0,4.8421,4.7105,4.6944,4.623,4.4831,4.5453,4.5652,4.5341,4.5652,4.5652,4.538,4.7112,4.8066,4.8353,4.7689,4.7327,4.7223,4.7888,4.7521,4.644,4.6991,4.7378,4.7636,4.6735,4.6851,4.7422,4.6668,4.6252,4.5991,0.0,0.0,0.0,0.0,0.0,0.0,0.0,0.0,0.0,0.0,2.8704,2.8456,2.8184,2.7689,2.7371,2.7371,2.8275,2.9121,2.9819,0.0,0.0,3.3269,3.2917,3.3142,3.4139,3.5045,3.5952,3.6783,3.7994,0.0,0.0,0.0,0.0,3.7304,0.0,0.0,3.8434,3.8399,3.8459,3.8732,4.0186,4.046,4.0158,4.1696,4.2308,4.2287,4.2184,4.2058,4.1966,4.188,4.2231,0.0,0.0,0.0,4.4185,4.4468,4.451,4.4496,4.4578,0.0,4.4632,0.0,4.4915,4.5268,0.0,0.0,4.6479,0.0,4.717,4.7327,4.6633,0.0,0.0,0.0,0.0,0.0,0.0,0.0,0.0,0.0,0.0,0.0,0.0,0.0,0.0,0.0,4.7146,4.6723,4.7212,4.5908,4.5025,4.4792,4.4909,4.4248,4.2738,4.421,4.421,4.2738,4.4433,4.5995,4.7424,4.7977,4.7861,4.7223,4.7295,4.763,4.803,4.7376,4.8026,4.9304,4.8421,4.8185,4.8309,4.8128,4.7191,4.6003,0.0,0.0,0.0,0.0,0.0,0.0,0.0,0.0,0.0,0.0,0.0,2.7964,2.7718,2.7387,2.719,2.719,2.7995,2.9042,3.0291,3.1505,3.2516,3.3269,3.2917,3.3393,3.4875,3.5605,3.6446,3.7434,3.8075,0.0,0.0,3.7777,3.7432,0.0,0.0,0.0,0.0,0.0,3.8618,3.9722,4.0159,4.0113,3.991,0.0,4.1981,4.1619,4.2083,4.2142,4.2016,4.1945,4.2418,4.3051,4.3122,0.0,0.0,0.0,4.451,4.4496,4.4578,4.4592,4.4648,0.0,4.538,4.5753,4.5956,0.0,4.6522,4.6185,4.626,4.633,0.0,0.0,0.0,0.0,0.0,0.0,0.0,0.0,0.0,0.0,0.0,0.0,0.0,0.0,0.0,0.0,4.7107,4.6463,4.5853,4.4704,4.3627,4.2656,4.2617,4.2495,4.2208,4.2946,4.3441,4.3618,4.431,4.5028,4.5764,4.6622,4.7041,4.7125,4.7125,4.6816,4.6196,4.537,4.6035,4.7488,4.6635,4.692,4.7721,4.7204,4.6564,4.5929,0.0,0.0,0.0,0.0,0.0,0.0,0.0,0.0,0.0,0.0,0.0,2.7591,2.7254,0.0,0.0,0.0,2.77,2.8665,3.0286,3.1609,3.2624,3.3269,3.3023,3.3612,3.5218,3.5649,3.6399,3.755,3.774,0.0,3.7933,3.7491,3.7178,0.0,3.7359,0.0,0.0,0.0,0.0,0.0,0.0,3.9876,0.0,0.0,0.0,0.0,4.1655,4.1863,4.1795,0.0,0.0,0.0,0.0,0.0,0.0,0.0,0.0,4.4496,0.0,0.0,4.4764,4.5114,4.5716,4.6147,0.0,0.0,4.6788,0.0,4.5945,4.6022,0.0,0.0,0.0,0.0,0.0,0.0,0.0,0.0,0.0,0.0,0.0,0.0,0.0,0.0,0.0,0.0,4.6854,4.6057,4.4788,4.3728,4.2461,4.0946,4.0907,4.1209,4.1849,4.1883,4.2482,4.3695,4.3892,4.3957,4.4002,4.5073,4.5789,4.6148,4.6588,4.6098,4.4886,4.4021,4.4699,4.6113,4.5066,4.5731,4.7094,4.6197,4.5893,4.5899,0.0,0.0,0.0,0.0,0.0,0.0,0.0,0.0,0.0,0.0,0.0,2.7985,2.7277,2.719,2.719,2.719,2.6835,2.7277,2.8913,3.1279,3.2846,3.3269,3.3262,0.0,3.3996,3.4293,3.4802,3.5549,3.6194,3.6693,3.7062,3.7331,3.721,3.6754,3.7271,3.7891,3.8586,0.0,0.0,0.0,4.0304,4.0191,0.0,0.0,0.0,0.0,0.0,0.0,0.0,0.0,0.0,0.0,0.0,0.0,4.4079,0.0,0.0,0.0,0.0,4.4726,0.0,4.5156,4.5387,0.0,0.0,0.0,0.0,4.613,4.6634,4.6985,0.0,0.0,0.0,0.0,0.0,0.0,0.0,0.0,0.0,0.0,0.0,0.0,0.0,0.0,0.0,0.0,4.5786,4.4793,4.4711,4.3146,4.184,4.0946,4.0907,4.0907,4.0985,4.0956,4.0969,4.102,4.1838,4.2246,4.2285,4.3918,4.4253,4.3595,4.5221,4.59,4.5777,4.4885,4.5529,4.689,4.522,4.5673,4.7094,4.613,4.5834,4.59,0.0,0.0,0.0,0.0,0.0,0.0,0.0,0.0,0.0,0.0,0.0,0.0,0.0,2.719,2.719,2.719,2.768,2.8308,2.9098,3.0663,3.1985,3.3022,3.2811,3.3212,3.4447,3.4844,3.5347,3.5995,3.6754,3.7119,3.7119,3.7391,3.7329,3.7028,3.7359,3.7829,3.8338,3.8271,0.0,0.0,3.9373,3.9092,0.0,0.0,0.0,0.0,0.0,0.0,0.0,0.0,0.0,0.0,0.0,0.0,4.434,4.4454,4.4482,0.0,0.0,0.0,0.0,4.5314,4.547,4.5638,4.5968,4.6246,4.6415,4.6169,4.6376,4.6505,0.0,0.0,0.0,0.0,0.0,0.0,0.0,0.0,0.0,0.0,0.0,0.0,0.0,0.0,0.0,0.0,0.0,4.3889,4.3862,4.2281,4.1218,4.0907,4.0907,4.116,4.1668,4.2183,4.2154,4.1582,4.2454,4.2293,4.1331,4.3021,4.3285,4.2512,4.3724,4.4234,4.4157,4.3292,4.3956,4.544,4.484,4.5318,4.6242,4.5349,4.5415,4.5815,0.0,0.0,0.0,3.1158,0.0,3.0403,3.0403,2.9187,2.8282,2.8282,0.0,0.0,0.0,0.0,2.7174,2.7046,2.8215,2.9008,2.9145,3.046,3.1729,3.2849,3.2642,3.3123,3.4447,3.4806,3.5305,3.6025,3.6414,3.6674,0.0,3.6983,3.6924,3.6715,3.7265,3.7703,0.0,0.0,0.0,3.9242,0.0,3.8656,3.8899,0.0,0.0,0.0,0.0,0.0,0.0,0.0,0.0,0.0,0.0,4.3548,4.4482,4.4482,0.0,0.0,4.4551,0.0,0.0,0.0,4.551,4.5751,4.6065,0.0,4.6537,4.6258,4.6417,4.6537,0.0,0.0,0.0,0.0,0.0,0.0,0.0,0.0,0.0,0.0,0.0,0.0,0.0,0.0,0.0,0.0,0.0,0.0,4.3418,4.1805,4.0907,4.0907,4.0907,4.1155,4.1679,4.2199,4.2169,4.1583,4.2164,4.1893,4.0855,4.1932,4.2125,4.1622,4.2202,4.2783,4.3285,4.2976,4.3569,4.4589,4.4607,4.5117,4.5764,4.4917,4.5151,4.5834,3.049,3.0741,3.0984,3.0984,3.0561,3.0188,3.0188,2.9149,2.8328,2.8305,0.0,0.0,0.0,0.0,0.0,2.6818,2.8313,2.9161,2.8932,3.0764,3.2168,3.2825,3.2882,3.3197,3.3854,3.4061,3.455,3.537,3.5091,0.0,0.0,0.0,3.5996,3.5762,3.6955,3.7478,3.7512,0.0,3.8642,3.8841,0.0,3.895,3.9846,0.0,0.0,0.0,3.96,3.96,0.0,0.0,0.0,0.0,0.0,0.0,4.4482,0.0,0.0,0.0,0.0,0.0,0.0,0.0,0.0,0.0,4.5942,0.0,4.721,4.6375,4.6852,4.721,0.0,0.0,0.0,0.0,0.0,0.0,0.0,0.0,0.0,0.0,0.0,0.0,0.0,0.0,0.0,0.0,4.4383,4.3418,4.3418,4.1805,4.0907,4.0907,4.0907,4.0883,4.0787,4.0787,4.0798,4.0816,4.0816,4.0816,4.0816,4.0816,4.0816,4.0816,4.0816,4.1699,4.3285,4.4168,4.4594,4.4594,4.4632,4.5104,4.5691,4.491,4.5157,4.5917,3.0124,3.0519,3.0939,3.0736,3.0596,3.0503,3.0503,2.9746,2.9017,0.0,0.0,0.0,0.0,0.0,2.7198,2.7165,2.8077,2.8747,2.8972,2.9983,3.0977,3.1861,3.2094,3.2506,3.3168,3.4398,3.4852,3.4458,0.0,0.0,0.0,0.0,0.0,0.0,3.6391,3.6827,3.73,3.764,0.0,0.0,3.7981,3.8479,0.0,0.0,0.0,0.0,0.0,3.9954,4.0359,0.0,4.0526,4.1967,0.0,0.0,0.0,0.0,0.0,0.0,4.4565,0.0,0.0,0.0,0.0,0.0,4.5595,4.6057,4.6362,4.6124,4.6337,4.6495,4.6258,0.0,0.0,0.0,0.0,0.0,0.0,0.0,0.0,0.0,0.0,0.0,0.0,0.0,0.0,0.0,4.436,4.3418,4.3418,4.1805,4.0907,4.0907,4.0888,4.0863,4.0787,4.0804,4.0814,4.0816,4.0816,4.0816,4.0816,4.0816,4.0816,4.0816,4.0816,4.1048,4.1583,4.3053,4.402,4.4671,4.5258,4.5641,4.5764,4.4983,4.5254,4.5959,2.9925,3.0274,3.0621,3.0433,3.0386,3.036,3.0346,3.0,2.9589,0.0,0.0,0.0,0.0,0.0,0.0,2.8875,2.945,2.9915,3.0223,3.0513,3.1017,3.1809,3.1865,3.2184,3.281,3.4156,0.0,0.0,0.0,0.0,0.0,0.0,0.0,0.0,3.7112,0.0,0.0,0.0,0.0,0.0,3.8127,0.0,0.0,3.9522,3.9997,0.0,0.0,0.0,4.0678,3.9776,4.0657,0.0,0.0,0.0,0.0,0.0,0.0,0.0,0.0,0.0,0.0,0.0,0.0,0.0,4.5428,4.5705,4.5936,0.0,4.6134,4.6219,4.6219,0.0,0.0,0.0,0.0,0.0,0.0,0.0,0.0,0.0,0.0,0.0,0.0,4.6047,4.5986,4.5953,4.4366,4.3081,4.2405,4.1432,4.0907,4.0907,4.0917,4.0853,4.0787,4.0792,4.0802,4.0816,4.0816,4.0816,4.0816,4.0816,4.0816,4.0816,4.0816,4.0816,4.0893,4.2202,4.3299,4.4176,4.5034,4.5583,4.5869,4.5404,4.5618,4.6039,0.0,3.0001,3.0163,3.0118,3.0154,3.0205,3.0152,3.0271,3.0163,0.0,0.0,0.0,0.0,0.0,0.0,0.0,3.1466,3.1796,3.1931,3.1711,3.1782,3.2176,3.2062,3.2179,3.2557,3.3706,0.0,0.0,0.0,0.0,0.0,0.0,0.0,0.0,3.8044,3.8266,0.0,0.0,0.0,3.9242,3.8447,3.9135,0.0,0.0,4.1102,0.0,4.1401,4.1034,4.0698,3.9903,4.0388,0.0,0.0,0.0,0.0,0.0,4.425,0.0,0.0,0.0,0.0,0.0,0.0,0.0,4.5343,4.5573,4.577,4.5963,4.6074,4.6154,4.6158,4.6165,0.0,0.0,0.0,0.0,0.0,0.0,0.0,0.0,0.0,0.0,4.6329,4.6221,4.6124,4.5997,4.4389,4.271,4.1131,4.0946,4.0907,4.0907,4.0917,4.0853,4.0787,4.0792,4.0802,4.0816,4.0816,4.0816,4.0816,4.0816,4.0816,4.0816,4.0816,4.0816,4.0855,4.1673,4.2562,4.3507,4.4354,4.5254,4.6007,4.6007,4.6042,4.6122,2.9995,2.9981,3.0029,3.0018,3.056,3.0984,3.0968,3.1488,3.1712,3.1238,3.0791,0.0,0.0,0.0,0.0,0.0,3.1431,3.17,3.1772,3.2112,3.204,3.1507,3.2262,3.244,3.1905,3.4241,3.527,0.0,0.0,0.0,0.0,0.0,0.0,0.0,3.5887,3.6175,0.0,0.0,0.0,3.8674,3.7959,0.0,4.0061,4.0511,4.108,4.1709,4.1964,4.1563,4.0907,0.0,4.0559,4.0943,0.0,0.0,0.0,0.0,0.0,0.0,0.0,0.0,0.0,0.0,0.0,0.0,4.4924,4.5072,4.5266,4.5349,4.5611,4.5828,4.5875,4.5998,0.0,0.0,0.0,0.0,0.0,0.0,0.0,0.0,0.0,0.0,4.7185,4.7142,4.68,4.6053,4.4395,4.2953,4.1999,4.1286,4.0907,4.0907,4.0917,4.0853,4.0787,4.0792,4.0802,4.0816,4.0816,4.0816,4.0816,4.0816,4.0816,4.0816,4.0816,4.0816,4.0855,4.1722,4.2604,4.3507,4.4354,4.5276,4.6065,4.6065,4.613,4.6165,3.1154,3.1163,3.1129,3.1095,3.1442,3.1694,3.1642,3.2198,3.2405,3.1949,3.1672,0.0,0.0,0.0,0.0,0.0,0.0,0.0,0.0,3.3384,3.3095,3.2618,3.302,3.3015,3.2557,3.4607,3.5795,3.5951,0.0,0.0,0.0,0.0,0.0,0.0,0.0,0.0,0.0,0.0,3.8057,3.8678,3.8482,0.0,3.9935,4.026,4.0861,4.1464,4.1308,4.0813,4.0217,4.0031,4.0278,0.0,0.0,4.177,4.1994,0.0,4.3363,4.3287,0.0,0.0,0.0,4.4712,0.0,0.0,0.0,4.4988,4.5156,4.5266,4.5458,4.5611,4.5648,0.0,4.5903,0.0,0.0,0.0,0.0,0.0,0.0,0.0,0.0,0.0,4.7435,4.7423,4.6843,4.552,4.4561,4.3513,4.2286,4.1781,4.1354,4.0927,4.0858,4.0832,4.0804,4.0787,4.0802,4.0816,4.0816,4.0816,4.0816,4.0816,4.0816,4.0816,4.0816,4.0796,4.0864,4.1751,4.2415,4.2966,4.4248,4.5308,4.615,4.615,4.6162,4.6219,3.2344,3.228,3.2265,3.2197,3.2305,3.2395,3.2336,3.2809,3.3037,3.2668,0.0,0.0,0.0,0.0,0.0,0.0,0.0,0.0,0.0,0.0,3.391,3.3482,3.3819,3.3767,3.331,3.4863,3.623,3.7379,0.0,0.0,0.0,0.0,0.0,0.0,0.0,0.0,0.0,0.0,0.0,3.8679,0.0,3.9435,3.9791,3.9935,4.045,4.1006,4.0141,3.9694,3.9488,3.9364,0.0,4.0778,4.0961,4.1173,0.0,0.0,0.0,0.0,0.0,0.0,0.0,0.0,0.0,4.4739,0.0,0.0,0.0,4.5255,4.5371,0.0,0.0,0.0,0.0,0.0,0.0,0.0,0.0,0.0,0.0,0.0,0.0,0.0,0.0,4.7315,4.6571,4.5162,4.487,4.4054,4.2519,4.2306,4.182,4.0912,4.1003,4.097,4.0814,4.0969,4.0957,4.0816,4.0816,4.0816,4.0816,4.0816,4.09,4.1028,4.0873,4.0909,4.1119,4.1828,4.2194,4.2455,4.4167,4.5286,4.5985,4.6141,4.6219,4.6219,3.26,3.2117,3.209,3.2109,3.2651,3.3086,3.3101,3.3744,0.0,0.0,0.0,0.0,0.0,0.0,0.0,0.0,0.0,0.0,3.4191,0.0,0.0,3.1995,3.4081,3.4547,3.2987,3.491,3.6544,3.7729,3.7091,0.0,0.0,0.0,0.0,0.0,3.6274,0.0,0.0,0.0,3.719,0.0,3.8776,3.898,0.0,3.974,3.9885,3.9606,3.8818,3.8959,3.9488,0.0,3.987,4.0672,0.0,4.0896,4.0246,0.0,0.0,0.0,0.0,0.0,0.0,0.0,4.4802,0.0,0.0,0.0,4.4764,4.4852,0.0,0.0,0.0,0.0,0.0,0.0,0.0,0.0,0.0,0.0,0.0,0.0,0.0,0.0,0.0,4.6781,4.6212,4.5953,4.5269,4.4413,4.3424,4.2684,4.1846,4.0942,4.1655,4.1651,4.0814,4.1588,4.1576,4.0816,4.0816,4.0816,4.0816,4.0816,4.1234,4.1912,4.1131,4.128,4.2034,4.2192,4.2291,4.2455,4.4167,4.4896,4.5127,4.5907,4.6219,4.6219,3.4782,3.4242,3.4101,3.4469,3.4491,3.4473,3.4473,3.4427,0.0,0.0,0.0,0.0,0.0,0.0,0.0,0.0,0.0,3.3781,0.0,0.0,0.0,0.0,3.4869,3.5056,3.384,3.5392,3.6638,3.7635,3.6938,0.0,0.0,0.0,0.0,0.0,3.6261,0.0,3.7341,0.0,0.0,0.0,0.0,0.0,0.0,3.8916,3.8569,3.8037,3.793,3.7962,3.8104,0.0,3.9147,0.0,0.0,0.0,0.0,0.0,0.0,0.0,0.0,0.0,0.0,0.0,0.0,0.0,4.4229,0.0,4.4827,0.0,0.0,0.0,0.0,0.0,0.0,0.0,4.536,0.0,0.0,0.0,0.0,0.0,0.0,0.0,0.0,0.0,0.0,0.0,4.5792,4.5216,4.4362,4.3475,4.259,4.1673,4.15,4.1214,4.0814,4.1666,4.1653,4.0816,4.1777,4.1738,4.0816,4.1317,4.1463,4.1336,4.1018,4.1097,4.1535,4.2097,4.2311,4.2489,4.4207,4.488,4.5011,4.5868,4.6219,4.6219,3.6838,0.0,0.0,0.0,3.5822,3.5595,3.5421,0.0,0.0,0.0,0.0,0.0,3.4138,3.3993,0.0,0.0,3.3819,3.3984,0.0,0.0,3.438,0.0,0.0,0.0,0.0,3.6229,3.7283,3.7975,3.7458,0.0,0.0,0.0,0.0,0.0,0.0,3.7459,3.8089,0.0,0.0,3.8655,3.8766,3.8586,3.8247,3.807,3.7565,3.6978,3.7146,3.7143,3.713,3.7848,3.848,0.0,3.9231,0.0,0.0,0.0,0.0,0.0,4.2154,0.0,0.0,0.0,0.0,0.0,0.0,0.0,0.0,0.0,0.0,0.0,0.0,0.0,0.0,0.0,0.0,4.5275,0.0,0.0,0.0,0.0,0.0,0.0,0.0,0.0,0.0,4.6107,4.6115,4.5772,4.4922,4.4257,4.3363,4.2222,4.1761,4.1275,4.0814,4.1659,4.1647,4.0816,4.2048,4.197,4.0816,4.1457,4.153,4.1163,4.0985,4.1107,4.1381,4.1809,4.1983,4.212,4.3877,4.454,4.4695,4.579,4.6219,4.6219,3.8144,3.7128,0.0,0.0,0.0,3.6054,0.0,0.0,0.0,0.0,0.0,0.0,0.0,0.0,0.0,0.0,0.0,3.2963,3.3871,0.0,3.3259,0.0,0.0,3.6446,0.0,0.0,3.8756,3.9222,3.9115,0.0,0.0,0.0,0.0,0.0,0.0,3.8321,3.8887,3.7921,3.8025,3.8788,3.8788,3.805,3.7015,0.0,3.7182,3.6775,3.6466,0.0,0.0,3.7848,3.8128,0.0,0.0,0.0,0.0,0.0,0.0,0.0,0.0,0.0,0.0,4.3208,0.0,0.0,0.0,0.0,4.3974,0.0,0.0,0.0,0.0,0.0,0.0,0.0,0.0,0.0,0.0,0.0,0.0,0.0,0.0,0.0,0.0,0.0,0.0,4.6111,4.6165,4.5818,4.4943,4.4802,4.3955,4.2233,4.2915,4.2521,4.0814,4.1602,4.1583,4.0816,4.0855,4.0855,4.0816,4.0837,4.1324,4.2116,4.1345,4.1462,4.2198,4.1458,4.1146,4.1302,4.2978,4.364,4.3835,4.5553,4.6219,4.6219,0.0,0.0,0.0,0.0,0.0,0.0,0.0,3.5096,0.0,0.0,0.0,0.0,0.0,3.3906,3.379,0.0,0.0,3.3421,3.3119,3.3464,0.0,0.0,0.0,3.6196,0.0,0.0,0.0,0.0,0.0,0.0,0.0,0.0,0.0,0.0,0.0,3.889,0.0,0.0,0.0,0.0,0.0,3.8073,3.7161,0.0,0.0,3.5572,3.5383,3.5644,0.0,3.6367,3.6973,3.761,3.738,3.8042,3.8845,3.8585,3.8907,0.0,0.0,0.0,3.9953,4.1145,0.0,0.0,0.0,0.0,0.0,0.0,0.0,0.0,0.0,0.0,0.0,0.0,0.0,0.0,0.0,0.0,0.0,0.0,0.0,0.0,0.0,0.0,0.0,4.6068,4.5597,4.5406,4.574,4.5161,4.4513,4.3951,4.3014,4.2261,4.1668,4.1886,4.1854,4.1622,4.2795,4.3084,4.2509,4.2563,4.2455,4.2201,4.1427,4.1526,4.2276,4.2003,4.2552,4.3682,4.4228,4.4812,4.5397,4.5981,4.6219,4.6219,3.9889,0.0,0.0,0.0,0.0,0.0,0.0,0.0,0.0,0.0,3.4467,0.0,3.4399,0.0,3.4341,0.0,3.4345,3.4182,3.3533,3.4105,0.0,3.4147,3.5638,0.0,0.0,0.0,0.0,0.0,0.0,3.8725,0.0,0.0,0.0,0.0,0.0,0.0,3.898,0.0,3.8738,0.0,0.0,3.7963,0.0,0.0,3.6082,3.5276,0.0,3.5144,3.5611,3.5611,3.6227,3.6926,3.6456,3.729,3.8374,3.7848,3.8269,3.8845,3.8845,3.8725,0.0,3.9814,3.9934,0.0,4.1431,0.0,0.0,0.0,0.0,0.0,0.0,0.0,0.0,0.0,0.0,0.0,0.0,4.4974,0.0,0.0,0.0,0.0,0.0,0.0,4.5458,4.6044,4.5572,4.5538,0.0,0.0,4.5065,4.4754,4.3629,4.2726,4.2094,4.2053,4.2034,4.2047,4.3212,4.3674,4.3424,4.3466,4.3229,4.2692,4.2185,4.2276,4.2744,4.2432,4.2942,4.3994,4.4306,4.4773,4.5358,4.5981,4.6219,4.6219,4.0863,4.0935,0.0,0.0,3.7451,0.0,0.0,0.0,3.4997,0.0,3.4635,3.4433,3.4433,3.4433,3.4695,3.5339,3.5189,3.5038,3.4909,3.5574,0.0,0.0,3.621,3.6749,3.6898,0.0,0.0,0.0,0.0,0.0,0.0,0.0,0.0,0.0,3.9315,0.0,3.9013,3.8876,3.8738,3.8604,3.8572,3.7726,3.6541,3.6476,3.6193,3.577,3.5009,3.5075,3.5543,3.5566,3.5876,3.6262,3.6284,3.6629,3.6989,3.6989,3.7496,3.8058,3.8058,3.862,3.9196,3.9231,0.0,0.0,0.0,0.0,4.1241,0.0,0.0,0.0,0.0,0.0,0.0,0.0,0.0,0.0,0.0,0.0,0.0,0.0,0.0,0.0,0.0,4.5836,4.5924,4.6071,4.6017,4.5973,0.0,0.0,4.5609,4.4788,4.4715,4.391,4.2252,4.2181,4.2199,4.2233,4.2239,4.2737,4.3642,4.3605,4.3588,4.3549,4.3587,4.3601,4.3601,4.2783,4.2432,4.2588,4.3406,4.3718,4.3913,4.5592,4.6219,4.6219,4.1881,4.1341,4.0832,0.0,3.9213,3.8015,0.0,0.0,0.0,0.0,3.5172,3.5139,3.5139,3.5067,3.5056,3.5237,3.4965,0.0,0.0,0.0,0.0,3.5171,3.6149,3.6804,3.7026,3.7971,0.0,3.8964,0.0,0.0,3.9315,0.0,0.0,0.0,0.0,0.0,3.9202,3.904,3.8821,3.8539,3.7876,3.7426,0.0,0.0,3.5461,3.5277,3.4528,3.4366,3.4537,3.4864,3.5351,3.5854,3.6178,3.6629,3.6989,3.6989,3.713,3.7271,3.7271,3.7446,3.7707,3.8269,3.8409,3.862,0.0,0.0,0.0,0.0,0.0,0.0,0.0,0.0,0.0,0.0,0.0,0.0,0.0,0.0,0.0,0.0,0.0,0.0,4.5337,4.4522,4.4447,4.5789,4.476,4.4637,4.5924,0.0,0.0,4.5687,4.5007,4.4414,4.4029,4.3385,4.3402,4.4033,4.4079,4.4569,4.5399,4.4822,4.4529,4.4529,4.387,4.3952,4.454,4.4306,4.4618,4.5202,4.5436,4.5514,4.5592,4.602,4.6219,4.6219,4.3197,0.0,0.0,4.1606,0.0,0.0,3.8153,3.7623,0.0,3.6508,3.626,0.0,3.6073,3.5977,3.5913,3.5913,3.5899,0.0,3.669,0.0,0.0,3.6696,3.6826,3.6731,3.6462,3.7206,0.0,3.817,0.0,0.0,3.9315,0.0,0.0,0.0,0.0,3.9315,0.0,3.9094,3.8652,3.8084,3.7578,0.0,0.0,3.5493,3.5001,3.4651,3.423,3.4101,3.4176,3.4625,3.5144,3.57,3.6156,3.6629,3.6989,3.6989,3.6989,3.6989,3.6989,3.6989,3.7095,3.7496,3.7602,3.7812,3.862,3.8796,3.8845,0.0,0.0,0.0,0.0,0.0,0.0,0.0,0.0,0.0,0.0,0.0,0.0,0.0,0.0,0.0,4.505,4.3871,4.3827,4.5654,4.4705,4.4603,0.0,0.0,0.0,4.598,4.5464,4.5031,4.4688,4.425,4.4243,4.4749,4.4777,4.5269,4.6146,4.5663,4.5244,4.4855,4.4384,4.4462,4.4855,4.4501,4.4851,4.5634,4.5634,4.5868,4.6219,4.6219,4.6219,4.6219,4.4332,0.0,0.0,0.0,0.0,0.0,0.0,3.8515,0.0,3.7819,0.0,3.7111,3.7111,3.6993,3.6904,3.6904,0.0,3.7872,3.8729,3.8182,3.8148,3.8849,3.7932,3.6934,3.5982,3.6675,0.0,0.0,0.0,0.0,3.958,0.0,0.0,0.0,0.0,0.0,0.0,3.9016,3.8366,0.0,3.7339,3.6509,3.5272,3.5124,3.4651,3.4101,3.4176,3.4201,3.4243,3.4721,3.5237,3.5788,3.6241,3.667,3.6989,3.7009,3.6989,3.6989,3.7009,3.6989,3.6989,3.6989,3.6989,3.7165,3.7812,3.7953,3.8123,3.8685,3.9161,3.9203,0.0,0.0,0.0,0.0,0.0,0.0,0.0,0.0,0.0,0.0,0.0,0.0,0.0,4.3779,4.3789,4.5585,4.5109,4.5108,0.0,0.0,0.0,4.5923,4.5964,0.0,4.4882,0.0,4.4928,4.4802,4.4919,4.5367,4.6024,4.6141,4.579,4.5089,4.5089,4.5089,4.5011,4.4267,4.4384,4.5089,4.5089,4.5517,4.6219,4.6219,4.6219,4.6219,0.0,0.0,0.0,0.0,0.0,4.0382,4.0321,3.9743,3.8962,3.8008,3.7796,3.7738,3.7738,3.756,3.7472,3.7472,3.7419,0.0,0.0,0.0,0.0,3.9208,3.9023,3.856,3.7753,3.7911,3.854,0.0,4.0023,4.0481,4.1044,0.0,0.0,0.0,0.0,0.0,3.8236,3.8491,0.0,3.7194,3.6472,3.6026,3.5679,3.4666,3.4198,3.4151,3.4537,3.4706,3.4745,3.526,3.5788,3.6241,3.6731,3.693,3.7009,3.7087,3.7048,3.7009,3.7087,3.7048,3.6989,3.6989,3.6989,3.7025,3.7165,3.72,3.7196,3.7196,3.7231,3.737,3.7798,0.0,0.0,0.0,0.0,0.0,0.0,0.0,0.0,0.0,0.0,0.0,0.0,0.0,0.0,4.5246,4.4743,0.0,0.0,0.0,0.0,0.0,4.5947,0.0,0.0,0.0,4.5546,4.4883,4.5624,4.5666,4.5166,4.5868,4.6141,4.5985,4.5985,4.5985,4.5946,4.5825,4.5825,4.5985,4.5985,4.6063,4.6219,4.6219,4.6219,4.6219,0.0,0.0,0.0,0.0,0.0,0.0,0.0,4.0734,0.0,3.8942,3.8761,3.8706,3.8706,3.8595,3.8479,3.8479,3.8423,3.8995,4.0357,3.9406,3.909,3.9818,3.9123,0.0,3.7562,3.7451,3.7979,3.9148,3.9484,4.004,0.0,0.0,0.0,0.0,0.0,3.8553,0.0,0.0,0.0,3.6966,3.6525,3.6108,3.5669,3.5124,3.4897,3.492,3.5121,3.5374,3.5599,3.5876,3.6114,3.6367,3.6851,3.6989,3.6989,3.7048,3.7048,3.7048,3.7048,3.7048,3.7048,3.7009,3.6989,3.6989,3.6989,3.6989,3.693,3.6786,3.6745,3.7036,3.7938,3.9443,0.0,0.0,0.0,0.0,0.0,0.0,0.0,0.0,0.0,0.0,0.0,0.0,0.0,0.0,0.0,0.0,0.0,0.0,0.0,0.0,0.0,0.0,0.0,0.0,0.0,4.5595,4.5985,4.5985,4.5595,4.6024,4.5946,4.5517,4.5517,4.5517,4.5556,4.6024,4.6219,4.6219,4.6219,4.6219,4.6219,4.6219,4.6219,4.6219,0.0,4.3598,0.0,0.0,4.2969,0.0,4.2274,4.1342,4.0431,3.9907,3.9621,3.9475,3.9475,3.9369,3.9348,3.9514,3.9547,4.0117,4.1513,3.9891,3.9421,4.0547,3.9355,3.8275,3.7411,3.7249,3.7518,0.0,3.8859,3.9567,0.0,0.0,0.0,0.0,0.0,0.0,0.0,0.0,3.7134,3.6706,3.6706,3.6321,3.5744,3.5655,3.5611,3.5633,3.5722,3.5985,3.6339,3.6423,3.6464,3.6492,3.6871,3.6989,3.6989,3.7009,3.7068,3.7071,3.7048,3.7068,3.7071,3.7009,3.6989,3.6989,3.6989,3.697,3.6891,3.6745,3.6745,3.7061,3.816,3.9174,0.0,0.0,0.0,0.0,0.0,0.0,0.0,0.0,0.0,0.0,0.0,0.0,0.0,0.0,0.0,0.0,0.0,0.0,0.0,0.0,0.0,4.6134,4.6115,0.0,4.6105,0.0,4.6102,4.6102,4.5946,4.6141,4.5829,4.5166,4.5166,4.5166,4.5244,4.5907,4.6219,4.6219,4.6219,4.6219,4.6219,4.6219,4.6219,4.6219,0.0,0.0,0.0,0.0,0.0,0.0,4.1607,4.1409,4.1077,4.0437,3.974,3.9342,3.9342,3.9315,3.958,4.0243,4.031,4.0878,4.2274,4.1579,4.1177,4.1309,4.058,3.9818,3.909,3.8896,3.8848,0.0,0.0,4.0061,0.0,0.0,0.0,0.0,0.0,0.0,0.0,3.724,3.709,3.6345,3.6345,3.6289,3.6178,3.5766,3.5611,3.5677,3.6071,3.6241,3.6346,3.6791,3.693,3.693,3.697,3.6989,3.7009,3.7087,3.7091,3.7091,3.7071,3.7091,3.7071,3.7009,3.6989,3.6989,3.6989,3.6891,3.6791,3.6771,3.6629,3.6879,3.8078,3.8017,3.8509,0.0,0.0,0.0,0.0,0.0,0.0,0.0,0.0,0.0,0.0,4.3855,0.0,0.0,0.0,0.0,0.0,0.0,0.0,4.4608,0.0,4.5993,4.6176,4.6193,4.5803,4.505,4.5829,4.579,4.505,4.5829,4.618,4.6063,4.6063,4.6063,4.6063,4.618,4.6219,4.6219,4.6219,4.6219,4.6219,4.6219,4.6219,4.6219,0.0,0.0,0.0,0.0,0.0,0.0,0.0,4.1678,4.1309,4.1044,4.0382,3.9779,3.9348,3.9315,3.9613,4.0343,4.0011,4.0315,4.1744,4.0779,4.0348,4.0779,4.0144,3.9613,3.9315,3.8725,3.8414,0.0,0.0,0.0,0.0,0.0,0.0,0.0,0.0,3.6913,3.6578,3.7278,3.7262,3.6766,3.73,3.7175,3.671,3.6492,3.643,3.6451,3.667,3.6731,3.6751,3.693,3.6989,3.6989,3.6989,3.6989,3.6989,3.7029,3.7087,3.7091,3.7091,3.7091,3.7071,3.7087,3.7029,3.6989,3.6989,3.6891,3.6771,3.6745,3.6547,3.6513,3.6998,3.7694,3.8384,0.0,0.0,0.0,0.0,0.0,0.0,0.0,0.0,0.0,0.0,0.0,0.0,0.0,0.0,0.0,0.0,0.0,0.0,4.5266,0.0,4.5529,4.6209,4.6206,4.6047,4.5686,4.6027,4.6024,4.5673,4.6024,4.6219,4.6219,4.6219,4.6219,4.6219,4.6219,4.6219,4.6219,4.6219,4.6219,4.6219,4.6219,4.6219,4.6219,4.5019,0.0,4.6013,0.0,4.4787,4.4787,4.2771,4.2241,4.1839,4.121,4.0878,4.0415,3.9713,3.9613,4.0011,4.0945,4.0514,4.0647,4.1674,4.058,4.0078,4.0409,3.968,0.0,3.9315,3.8626,3.819,3.7933,3.898,0.0,0.0,0.0,0.0,0.0,3.7126,3.7235,3.7454,3.7992,3.8026,3.7787,3.8148,3.7897,3.7306,3.7095,3.6989,3.6989,3.6989,3.6989,3.6989,3.6989,3.6989,3.6989,3.6989,3.6989,3.6989,3.6989,3.7048,3.7091,3.7087,3.7126,3.7164,3.7106,3.7048,3.7029,3.6989,3.6871,3.6745,3.6623,3.6444,3.6381,3.6423,3.7371,3.8163,3.8218,0.0,0.0,0.0,0.0,0.0,0.0,0.0,3.9613,4.0001,0.0,0.0,0.0,0.0,0.0,0.0,0.0,0.0,0.0,0.0,0.0,0.0,4.6212,4.6206,4.6196,4.6183,4.6219,4.6219,4.6219,4.6219,4.6219,4.6219,4.6219,4.6219,4.6219,4.6219,4.6219,4.6219,4.6219,4.6219,4.6219,4.6215,4.6212,4.5781,4.5781,4.5582,4.4821,4.4688,4.4191,4.2734,4.3102,4.2833,4.0707,4.0978,4.1143,4.0475,4.0409,4.0945,4.234,4.2473,4.2473,4.2473,4.1778,4.1077,0.0,0.0,3.9315,3.9315,3.9094,3.8596,3.78,0.0,0.0,3.6541,0.0,3.8188,3.8514,3.9194,3.9215,3.8907,3.9382,3.954,3.9403,3.8627,3.8194,3.8023,3.7271,3.6989,3.6989,3.6989,3.6989,3.6989,3.6989,3.6989,3.6989,3.6989,3.6989,3.6989,3.6989,3.7048,3.7106,3.7009,3.7161,3.7257,3.7029,3.7048,3.7106,3.7009,3.6846,3.6623,3.636,3.6402,3.6561,3.6664,3.6866,3.745,3.8762,0.0,0.0,0.0,0.0,0.0,0.0,4.1582,4.182,4.0979,0.0,0.0,0.0,0.0,0.0,0.0,0.0,0.0,4.3002,4.4802,0.0,4.6215,4.6212,4.6212,4.6219,4.6219,4.6219,4.6219,4.6219,4.6219,4.6219,4.6219,4.6219,4.6219,4.6219,4.6219,4.6219,4.6219,4.6219,4.6219,4.6219,4.6204,4.6193,4.5781,4.6212,4.6146,4.492,4.5119,4.4953,4.3466,4.2605,4.1872,4.1177,4.0415,4.0078,4.0376,4.0409,4.0945,0.0,4.2042,4.1744,0.0,4.111,4.0409,3.968,3.9415,3.9315,3.9315,3.9228,3.8791,3.7933,0.0,0.0,0.0,3.828,3.8162,3.8077,3.7678,3.8003,3.8855,3.9314,3.9494,3.9509,3.977,3.918,3.8128,3.8444,3.7918,3.706,3.7567,3.7446,3.6989,3.6989,3.6989,3.6989,3.6989,3.6989,3.6989,3.6989,3.7009,3.7048,3.7068,3.7126,3.7184,3.7184,3.7145,3.7071,3.7009,3.6751,3.6506,3.6339,3.6464,3.6643,3.6684,3.6985,3.7425,3.8061,3.8409,0.0,0.0,0.0,0.0,0.0,0.0,3.9438,0.0,4.0201,0.0,0.0,0.0,0.0,0.0,0.0,0.0,0.0,4.4846,0.0,4.6173,4.6212,4.6212,4.6212,4.619,4.6219,4.6219,4.6219,4.6219,4.6219,4.6219,4.6219,4.6219,4.6219,4.6219,4.6219,4.6219,4.6219,4.6219,4.6219,4.6215,4.6208,4.6643,4.7007,4.6941,4.5715,4.5682,4.5384,4.4224,4.2767,4.1711,4.1442,4.0415,3.9978,4.068,4.0779,0.0,4.2373,4.2307,4.2109,4.1839,4.1409,4.0746,3.9746,3.9713,3.958,3.9315,0.0,0.0,3.8586,3.9322,3.9354,3.8824,3.8698,3.8633,3.8642,3.8413,3.8962,4.0001,4.0292,4.0411,4.039,4.0546,3.9954,3.9006,3.9217,3.8711,3.7998,3.8435,3.8335,3.7917,3.7596,3.7721,3.7882,3.722,3.722,3.7435,3.7115,3.6989,3.7009,3.7048,3.7126,3.7184,3.7203,3.7203,3.7126,3.6946,3.6705,3.6485,3.6444,3.6582,3.685,3.7291,3.7565,3.7925,3.8491,3.912,3.951,3.9387,0.0,0.0,0.0,0.0,0.0,0.0,3.9764,0.0,0.0,0.0,0.0,0.0,0.0,0.0,4.5101,4.504,0.0,4.6209,4.6206,4.6206,4.6209,4.619,4.6219,4.6219,4.6219,4.6219,4.6219,4.6219,4.6219,4.6219,4.6219,4.6219,4.6219,4.6219,4.6219,4.6219,4.6219,4.6212,4.6208,4.7868,4.7901,4.7703,0.0,4.6278,0.0,4.4854,4.3495,4.2241,4.1508,4.0845,4.068,4.1276,4.1442,4.174,4.2398,0.0,0.0,0.0,4.2464,4.1863,4.0485,4.0392,4.0066,3.9369,3.9342,3.9415,3.961,3.9235,3.8696,3.8133,3.8908,3.9547,4.0063,4.0781,4.1423,4.1966,4.1931,4.1866,4.1731,4.0947,4.0602,4.0432,3.9743,3.9455,3.9488,3.9559,3.957,3.9474,3.8667,3.8919,3.9332,3.7666,3.7756,3.8239,3.7345,3.706,3.7025,3.706,3.7196,3.7241,3.711,3.7184,3.718,3.6786,3.6602,3.6541,3.6664,3.6754,3.7161,3.8282,3.8557,3.8919,3.977,4.0541,4.0746,3.9937,0.0,0.0,0.0,0.0,0.0,0.0,4.0703,4.044,0.0,0.0,0.0,0.0,0.0,4.4878,4.4573,4.5356,4.5914,4.6173,4.6187,4.619,4.6219,4.6219,4.6219,4.6219,4.6219,4.6219,4.6219,4.6219,4.6219,4.6219,4.6219,4.6219,4.6219,4.6219,4.6219,4.6219,4.6219,4.6204,4.6193,0.0,0.0,4.7106,4.6941,4.6278,4.5715,4.5549,4.3827,4.2241,4.1508,4.1276,4.1044,4.068,4.1607,4.2247,4.2259,4.3098,4.324,4.2326,4.2253,4.1794,4.0759,4.0316,4.0019,3.9842,3.9494,3.9415,3.961,4.0222,4.0386,4.012,4.0315,4.0724,4.1156,4.04,4.0697,4.1788,4.1137,4.1208,4.178,4.1459,4.0994,4.0537,4.0902,4.034,3.9434,4.0032,3.994,3.9514,3.9297,3.9378,3.9529,3.9115,3.9115,3.9115,3.8239,3.7506,3.715,3.7791,3.7584,3.7164,3.7091,3.7009,3.6906,3.6725,3.6541,3.6423,3.6643,3.726,3.7918,3.8408,3.9158,3.9795,4.0012,4.0139,4.0136,3.9961,3.9768,0.0,0.0,3.9739,3.9677,3.9852,3.989,4.0315,0.0,0.0,0.0,0.0,4.4699,4.5039,4.5109,4.5398,4.5722,4.6026,4.6056,4.6083,4.6219,4.6219,4.6219,4.6219,4.6219,4.6219,4.6219,4.6219,4.6219,4.6219,4.6219,4.6219,4.6219,4.6219,4.6219,4.6219,4.6219,4.6215,4.6212,4.5947,4.6378,4.6908,4.6908,4.6795,4.6611,4.6246,4.4865,4.3468,4.2423,4.1726,4.1291,4.123,4.1598,4.2051,4.2542,4.3143,4.32,4.261,4.2568,4.221,4.134,4.1028,4.0684,4.026,4.002,3.9995,4.0245,4.0919,4.1232,4.1186,4.1186,4.1323,4.1547,4.0882,4.0984,4.1657,4.1227,4.1262,4.1692,4.1626,4.1358,4.1064,4.153,4.1165,4.0496,4.1018,4.0941,4.0594,4.0143,4.0312,4.0571,3.9726,3.9767,4.004,3.9555,3.8556,3.7701,3.8168,3.8031,3.7839,3.8157,3.7576,3.6976,3.7266,3.7192,3.7151,3.7471,3.8209,3.8949,3.9593,4.0201,4.0785,4.1124,4.1155,4.1077,4.1092,4.0619,0.0,4.0766,4.0428,4.0328,4.0666,4.0703,4.1104,4.2033,0.0,0.0,4.4121,4.46,4.4992,4.5275,4.5426,4.5657,4.5983,4.6056,4.6134,4.6219,4.6219,4.6219,4.6219,4.6219,4.6219,4.6219,4.6219,4.6219,4.6219,4.6219,4.6219,4.6219,4.6219,4.6219,4.6219,4.6219,4.6219,4.6219,4.5947,4.6378,4.6908,4.6908,4.7306,4.7428,4.6819,4.5932,4.4939,4.3654,4.246,4.1891,4.2434,4.1847,4.1886,4.3009,4.3176,4.3124,4.298,4.2995,4.2673,4.2042,4.1936,4.1529,4.0754,4.072,4.0849,4.1071,4.1436,4.1626,4.1604,4.1626,4.1626,4.1604,4.1626,4.1626,4.1604,4.1604,4.1604,4.1626,4.1626,4.1648,4.167,4.178,4.1801,4.1801,4.1923,4.1966,4.1839,4.1061,4.1315,4.1732,4.0201,4.0285,4.1002,4.1002,3.9934,3.8762,3.8722,3.8691,3.8821,3.9418,3.8466,3.7516,3.8128,3.8222,3.8243,3.862,3.9246,4.0071,4.0947,4.1336,4.1757,4.2478,4.2554,4.2458,4.2316,0.0,4.1427,4.1883,4.1431,4.1318,4.1929,4.2004,4.2068,4.2284,4.2921,4.3372,4.3576,4.4295,4.485,4.5214,4.5352,4.5595,4.5931,4.6117,4.6165,4.6219,4.6219,4.6219,4.6219,4.6219,4.6219,4.6219,4.6219,4.6219,4.6219,4.6219,4.6219,4.6219,4.6219,4.6219,4.6219,4.6219,4.6219,4.6219,4.5947,4.6378,4.6908,4.6908,4.6873,4.6853,4.6722,4.5904,4.5018,4.4174,4.4034,4.3933,4.389,4.3333,4.314,4.3626,4.3068,4.2754,4.2889,4.2911,4.2793,4.2507,4.2044,4.1648,4.1265,4.13,4.13,4.1346,4.1679,4.178,4.1604,4.1766,4.1744,4.1604,4.1801,4.178,4.1604,4.1604,4.167,4.1758,4.1758,4.1858,4.1923,4.1945,4.1902,4.1801,4.1823,4.1823,4.1823,4.166,4.1796,4.1931,4.1662,4.1747,4.1923,4.1923,4.1406,4.0812,4.0633,4.0015,3.9438,3.9514,3.9236,3.8957,3.9097,3.9014,3.9035,3.9363,4.0061,4.0745,4.1209,4.1884,4.2563,4.3013,4.2814,4.2418,4.1945,0.0,4.1745,4.1216,4.1569,4.1867,4.2004,4.2004,4.2318,4.3045,4.3286,4.3662,4.4284,4.4623,4.4802,4.4789,4.503,4.5371,4.5757,4.5931,4.6108,4.6219,4.6219,4.6219,4.6219,4.6219,4.6219,4.6219,4.6219,4.6219,4.6219,4.6219,4.6219,4.6219,4.6219,4.6219,4.6219,4.6219,4.6219,4.6219,4.5947,4.6046,4.6311,4.6311,4.6772,4.7039,4.6601,4.6734,4.646,4.5416,4.4708,4.4457,4.4757,4.3919,4.3474,4.3762,4.3479,4.3137,4.2915,4.2813,4.2752,4.2765,4.2518,4.2297,4.2065,4.1938,4.1809,4.1679,4.1959,4.198,4.178,4.198,4.2079,4.1973,4.1917,4.1831,4.1744,4.1744,4.1823,4.1888,4.2016,4.21,4.2178,4.2178,4.2058,4.1973,4.2037,4.2016,4.1952,4.1888,4.1888,4.1931,4.1923,4.1973,4.2086,4.2205,4.1757,4.1287,4.1248,4.0503,3.9957,4.0826,4.0299,3.9722,4.0268,4.0319,4.0339,4.0479,4.1181,4.1812,4.1928,4.2374,4.2804,4.316,4.2881,0.0,0.0,4.2557,4.236,4.2875,4.2784,4.2868,4.3281,4.3356,4.352,4.3987,4.3987,4.4175,4.4551,4.4605,4.4659,4.4699,4.5026,4.5323,4.5595,4.5866,4.6027,4.6074,4.6158,4.6219,4.6219,4.6219,4.6219,4.6219,4.6219,4.6219,4.6219,4.6219,4.6219,4.6219,4.6219,4.6219,4.6219,4.6219,4.6219,4.6219,4.6146,4.6046,4.598,4.5814,4.6772,4.732,4.6554,4.735,4.7593,4.6613,4.546,4.5002,4.5691,4.4613,4.3908,4.4078,4.4129,4.3796,4.2955,4.2968,4.3004,4.2994,4.2863,4.2768,4.2688,4.247,4.2287,4.2065,4.2287,4.2246,4.198,4.2267,4.2348,4.2287,4.2107,4.2023,4.198,4.198,4.2002,4.2023,4.2246,4.2348,4.2369,4.2369,4.2308,4.2169,4.2308,4.2267,4.2142,4.198,4.1959,4.1959,4.1909,4.2016,4.2205,4.2308,4.202,4.1691,4.1713,4.1149,4.089,4.2107,4.1379,4.0606,4.1391,4.1554,4.1534,4.1554,4.2115,4.251,4.2486,4.2625,4.2842,4.3214,0.0,0.0,0.0,4.3297,4.3152,4.4191,4.3898,4.382,4.4444,4.4482,4.451,4.4565,4.4524,4.451,4.4565,4.451,4.4551,4.4699,4.5044,4.5323,4.5509,4.5768,4.5908,4.6002,4.6117,4.6162,4.6219,4.6219,4.6219,4.6219,4.6219,4.6219,4.6219,4.6219,4.6219,4.6219,4.6219,4.6219,4.6219,4.6219,4.6219,4.6219,4.6841,4.6808,4.6609,4.5914,4.6743,4.732,4.6751,4.7062,4.7348,4.7232,4.6717,4.653,4.7102,4.597,4.5062,4.4946,4.51,4.4532,4.301,4.3741,4.3943,4.3233,4.2842,4.2707,4.2863,4.2688,4.257,4.255,4.257,4.247,4.2287,4.249,4.249,4.2308,4.247,4.245,4.2267,4.2267,4.2328,4.2353,4.2374,4.249,4.2589,4.2589,4.251,4.2374,4.2374,4.2369,4.2267,4.2142,4.2184,4.2246,4.2121,4.2246,4.2374,4.2374,4.2577,4.2772,4.2713,4.2638,4.2544,4.2434,4.2302,4.223,4.2322,4.2262,4.2257,4.2394,4.2353,4.2348,4.2465,4.2521,4.2727,4.3461,0.0,0.0,4.3482,4.4027,4.4191,4.3576,4.4035,4.4444,4.4482,4.4482,4.4482,4.4496,4.4482,4.4482,4.4496,4.4482,4.4551,4.4699,4.4948,4.525,4.5509,4.5505,4.5672,4.6002,4.6007,4.606,4.6219,4.6219,4.6219,4.6219,4.6219,4.6219,4.6219,4.6219,4.6219,4.6219,4.6219,4.6219,4.6219,4.6219,4.6219,4.6219,4.6974,4.6908,4.6676,4.5914,4.6081,4.6246,4.6057,4.6469,4.6913,4.7276,4.6923,4.69,4.7472,4.693,4.6392,4.613,4.6177,4.5562,4.396,4.4181,4.409,4.3429,4.3196,4.3087,4.3105,4.2956,4.2804,4.2609,4.271,4.2688,4.249,4.2671,4.2729,4.2652,4.2629,4.257,4.249,4.249,4.251,4.2514,4.2652,4.2729,4.2768,4.2727,4.2688,4.2649,4.2649,4.2629,4.2589,4.247,4.245,4.247,4.2313,4.2414,4.2652,4.2956,4.3068,4.3087,4.305,4.2956,4.2842,4.2729,4.2688,4.2649,4.2649,4.2629,4.2606,4.2542,4.2506,4.249,4.2486,4.2526,4.2804,4.3495,0.0,4.3775,4.4041,4.4377,4.4465,4.4124,4.4308,4.4482,4.4482,4.4482,4.4482,4.4482,4.4045,4.397,4.4482,4.4482,4.4592,4.4827,4.4938,4.5053,4.526,4.5419,4.5547,4.5672,4.5891,4.6022,4.606,4.6158,4.6219,4.6219,4.6219,4.6219,4.6219,4.6219,4.6219,4.6219,4.6219,4.6219,4.6219,4.6219,4.6219,4.6219,4.7338,4.7239,4.6941,4.5947,4.6073,4.6152,4.5768,4.6448,4.7093,4.7457,4.7335,4.732,4.7726,4.7606,4.7285,4.6861,4.7085,4.6537,4.4911,4.4601,4.4217,4.3534,4.3447,4.3359,4.3214,4.3105,4.2973,4.2707,4.2825,4.2825,4.2707,4.2825,4.2901,4.2882,4.2785,4.2707,4.2707,4.2707,4.2707,4.2727,4.2825,4.2901,4.2882,4.2861,4.2823,4.2823,4.2823,4.2823,4.2804,4.2688,4.2688,4.2688,4.2573,4.2691,4.2939,4.3269,4.3305,4.316,4.3196,4.3032,4.2901,4.2901,4.288,4.2823,4.2785,4.2782,4.2704,4.2506,4.2506,4.249,4.2445,4.245,4.2729,4.3424,4.3577,4.3823,4.4411,4.4537,4.4551,4.4524,4.4496,4.4496,4.4524,4.4496,4.4482,4.4482,4.4008,4.3933,4.4482,4.4482,4.4605,4.484,4.4889,4.4974,4.5103,4.5341,4.5455,4.5518,4.5708,4.5891,4.6002,4.6113,4.6154,4.6219,4.6219,4.6219,4.6219,4.6219,4.6219,4.6219,4.6219,4.6219,4.6219,4.6219,4.6219,4.6219,4.8001,4.8001,4.7537,4.6046,4.6907,4.7369,4.6189,4.7132,4.7992,4.7992,4.7992,4.7992,4.7992,4.7992,4.7683,4.6881,4.7714,4.7513,4.5713,4.5041,4.4342,4.3551,4.3447,4.3359,4.3214,4.3141,4.3049,4.2901,4.2901,4.2901,4.2901,4.2901,4.2901,4.2901,4.2901,4.2901,4.2901,4.2901,4.2901,4.2901,4.2901,4.2901,4.2901,4.2901,4.2901,4.2901,4.2901,4.2901,4.2882,4.2804,4.2842,4.2901,4.2901,4.3032,4.3233,4.3376,4.3251,4.3123,4.3178,4.3032,4.2901,4.2901,4.2901,4.2863,4.2804,4.2688,4.257,4.2506,4.2405,4.2308,4.2308,4.2308,4.2554,4.3265,4.3387,4.3677,4.4397,4.4482,4.451,4.4592,4.4537,4.451,4.4592,4.4537,4.4482,4.4482,4.4482,4.4482,4.4482,4.4482,4.4551,4.4699,4.484,4.4974,4.5103,4.5224,4.5351,4.5509,4.5509,4.5657,4.5997,4.6002,4.6056,4.6219,4.6219,4.6219,4.6219,4.6219,4.6219,4.6219,4.6219,4.6219,4.6219,4.6219,4.6219,4.6219,4.7338,4.7636,4.7537,4.6046,4.6331,4.6601,4.609,4.6507,4.7168,4.7875,4.8131,4.8151,4.8012,4.8131,4.8099,4.788,4.8121,4.7827,4.6707,4.5443,4.4581,4.4342,4.3774,4.3428,4.3322,4.3214,4.3123,4.3049,4.2956,4.2901,4.2901,4.2901,4.2901,4.2901,4.2901,4.2901,4.2901,4.2901,4.2901,4.2901,4.2901,4.2901,4.2901,4.2901,4.2901,4.2901,4.2901,4.2901,4.2882,4.2899,4.2956,4.3031,4.3105,4.3123,4.316,4.3233,4.316,4.3104,4.3141,4.3012,4.2901,4.2901,4.2901,4.2844,4.2688,4.2629,4.255,4.2369,4.2328,4.2308,4.2308,4.2514,4.281,4.33,4.3644,4.3986,4.4426,4.4482,4.4496,4.451,4.4496,4.4496,4.451,4.4496,4.4482,4.4482,4.4482,4.4257,4.3707,4.4237,4.4605,4.4699,4.4889,4.5022,4.5103,4.5224,4.5319,4.5341,4.5446,4.5595,4.5796,4.5925,4.6056,4.6219,4.6219,4.6219,4.6219,4.6219,4.6219,4.6219,4.6219,4.6219,4.6219,4.6219,4.6219,4.6219,4.704,4.7504,4.7569,4.6234,4.6566,4.6845,4.6239,4.6715,4.7385,4.8015,4.8229,4.8248,4.8131,4.8229,4.8306,4.8306,4.8306,4.7957,4.7149,4.6195,4.5351,4.4728,4.4232,4.3793,4.3412,4.3269,4.316,4.3104,4.2975,4.2901,4.2901,4.2901,4.2901,4.2901,4.2901,4.2901,4.2901,4.2901,4.2901,4.2901,4.2901,4.2901,4.2901,4.2901,4.2901,4.2901,4.2901,4.292,4.2975,4.2901,4.2994,4.3123,4.3178,4.3196,4.3233,4.3251,4.3196,4.3105,4.3104,4.2994,4.2901,4.2901,4.2901,4.2844,4.2649,4.2609,4.255,4.2348,4.2328,4.2389,4.2494,4.2713,4.3051,4.3574,4.3876,4.4124,4.4524,4.4524,4.4524,4.4605,4.4565,4.4537,4.4578,4.4578,4.4565,4.4537,4.4565,4.4377,4.3823,4.4342,4.4699,4.4827,4.495,4.5068,4.5181,4.5267,4.5347,4.5288,4.5381,4.55,4.5642,4.579,4.5958,4.613,4.6165,4.6219,4.6219,4.6219,4.6219,4.6219,4.6219,4.6219,4.6219,4.6219,4.6219,4.6219,4.6941,4.7338,4.7435,4.638,4.7174,4.7611,4.6565,4.7428,4.8209,4.8287,4.8306,4.8306,4.8306,4.8306,4.8306,4.8306,4.8306,4.7993,4.7259,4.7149,4.6452,4.4984,4.4856,4.4399,4.3522,4.3305,4.3178,4.3104,4.2994,4.2901,4.2901,4.2901,4.2901,4.2901,4.2901,4.2901,4.2901,4.2901,4.2901,4.2901,4.2901,4.2901,4.2901,4.2901,4.2901,4.2901,4.2901,4.2975,4.3067,4.2956,4.2994,4.3104,4.316,4.3269,4.3376,4.3376,4.3269,4.3178,4.3123,4.2994,4.2901,4.2901,4.2882,4.2825,4.2649,4.2609,4.255,4.2348,4.2425,4.2586,4.2772,4.2941,4.3302,4.398,4.4064,4.4185,4.4632,4.4578,4.4578,4.4764,4.4685,4.4632,4.4685,4.4685,4.4659,4.4592,4.4659,4.4672,4.4605,4.4672,4.4802,4.4986,4.501,4.5103,4.5267,4.5367,4.5378,4.5288,4.5288,4.5361,4.5526,4.5642,4.5783,4.5991,4.613,4.6169,4.6169,4.6215,4.6219,4.6219,4.6219,4.6219,4.6219,4.6219,4.6141,4.6063,4.6179,4.6146,4.6074,4.5544,4.5809,4.622,4.6387,4.6842,4.7464,4.8209,4.8306,4.8306,4.8306,4.8306,4.8306,4.8306,4.8306,4.8233,4.803,4.7443,4.6929,4.6599,4.5993,4.5241,4.4453,4.3705,4.3323,4.3178,4.3123,4.2994,4.2901,4.2901,4.2901,4.2901,4.2901,4.2901,4.2901,4.2901,4.2901,4.2901,4.2901,4.2901,4.2901,4.2901,4.2901,4.2901,4.2901,4.2901,4.2956,4.3012,4.2994,4.2975,4.3068,4.3141,4.316,4.316,4.3141,4.3123,4.3104,4.2994,4.2901,4.2901,4.2861,4.2765,4.2629,4.2609,4.257,4.2465,4.2465,4.2625,4.2977,4.3284,4.3594,4.4048,4.4244,4.4426,4.4524,4.4551,4.4592,4.4632,4.4672,4.4659,4.4619,4.4565,4.4524,4.451,4.4578,4.4619,4.4592,4.4725,4.4815,4.4852,4.501,4.5103,4.5148,4.5298,4.5398,4.5388,4.5388,4.5458,4.5569,4.553,4.5627,4.5783,4.5947,4.6037,4.6042,4.6154,4.6219,4.6219,4.6219,4.6219,4.6219,4.6219,4.579,4.5089,4.5417,4.5673,4.5888,4.5484,4.583,4.6289,4.6578,4.6968,4.7485,4.8209,4.8306,4.8306,4.8306,4.8306,4.8306,4.8306,4.8306,4.8306,4.8306,4.7883,4.748,4.7113,4.6709,4.6104,4.5296,4.4839,4.4162,4.3286,4.3542,4.3449,4.2994,4.2956,4.2901,4.2901,4.2901,4.2901,4.2901,4.2901,4.2901,4.2901,4.2901,4.2901,4.2901,4.2901,4.2956,4.2994,4.2901,4.2901,4.292,4.3087,4.305,4.292,4.3087,4.3141,4.3104,4.3104,4.3104,4.3086,4.3012,4.2956,4.2901,4.2901,4.288,4.2804,4.2649,4.257,4.2526,4.2425,4.257,4.2863,4.3212,4.3607,4.3996,4.4388,4.451,4.4578,4.4685,4.4632,4.4632,4.4738,4.4751,4.4738,4.4712,4.4605,4.4537,4.4537,4.4605,4.4632,4.4605,4.4764,4.4877,4.4902,4.5068,4.5159,4.5192,4.5339,4.54,4.54,4.5418,4.5429,4.5494,4.5491,4.553,4.5619,4.5777,4.5908,4.6007,4.6099,4.6142,4.6219,4.6219,4.6219,4.6219,4.6219,4.5907,4.54,4.4655,4.526,4.5794,4.5448,4.6014,4.6567,4.6743,4.7182,4.7653,4.8114,4.819,4.819,4.819,4.819,4.8229,4.8287,4.8306,4.8306,4.8306,4.8306,4.8012,4.7333,4.7296,4.6929,4.6104,4.625,4.548,4.3814,4.429,4.4105,4.3322,4.3156,4.3046,4.2901,4.2901,4.2901,4.2901,4.2901,4.2901,4.2901,4.2901,4.2901,4.2901,4.2901,4.2975,4.3067,4.2956,4.2901,4.292,4.3123,4.3087,4.2939,4.3142,4.3142,4.3123,4.3104,4.3104,4.3086,4.2975,4.2901,4.2901,4.2901,4.2882,4.2806,4.2649,4.2566,4.2486,4.2348,4.271,4.3105,4.347,4.3896,4.4322,4.4713,4.4699,4.4685,4.4852,4.4738,4.4699,4.4877,4.4852,4.4802,4.4789,4.4672,4.4592,4.4592,4.4659,4.4685,4.4659,4.4827,4.4962,4.5045,4.53,4.5453,4.5507,4.5581,4.5707,4.5822,4.5563,4.5428,4.538,4.5457,4.5464,4.5473,4.5619,4.5757,4.5902,4.5986,4.6051,4.6162,4.6173,4.6219,4.618,4.5864,4.567,4.5397,4.3863,4.4097,4.4452,4.4632,4.496,4.5492,4.6204,4.6719,4.716,4.7632,4.7695,4.7695,4.7695,4.7695,4.7875,4.8267,4.8306,4.8306,4.8306,4.8306,4.8269,4.8159,4.8159,4.7736,4.6966,4.7645,4.7148,4.548,4.544,4.4981,4.4141,4.399,4.357,4.2901,4.2901,4.2901,4.2901,4.2901,4.2901,4.2901,4.2901,4.2901,4.2901,4.2901,4.2901,4.2901,4.2901,4.2901,4.2901,4.3086,4.3104,4.3086,4.3104,4.316,4.3178,4.3123,4.3104,4.3086,4.3086,4.2994,4.2901,4.2901,4.2861,4.2765,4.2629,4.2589,4.255,4.2486,4.2749,4.3141,4.3673,4.3989,4.4322,4.4713,4.4738,4.4699,4.4725,4.4764,4.4789,4.4827,4.4815,4.4789,4.4725,4.4646,4.4592,4.4592,4.4659,4.4751,4.4865,4.495,4.5057,4.517,4.5905,4.6331,4.6347,4.6452,4.6896,4.7634,4.6177,4.5477,4.539,4.536,4.5329,4.5339,4.5464,4.5522,4.5571,4.5872,4.6007,4.6032,4.615,4.6219,4.602,4.4501,4.3484,4.2705,4.3694,4.3977,4.435,4.4491,4.4906,4.5441,4.6105,4.6602,4.7071,4.7548,4.7611,4.7611,4.7611,4.7611,4.7777,4.8267,4.8306,4.8306,4.8306,4.8306,4.8306,4.8306,4.8306,4.8122,4.7773,4.8122,4.7957,4.7222,4.6651,4.5715,4.4362,4.4267,4.3736,4.2901,4.2901,4.2901,4.2901,4.2901,4.2901,4.2901,4.2901,4.2901,4.2901,4.2901,4.2956,4.3012,4.3012,4.3012,4.3012,4.3105,4.3141,4.3104,4.3123,4.3105,4.305,4.2994,4.2994,4.2994,4.2994,4.2956,4.2901,4.2901,4.2899,4.2823,4.2649,4.2609,4.255,4.2425,4.271,4.3141,4.3603,4.3974,4.4336,4.4764,4.4776,4.4738,4.4815,4.4815,4.4827,4.4865,4.484,4.4802,4.4764,4.4699,4.4659,4.4659,4.4646,4.4712,4.4852,4.4926,4.501,4.5148,4.5595,4.5829,4.5812,4.6414,4.6666,4.656,4.634,4.6196,4.6167,4.5609,4.5367,4.5367,4.54,4.5409,4.5535,4.5736,4.5902,4.6012,4.6146,4.6219,4.6063,4.4773,4.4072,4.3565]}]]